[[{"header":{"parameterUnit":"m.s-1","parameterCategory":1,"la1":30.6,"la2":28.766,"lo1":-90.7593,"lo2":-88.6598,"dy":0.0162,"dx":0.0183,"nx":116,"ny":114,"refTime":"2024-05-27T06:00:00:Z","depth":0,"parameterNumber":2,"parameterNumberName":"U-component_of_WINDS"},"data":[0.0,0.0,0.0,0.0,0.0,0.0,0.0,0.0,0.0,0.0,0.0,0.0,0.0,0.0,0.0,0.0,0.0,0.0,0.0,0.0,0.0,0.0,0.0,0.0,0.0,0.0,0.0,0.0,0.0,0.0,0.0,0.0,0.0,0.0,0.0,0.0,0.0,0.0,0.0,0.0,0.0,0.0,0.0,0.0,0.0,0.0,0.0,0.0,0.0,0.0,0.0,0.0,0.0,0.0,0.0,0.0,0.0,0.0,0.0,0.0,0.0,0.0,0.0,0.0,0.0,0.0,0.0,0.0,0.0,0.0,0.0,0.0,0.0,0.0,0.0,0.0,0.0,0.0,0.0,0.0,0.0,0.0,0.0,0.0,0.0,0.0,0.0,0.0,0.0,0.0,0.0,0.0,0.0,0.0,0.0,0.0,0.0,0.0,0.0,0.0,0.0,0.0,0.0,0.0,0.0,0.0,0.0,0.0,0.0,0.0,0.0,0.0,0.0,0.0,0.0,0.0,0.0,0.0,0.0,0.0,0.0,0.0,0.0,0.0,0.0,0.0,0.0,0.0,0.0,0.0,0.0,0.0,0.0,0.0,0.0,0.0,0.0,0.0,0.0,0.0,0.0,0.0,0.0,0.0,0.0,0.0,0.0,0.0,0.0,0.0,0.0,0.0,0.0,0.0,0.0,0.0,0.0,0.0,0.0,0.0,0.0,0.0,0.0,0.0,0.0,0.0,0.0,0.0,0.0,0.0,0.0,0.0,0.0,0.0,0.0,0.0,0.0,0.0,0.0,0.0,0.0,0.0,0.0,0.0,0.0,0.0,0.0,0.0,0.0,0.0,0.0,0.0,0.0,0.0,0.0,0.0,0.0,0.0,0.0,0.0,0.0,0.0,0.0,0.0,0.0,0.0,0.0,0.0,0.0,0.0,0.0,0.0,0.0,0.0,0.0,0.0,0.0,0.0,0.0,0.0,0.0,0.0,0.0,0.0,0.0,0.0,0.0,0.0,0.0,0.0,0.0,0.0,0.0,0.0,0.0,0.0,0.0,0.0,0.0,0.0,0.0,0.0,0.0,0.0,0.0,0.0,0.0,0.0,0.0,0.0,0.0,0.0,0.0,0.0,0.0,0.0,0.0,0.0,0.0,0.0,0.0,0.0,0.0,0.0,0.0,0.0,0.0,0.0,0.0,0.0,0.0,0.0,0.0,0.0,0.0,0.0,0.0,0.0,0.0,0.0,0.0,0.0,0.0,0.0,0.0,0.0,0.0,0.0,0.0,0.0,0.0,0.0,0.0,0.0,0.0,0.0,0.0,0.0,0.0,0.0,0.0,0.0,0.0,0.0,0.0,0.0,0.0,0.0,0.0,0.0,0.0,0.0,0.0,0.0,0.0,0.0,0.0,0.0,0.0,0.0,0.0,0.0,0.0,0.0,0.0,0.0,0.0,0.0,0.0,0.0,0.0,0.0,0.0,0.0,0.0,0.0,0.0,0.0,0.0,0.0,0.0,0.0,0.0,0.0,0.0,0.0,0.0,0.0,0.0,0.0,0.0,0.0,0.0,0.0,0.0,0.0,0.0,0.0,0.0,0.0,0.0,0.0,0.0,0.0,0.0,0.0,0.0,0.0,0.0,0.0,0.0,0.0,0.0,0.0,0.0,0.0,0.0,0.0,0.0,0.0,0.0,0.0,0.0,0.0,0.0,0.0,0.0,0.0,0.0,0.0,0.0,0.0,0.0,0.0,0.0,0.0,0.0,0.0,0.0,0.0,0.0,0.0,0.0,0.0,0.0,0.0,0.0,0.0,0.0,0.0,0.0,0.0,0.0,0.0,0.0,0.0,0.0,0.0,0.0,0.0,0.0,0.0,0.0,0.0,0.0,0.0,0.0,0.0,0.0,0.0,0.0,0.0,0.0,0.0,0.0,0.0,0.0,0.0,0.0,0.0,0.0,0.0,0.0,0.0,0.0,0.0,0.0,0.0,0.0,0.0,0.0,0.0,0.0,0.0,0.0,0.0,0.0,0.0,0.0,0.0,0.0,0.0,0.0,0.0,0.0,0.0,0.0,0.0,0.0,0.0,0.0,0.0,0.0,0.0,0.0,0.0,0.0,0.0,0.0,0.0,0.0,0.0,0.0,0.0,0.0,0.0,0.0,0.0,0.0,0.0,0.0,0.0,0.0,0.0,0.0,0.0,0.0,0.0,0.0,0.0,0.0,0.0,0.0,0.0,0.0,0.0,0.0,0.0,0.0,0.0,0.0,0.0,0.0,0.0,0.0,0.0,0.0,0.0,0.0,0.0,0.0,0.0,0.0,0.0,0.0,0.0,0.0,0.0,0.0,0.0,0.0,0.0,0.0,0.0,0.0,0.0,0.0,0.0,0.0,0.0,0.0,0.0,0.0,0.0,0.0,0.0,0.0,0.0,0.0,0.0,0.0,0.0,0.0,0.0,0.0,0.0,0.0,0.0,0.0,0.0,0.0,0.0,0.0,0.0,0.0,0.0,0.0,0.0,0.0,0.0,0.0,0.0,0.0,0.0,0.0,0.0,0.0,0.0,0.0,0.0,0.0,0.0,0.0,0.0,0.0,0.0,0.0,0.0,0.0,0.0,0.0,0.0,0.0,0.0,0.0,0.0,0.0,0.0,0.0,0.0,0.0,0.0,0.0,0.0,0.0,0.0,0.0,0.0,0.0,0.0,0.0,0.0,0.0,0.0,0.0,0.0,0.0,0.0,0.0,0.0,0.0,0.0,0.0,0.0,0.0,0.0,0.0,0.0,0.0,0.0,0.0,0.0,0.0,0.0,0.0,0.0,0.0,0.0,0.0,0.0,0.0,0.0,0.0,0.0,0.0,0.0,0.0,0.0,0.0,0.0,0.0,0.0,0.0,0.0,0.0,0.0,0.0,0.0,0.0,0.0,0.0,0.0,0.0,0.0,0.0,0.0,0.0,0.0,0.0,0.0,0.0,0.0,0.0,0.0,0.0,0.0,0.0,0.0,0.0,0.0,0.0,0.0,0.0,0.0,0.0,0.0,0.0,0.0,0.0,0.0,0.0,0.0,0.0,0.0,0.0,0.0,0.0,0.0,0.0,0.0,0.0,0.0,0.0,0.0,0.0,0.0,0.0,0.0,0.0,0.0,0.0,0.0,0.0,0.0,0.0,0.0,0.0,0.0,0.0,0.0,0.0,0.0,0.0,0.0,0.0,0.0,0.0,0.0,0.0,0.0,0.0,0.0,0.0,0.0,0.0,0.0,0.0,0.0,0.0,0.0,0.0,0.0,0.0,0.0,0.0,0.0,0.0,0.0,0.0,0.0,0.0,0.0,0.0,0.0,0.0,0.0,0.0,0.0,0.0,0.0,0.0,0.0,0.0,0.0,0.0,0.0,0.0,0.0,0.0,0.0,0.0,0.0,0.0,0.0,0.0,0.0,0.0,0.0,0.0,0.0,0.0,0.0,0.0,0.0,0.0,0.0,0.0,0.0,0.0,0.0,0.0,0.0,0.0,0.0,0.0,0.0,0.0,0.0,0.0,0.0,0.0,0.0,0.0,0.0,0.0,0.0,0.0,0.0,0.0,0.0,0.0,0.0,0.0,0.0,0.0,0.0,0.0,0.0,0.0,0.0,0.0,0.0,0.0,0.0,0.0,0.0,0.0,0.0,0.0,0.0,0.0,0.0,0.0,0.0,0.0,0.0,0.0,0.0,0.0,0.0,0.0,0.0,0.0,0.0,0.0,0.0,0.0,0.0,0.0,0.0,0.0,0.0,0.0,0.0,0.0,0.0,0.0,0.0,0.0,0.0,0.0,0.0,0.0,0.0,0.0,0.0,0.0,0.0,0.0,0.0,0.0,0.0,0.0,0.0,0.0,0.0,0.0,0.0,0.0,0.0,0.0,0.0,0.0,0.0,0.0,0.0,0.0,0.0,0.0,0.0,0.0,0.0,0.0,0.0,0.0,0.0,0.0,0.0,0.0,0.0,0.0,0.0,0.0,0.0,0.0,0.0,0.0,0.0,0.0,0.0,0.0,0.0,0.0,0.0,0.0,0.0,0.0,0.0,0.0,0.0,0.0,0.0,0.0,0.0,0.0,0.0,0.0,0.0,0.0,0.0,0.0,0.0,0.0,0.0,0.0,0.0,0.0,0.0,0.0,0.0,0.0,0.0,0.0,0.0,0.0,0.0,0.0,0.0,0.0,0.0,0.0,0.0,0.0,0.0,0.0,0.0,0.0,0.0,0.0,0.0,0.0,0.0,0.0,0.0,0.0,0.0,0.0,0.0,0.0,0.0,0.0,0.0,0.0,0.0,0.0,0.0,0.0,0.0,0.0,0.0,0.0,0.0,0.0,0.0,0.0,0.0,0.0,0.0,0.0,0.0,0.0,0.0,0.0,0.0,0.0,0.0,0.0,0.0,0.0,0.0,0.0,0.0,0.0,0.0,0.0,0.0,0.0,0.0,0.0,0.0,0.0,0.0,0.0,0.0,0.0,0.0,0.0,0.0,0.0,0.0,0.0,0.0,0.0,0.0,0.0,0.0,0.0,0.0,0.0,0.0,0.0,0.0,0.0,0.0,0.0,0.0,0.0,0.0,0.0,0.0,0.0,0.0,0.0,0.0,0.0,0.0,0.0,0.0,0.0,0.0,0.0,0.0,0.0,0.0,0.0,0.0,0.0,0.0,0.0,0.0,0.0,0.0,0.0,0.0,0.0,0.0,0.0,0.0,0.0,0.0,0.0,0.0,0.0,0.0,0.0,0.0,0.0,0.0,0.0,0.0,0.0,0.0,0.0,0.0,0.0,0.0,0.0,0.0,0.0,0.0,0.0,0.0,0.0,0.0,0.0,0.0,0.0,0.0,0.0,0.0,0.0,0.0,0.0,0.0,0.0,0.0,0.0,0.0,0.0,0.0,0.0,0.0,0.0,0.0,0.0,0.0,0.0,0.0,0.0,0.0,0.0,0.0,0.0,0.0,0.0,0.0,0.0,0.0,0.0,0.0,0.0,0.0,0.0,0.0,0.0,0.0,0.0,0.0,0.0,0.0,0.0,0.0,0.0,0.0,0.0,0.0,0.0,0.0,0.0,0.0,0.0,0.0,0.0,0.0,0.0,0.0,0.0,0.0,0.0,0.0,0.0,0.0,0.0,0.0,0.0,0.0,0.0,0.0,0.0,0.0,0.0,0.0,0.0,0.0,0.0,0.0,0.0,0.0,0.0,0.0,0.0,0.0,0.0,0.0,0.0,0.0,0.0,0.0,0.0,0.0,0.0,0.0,0.0,0.0,0.0,0.0,0.0,0.0,0.0,0.0,0.0,0.0,0.0,0.0,0.0,0.0,0.0,0.0,0.0,0.0,0.0,0.0,0.0,0.0,0.0,0.0,0.0,0.0,0.0,0.0,0.0,0.0,0.0,0.0,0.0,0.0,0.0,0.0,0.0,0.0,0.0,0.0,0.0,0.0,0.0,0.0,0.0,0.0,0.0,0.0,0.0,0.0,0.0,0.0,0.0,0.0,0.0,0.0,0.0,0.0,0.0,0.0,0.0,0.0,0.0,0.0,0.0,0.0,0.0,0.0,0.0,0.0,0.0,0.0,0.0,0.0,0.0,0.0,0.0,0.0,0.0,0.0,0.0,0.0,0.0,0.0,0.0,0.0,0.0,0.0,0.0,0.0,0.0,0.0,0.0,0.0,0.0,0.0,0.0,0.0,0.0,0.0,0.0,0.0,0.0,0.0,0.0,0.0,0.0,0.0,0.0,0.0,0.0,0.0,0.0,0.0,0.0,0.0,0.0,0.0,0.0,0.0,0.0,0.0,0.0,0.0,0.0,0.0,0.0,0.0,0.0,0.0,0.0,0.0,0.0,0.0,0.0,0.0,0.0,0.0,0.0,0.0,0.0,0.0,0.0,0.0,0.0,0.0,0.0,0.0,0.0,0.0,0.0,0.0,0.0,0.0,0.0,0.0,0.0,0.0,0.0,0.0,0.0,0.0,0.0,0.0,0.0,0.0,0.0,0.0,0.0,0.0,0.0,0.0,0.0,0.0,0.0,0.0,0.0,0.0,0.0,0.0,0.0,0.0,0.0,0.0,0.0,0.0,0.0,0.0,-5.9602,0.0,0.0,0.0,0.0,0.0,0.0,0.0,0.0,0.0,0.0,0.0,0.0,0.0,0.0,0.0,0.0,0.0,0.0,0.0,0.0,0.0,0.0,0.0,0.0,-2.9586,-3.1274,-3.2462,-3.2926,-3.3353,-3.372,0.0,0.0,0.0,0.0,0.0,-3.1397,-3.1788,-3.2375,-3.3146,-3.5165,-3.7331,-3.9606,-3.8762,-3.6707,-3.3747,0.0,0.0,0.0,0.0,0.0,0.0,0.0,0.0,0.0,0.0,0.0,0.0,0.0,0.0,0.0,0.0,0.0,0.0,0.0,0.0,0.0,0.0,0.0,0.0,0.0,0.0,0.0,0.0,0.0,0.0,0.0,0.0,0.0,0.0,0.0,0.0,0.0,0.0,0.0,0.0,0.0,0.0,0.0,0.0,0.0,0.0,0.0,0.0,0.0,0.0,0.0,0.0,0.0,0.0,0.0,0.0,0.0,0.0,0.0,0.0,0.0,0.0,0.0,0.0,0.0,0.0,0.0,0.0,0.0,0.0,0.0,-6.3527,0.0,0.0,0.0,0.0,0.0,0.0,0.0,0.0,0.0,0.0,0.0,0.0,0.0,0.0,0.0,0.0,0.0,0.0,0.0,0.0,0.0,-2.7016,-2.8081,-3.0258,-3.2375,-3.4284,-3.4321,-3.4504,-3.5188,-3.4454,0.0,0.0,0.0,-3.2559,-3.2045,-3.2816,-3.4087,-3.5848,-3.904,-4.291,-4.7388,-4.7535,-4.4745,-3.9606,-3.8322,0.0,0.0,0.0,0.0,0.0,0.0,0.0,0.0,0.0,0.0,0.0,0.0,0.0,0.0,0.0,0.0,0.0,0.0,0.0,0.0,0.0,0.0,0.0,0.0,0.0,0.0,0.0,0.0,0.0,0.0,0.0,0.0,0.0,0.0,0.0,0.0,0.0,0.0,0.0,0.0,0.0,0.0,0.0,0.0,0.0,0.0,0.0,0.0,0.0,0.0,0.0,0.0,0.0,0.0,0.0,0.0,0.0,0.0,0.0,0.0,0.0,0.0,0.0,0.0,-7.5447,-7.6508,-7.6719,-7.7847,-7.9446,-7.4752,-7.2893,-7.2585,0.0,0.0,0.0,0.0,0.0,0.0,0.0,0.0,0.0,0.0,0.0,0.0,0.0,0.0,0.0,0.0,0.0,0.0,0.0,0.0,-2.7457,-2.9622,-3.1421,-3.3697,-3.6758,-3.6376,-3.6009,-3.6119,-3.5334,0.0,0.0,-3.366,-3.3917,-3.4527,-3.5385,-3.6927,-3.9239,-4.5186,-4.9848,-5.3298,-5.3995,-5.387,-5.2784,-4.6434,-4.3443,-4.2983,0.0,0.0,0.0,0.0,0.0,0.0,0.0,0.0,0.0,0.0,0.0,0.0,0.0,0.0,0.0,0.0,0.0,0.0,0.0,0.0,0.0,0.0,0.0,0.0,0.0,0.0,0.0,0.0,0.0,0.0,0.0,0.0,0.0,0.0,0.0,0.0,0.0,0.0,0.0,0.0,0.0,-4.928,-5.2711,0.0,0.0,0.0,0.0,0.0,0.0,0.0,0.0,0.0,0.0,0.0,0.0,0.0,0.0,-7.378,-7.8332,-8.0718,-8.0975,-8.5788,-8.7809,-8.7369,-8.8065,-8.8577,-8.8761,-8.7367,0.0,-7.5422,-7.1687,0.0,0.0,0.0,0.0,0.0,0.0,0.0,0.0,0.0,0.0,0.0,0.0,0.0,0.0,0.0,0.0,0.0,0.0,0.0,0.0,0.0,-3.4234,-3.7147,-3.9937,-4.1111,-4.0928,-3.9129,-3.8212,-3.678,-3.4564,-3.4027,-3.4394,-3.5716,-3.7,-4.0634,-4.6691,-5.2234,-5.6381,-5.9134,-5.9501,-5.9905,-6.0199,-5.6051,-5.194,-4.7865,-4.3901,0.0,0.0,0.0,0.0,0.0,0.0,0.0,0.0,0.0,0.0,0.0,0.0,0.0,0.0,0.0,0.0,0.0,0.0,0.0,0.0,0.0,0.0,0.0,0.0,0.0,0.0,0.0,0.0,0.0,0.0,0.0,0.0,0.0,0.0,0.0,0.0,0.0,0.0,0.0,-4.7535,-5.2637,-5.3628,-5.4399,-5.3959,0.0,0.0,0.0,0.0,0.0,0.0,0.0,0.0,0.0,-7.4221,-7.679,-7.9507,-8.237,-8.5857,-8.7876,-8.8353,-9.0849,-9.206,-9.217,-9.2537,-9.2684,-9.2648,-9.184,-8.8982,-8.4492,-7.8647,-7.401,-7.0229,0.0,0.0,0.0,0.0,0.0,-6.5795,0.0,0.0,0.0,0.0,0.0,0.0,0.0,0.0,0.0,0.0,0.0,0.0,-3.3476,-3.6927,-4.023,-4.3277,-4.4966,-4.4819,-4.2196,-4.0708,-3.8615,-3.5775,-3.4651,-3.4908,-3.656,-4.001,-4.5736,-5.3849,-5.829,-6.1594,-6.3759,-6.398,-6.4383,-6.4934,-6.3503,-5.9391,-5.3298,-4.9407,-4.5002,-4.021,0.0,0.0,0.0,0.0,0.0,0.0,0.0,0.0,0.0,0.0,0.0,0.0,0.0,0.0,0.0,0.0,0.0,0.0,0.0,0.0,0.0,0.0,0.0,0.0,0.0,0.0,0.0,0.0,0.0,0.0,0.0,0.0,0.0,0.0,0.0,0.0,0.0,-5.2013,-5.6088,-5.5699,-5.8877,-5.9501,0.0,0.0,0.0,0.0,0.0,0.0,-7.1505,-7.4368,-7.7598,-8.1269,-8.4315,-8.7031,-8.9417,-9.1473,-9.2794,-9.3418,-9.3639,-9.4042,-9.4593,-9.4593,-9.4593,-9.4556,-9.3749,-9.2905,-9.1583,-8.4531,-8.0658,-7.871,-7.4363,-7.2011,-7.1358,-7.3744,-7.3264,-7.2185,0.0,0.0,0.0,0.0,0.0,0.0,0.0,0.0,0.0,0.0,0.0,-3.1898,-3.6721,-3.8814,-4.1735,-4.6452,-4.6287,-4.5516,-4.4581,-4.1625,-3.9145,-3.7456,-3.5811,-3.5701,-3.7419,-4.581,-5.3041,-5.8817,-6.2218,-6.4677,-6.6329,-6.71,-6.7467,-6.7467,-6.6623,-6.431,-6.0676,-5.517,-5.1353,-4.8362,-4.1258,0.0,0.0,0.0,0.0,0.0,0.0,0.0,0.0,0.0,0.0,0.0,0.0,0.0,0.0,0.0,0.0,0.0,0.0,0.0,0.0,0.0,0.0,0.0,0.0,0.0,0.0,0.0,0.0,0.0,0.0,0.0,0.0,0.0,0.0,0.0,0.0,0.0,0.0,-6.223,-6.6549,0.0,0.0,0.0,0.0,-6.8311,-7.2092,-7.5799,-7.9066,-8.2994,-8.6261,-8.8758,-9.1326,-9.2684,-9.2868,-9.3749,-9.4189,-9.4226,-9.5034,-9.5401,-9.5437,-9.5437,-9.5437,-9.5401,-9.4593,-9.3786,-9.2721,-8.8428,-8.5676,-8.3911,-8.0576,-7.8301,-7.6907,-7.7053,-7.753,-7.8191,0.0,0.0,0.0,0.0,0.0,-2.419,-2.419,-2.4897,-2.5705,-2.6502,-3.0491,-3.4564,-3.7918,-4.2947,-4.7205,-4.9994,-5.1389,-5.1132,-4.8783,-4.5076,-4.2727,-4.2176,-3.9077,-4.012,-4.592,-5.2234,-5.7446,-6.1496,-6.431,-6.6182,-6.7283,-6.7577,-6.7687,-6.7687,-6.7393,-6.6329,-6.4457,-5.9795,-5.5537,-5.1463,-4.6195,-4.1058,0.0,0.0,0.0,0.0,0.0,0.0,0.0,0.0,0.0,0.0,0.0,0.0,0.0,0.0,0.0,0.0,0.0,0.0,0.0,0.0,0.0,0.0,0.0,0.0,0.0,0.0,0.0,0.0,0.0,0.0,0.0,0.0,0.0,0.0,0.0,0.0,0.0,-6.7393,-7.1798,0.0,0.0,-7.1688,-7.3891,-7.5763,-7.9176,-8.2553,-8.582,-8.8316,-9.0298,-9.1767,-9.3639,-9.4666,-9.4666,-9.5437,-9.5841,-9.5841,-9.6135,-9.6282,-9.6282,-9.6282,-9.6282,-9.6245,-9.5401,-9.4923,-9.441,-9.1363,-8.9454,-8.8243,-8.604,-8.4535,-8.3508,-8.2957,-8.2627,-8.248,0.0,0.0,0.0,0.0,-2.419,-2.419,-2.419,-2.5107,-2.6403,-2.8007,-3.2669,-3.7169,-4.0744,-4.6397,-5.0692,-5.2637,-5.4252,-5.4069,-5.1389,-4.7388,-4.4856,-4.4305,-4.2249,-4.4819,-5.2637,-5.6748,-6.0529,-6.4053,-6.5962,-6.7173,-6.7687,-6.7687,-6.7687,-6.7687,-6.7687,-6.7393,-6.6696,-6.3723,-5.9979,-5.5684,-5.1295,-4.6819,-4.2323,0.0,0.0,0.0,0.0,0.0,0.0,0.0,0.0,0.0,0.0,0.0,0.0,0.0,0.0,0.0,0.0,0.0,0.0,0.0,0.0,0.0,0.0,0.0,0.0,0.0,0.0,0.0,0.0,0.0,0.0,0.0,0.0,0.0,0.0,0.0,-7.033,-7.0844,-7.6166,-7.8516,-7.5285,-7.7892,-8.0571,-8.248,-8.538,-8.7986,-9.0115,-9.2024,-9.3308,-9.3896,-9.5474,-9.6318,-9.6318,-9.7126,-9.7383,-9.7089,-9.7089,-9.6942,-9.6685,-9.6685,-9.6685,-9.6685,-9.6135,-9.5731,-9.5327,-9.3125,-9.1767,-9.0849,-8.894,-8.7876,-8.7288,-8.6187,-8.5123,-8.4168,0.0,0.0,0.0,-2.419,-2.419,-2.419,-2.419,-2.5585,-2.775,-3.0956,-3.4995,-3.9732,-4.5259,-4.8893,-5.1867,-5.4216,-5.4399,-5.3702,-5.2087,-4.8159,-4.5223,-4.3735,-4.5333,-4.9627,-5.6822,-5.9318,-6.2511,-6.6549,-6.732,-6.7687,-6.7687,-6.7687,-6.7687,-6.7687,-6.7687,-6.7687,-6.7677,-6.688,-6.4677,-6.1337,-5.6528,-5.3115,-5.0215,0.0,0.0,0.0,0.0,0.0,0.0,0.0,0.0,0.0,0.0,0.0,0.0,0.0,0.0,0.0,0.0,0.0,0.0,0.0,0.0,0.0,0.0,0.0,0.0,0.0,0.0,0.0,0.0,0.0,0.0,0.0,0.0,0.0,-6.431,-6.9192,-7.2789,-7.2863,-7.9874,-8.3471,-8.0351,-8.4315,-8.7435,-8.8243,-9.0519,-9.1877,-9.1913,-9.4189,-9.5511,-9.5547,-9.7052,-9.7897,-9.7897,-9.8704,-9.8704,-9.7933,-9.7897,-9.7493,-9.6722,-9.6722,-9.6685,-9.6685,-9.6685,-9.6282,-9.5437,-9.3822,-9.2648,-9.1693,-8.916,-8.8206,-8.8023,-8.6371,-8.4792,-8.3287,0.0,0.0,-2.419,-2.419,-2.419,-2.419,-2.419,-2.5585,-2.7567,-3.0173,-3.6119,-4.1368,-4.4672,-5.0031,-5.3665,-5.4326,-5.4399,-5.3702,-5.2087,-4.8159,-4.6214,-4.6948,-5.1903,-5.6712,-6.108,-6.2989,-6.5081,-6.7357,-6.7577,-6.7687,-6.7687,-6.7687,-6.7687,-6.7687,-6.7687,-6.7687,-6.7687,-6.7467,-6.6512,-6.4787,-6.0493,-5.6602,-5.2968,0.0,0.0,0.0,0.0,0.0,0.0,0.0,0.0,0.0,0.0,0.0,0.0,0.0,0.0,0.0,0.0,0.0,0.0,0.0,0.0,0.0,0.0,0.0,0.0,0.0,0.0,0.0,0.0,0.0,0.0,0.0,0.0,-6.8641,-6.9229,-7.4698,-7.9323,-8.1085,-8.4792,-8.6848,-8.5967,-8.7619,-8.9344,-9.0702,-9.1436,-9.2611,-9.441,-9.5144,-9.5768,-9.6355,-9.7346,-9.7897,-9.7897,-9.8704,-9.8998,-9.8778,-9.819,-9.7787,-9.753,-9.6979,-9.6685,-9.6685,-9.6685,-9.6575,-9.6245,-9.463,-9.3492,-9.2464,-8.9417,-8.8206,-8.8023,-8.6371,-8.4792,-8.3287,0.0,-2.419,-2.419,-2.419,-2.419,-2.419,-2.419,-2.5585,-2.7824,-3.1274,-3.7169,-4.2379,-4.5828,-5.1096,-5.4399,-5.4399,-5.4399,-5.3555,-5.161,-4.8967,-4.8783,-5.172,-5.6124,-6.0199,-6.3771,-6.5154,-6.6439,-6.7687,-6.7687,-6.7687,-6.7687,-6.7687,-6.7687,-6.7687,-6.7687,-6.7687,-6.7687,-6.7687,-6.7247,-6.6256,-6.3539,-6.0639,-5.7483,-5.3592,-5.0912,-4.8893,-4.614,-4.4819,-4.3994,-4.1902,0.0,0.0,0.0,0.0,0.0,0.0,0.0,0.0,0.0,0.0,0.0,0.0,0.0,0.0,0.0,0.0,0.0,0.0,0.0,0.0,0.0,0.0,0.0,0.0,-6.8898,-7.4184,-7.5652,-7.9433,-8.2774,-8.4866,-8.6921,-8.8316,-8.8683,-8.9454,-9.0592,-9.2207,-9.2648,-9.3639,-9.5401,-9.5841,-9.6392,-9.7163,-9.797,-9.8557,-9.8888,-9.9695,-9.9952,-9.9622,-9.9145,-9.8557,-9.786,-9.7419,-9.7016,0.0,-9.6685,-9.6685,-9.6539,-9.4593,-9.3308,0.0,0.0,0.0,0.0,0.0,-8.4976,-8.3801,0.0,-2.419,-2.419,-2.419,-2.419,-2.419,-2.419,-2.5585,-2.8326,-3.3183,-3.805,-4.2893,-4.7645,-5.183,-5.4216,-5.4142,-5.4142,-5.3225,-5.1096,-5.0325,-5.2123,-5.6859,-5.8781,-6.1533,-6.5375,-6.6219,-6.699,-6.7687,-6.7687,-6.7687,-6.7687,-6.7687,-6.7687,-6.7687,-6.7687,-6.7687,-6.7687,-6.7687,-6.7173,-6.6292,-6.5595,-6.431,-6.2303,-5.785,-5.6088,-5.5574,-5.2454,-5.0031,-4.8067,-4.6379,0.0,0.0,0.0,0.0,0.0,0.0,0.0,0.0,0.0,0.0,0.0,0.0,0.0,0.0,0.0,0.0,0.0,0.0,0.0,0.0,0.0,0.0,0.0,0.0,-7.4368,-7.9837,-8.226,-8.3324,-8.4389,-8.5894,-8.7399,-8.8647,-8.9491,-9.0372,-9.1546,-9.3125,-9.3969,-9.4777,-9.5584,0.0,0.0,0.0,0.0,-9.9585,-10.0283,-10.109,-10.109,-10.0393,-10.0319,-9.9512,-9.8007,-9.7933,-9.7456,-9.6685,-9.6612,-9.6575,-9.6392,-9.4153,-9.2611,-9.151,-8.9784,-8.872,-8.7876,-8.6371,-8.527,0.0,0.0,-2.419,-2.419,-2.419,-2.419,-2.419,-2.419,-2.5585,-2.8326,-3.3183,-3.805,-4.2673,-4.6892,-5.0965,-5.3188,-5.2527,-5.2454,-5.227,-5.1793,-5.2234,-5.4363,-5.8561,-6.1557,-6.4127,-6.6219,-6.7063,-6.754,-6.7687,-6.7687,-6.7687,-6.7687,-6.7687,-6.7687,-6.7687,-6.7687,-6.7687,-6.7687,-6.7687,-6.6843,-6.5521,-6.5375,-6.431,-6.256,-6.0309,-5.9061,-5.818,-5.5574,-5.5207,-5.5537,-5.3298,-5.1793,-5.0488,-4.8306,-4.5076,0.0,0.0,0.0,0.0,0.0,0.0,0.0,0.0,0.0,0.0,0.0,0.0,0.0,0.0,0.0,0.0,0.0,0.0,0.0,-7.1835,-7.7561,-8.2333,-8.4756,-8.582,-8.6664,-8.7619,-8.8573,-8.9491,-9.0298,-9.173,-9.3015,-9.3969,-9.4813,-9.5621,-9.6428,-9.7236,0.0,-9.7897,-9.9292,-10.0099,-10.0283,-10.109,-10.1384,-10.1274,0.0,0.0,-9.8851,-9.819,-9.7456,-9.6649,-9.6025,-9.5731,-9.5658,-9.452,-9.2794,-9.0629,-8.8353,-8.7362,-8.7142,-8.6151,-8.527,-8.4499,-2.419,-2.419,-2.419,-2.419,-2.419,-2.419,-2.419,-2.5585,-2.8044,-3.2082,-3.6523,-4.0671,-4.4305,-4.7223,-4.8841,-4.8587,-4.8938,-5.0153,-5.2454,-5.4106,-5.7005,-6.1447,-6.4016,-6.5852,-6.7063,-6.7467,-6.7687,-6.7687,-6.7687,-6.7687,-6.7687,-6.7687,-6.7687,-6.7687,-6.7687,-6.7687,-6.7687,-6.7687,-6.6769,-6.5301,-6.5301,-6.431,-6.2707,-6.1924,-6.1117,-6.0199,-5.8584,-5.7997,-5.774,-5.6124,-5.4803,-5.3592,-5.2344,-4.9444,-4.6012,0.0,0.0,0.0,0.0,0.0,0.0,0.0,0.0,0.0,0.0,0.0,0.0,0.0,0.0,-5.9245,0.0,0.0,-7.2165,-7.6644,-8.0755,-8.3948,-8.5563,-8.6481,-8.7142,-8.7545,-8.8683,-8.9564,-8.9968,-9.1877,-9.3418,-9.4226,-9.507,-9.5878,-9.6649,-9.7456,-9.808,-9.8484,-9.9659,-10.0503,-10.0907,-10.1274,-10.1494,-10.1494,-10.109,-10.0283,-9.9108,-9.8668,-9.764,-9.6098,-9.5694,-9.529,-9.4777,-9.3125,-9.1473,-8.9821,-8.7802,-8.6995,-8.6958,-8.6554,-8.5637,-8.4535,-2.419,-2.419,-2.419,-2.419,-2.419,-2.419,-2.419,-2.5585,-2.7714,-3.0772,-3.4738,-3.8374,-4.1295,-4.3167,-4.4336,-4.4531,-4.5762,-4.8419,-5.2915,-5.5735,-5.9391,-6.4127,-6.5852,-6.7026,-6.7687,-6.7687,-6.7687,-6.7687,-6.7687,-6.7687,-6.7687,-6.7687,-6.7687,-6.7687,-6.7687,-6.7687,-6.7687,-6.7687,-6.6769,-6.5301,-6.5301,-6.431,-6.278,-6.278,-6.2291,-6.1484,-6.0676,-5.9281,-5.7666,-5.7042,-5.5831,-5.462,-5.462,-5.2858,-5.0271,-4.7609,-4.6067,0.0,0.0,0.0,0.0,0.0,0.0,0.0,0.0,0.0,-5.7373,-6.0419,-6.2732,-6.5668,-7.0587,-7.3487,-7.6497,-8.0791,-8.3361,-8.5123,-8.593,-8.6591,-8.6995,-8.6995,-8.8426,-8.9455,-8.9638,-9.1877,-9.3602,-9.4226,-9.518,-9.6025,-9.6685,-9.7603,-9.8411,-9.9071,-9.9989,-10.0796,-10.1494,-10.1494,-10.1494,-10.1494,-10.1494,-10.0686,-9.9108,-9.9108,-9.7897,-9.5731,-9.5401,-9.4703,-9.3639,-9.1326,-9.0005,-8.9235,-8.7655,-8.6995,-8.6995,-8.6995,-8.6004,-8.4609,0.0,-2.419,-2.419,-2.419,-2.419,-2.419,-2.419,-2.5585,-2.7493,-3.0026,-3.388,-3.711,-3.8909,-4.1185,-4.2597,-4.2593,-4.5534,-4.9048,-5.2952,-5.6799,-6.0799,-6.5007,-6.6696,-6.7614,-6.7687,-6.7687,-6.7687,-6.7687,-6.7687,-6.7687,-6.7687,-6.7687,-6.7687,-6.7687,-6.7687,-6.7687,-6.7687,-6.7687,-6.6769,-6.5301,-6.5301,-6.431,-6.278,-6.278,-6.2291,-6.1484,-6.0676,-5.8914,-5.6932,-5.6822,-5.6198,-5.5464,-5.5464,-5.5229,-5.4289,-5.1169,-4.8617,-4.6562,-4.5406,-4.6544,-4.9077,-5.3408,-5.4252,-5.6418,0.0,0.0,-6.5595,-7.0844,-7.2716,-7.4037,-7.6099,-7.8516,-8.0828,-8.281,-8.4572,-8.593,-8.6775,-8.6958,-8.6995,-8.6995,-8.8426,-8.9711,-9.0408,-9.2721,-9.4189,-9.4299,-9.5694,-9.6612,-9.6685,-9.8154,-9.9035,-9.9108,-10.0576,-10.1384,-10.1494,-10.1494,-10.1494,-10.1494,-10.1494,-10.0686,-9.9108,-9.9108,-9.819,-9.6502,-9.5034,-9.3529,-9.195,-9.0262,-8.9455,-8.9235,-8.7655,-8.6995,-8.6995,-8.6995,-8.6004,-8.4609,0.0,-2.4294,-2.4237,-2.4348,-2.4294,-2.4373,-2.4824,-2.5878,-2.7299,-2.9244,-3.1825,-3.388,-3.5018,-3.6761,-3.7971,-3.8256,-4.2352,-4.6901,-5.1483,-5.6432,-6.1019,-6.5118,-6.6843,-6.7687,-6.7687,-6.7687,-6.7687,-6.7687,-6.7687,-6.7687,-6.7687,-6.7687,-6.7687,-6.7687,-6.7687,-6.7687,-6.7687,-6.7687,-6.6769,-6.5301,-6.5301,-6.431,-6.2743,-6.2291,-6.1006,-5.9465,-5.9134,-5.774,0.0,-5.5023,-5.4473,-5.4289,-5.473,-5.4252,-5.3151,-5.1316,-5.0398,-5.0508,-5.2968,-5.3812,-5.5023,0.0,-6.2034,-6.4567,-6.8495,-6.9816,-7.1101,-7.4404,-7.613,-7.7561,-7.9176,-8.1085,-8.2774,0.0,-8.5453,-8.6628,-8.6958,-8.6591,-8.6114,-8.5673,-8.6628,-8.7986,-8.9748,-9.1693,-9.3235,-9.4226,-9.5364,-9.6208,-9.6685,-9.8227,-9.9108,-9.9108,-10.0686,-10.1494,-10.1494,-10.1494,-10.1494,-10.1494,-10.1494,-10.0907,-9.9805,-9.9805,-9.8411,-9.5878,-9.3749,-9.217,-9.1033,-8.9895,-8.9124,-8.861,-8.7472,-8.6995,-8.6995,-8.6995,-8.6004,-8.4609,0.0,-2.433,-2.433,-2.4833,-2.4733,-2.481,-2.5321,-2.6282,-2.7346,-2.851,-3.0063,-3.1385,-3.2281,-3.3827,-3.4919,-3.5177,-3.9927,-4.4976,-4.9895,-5.5506,-6.0575,-6.4787,-6.6512,-6.7467,-6.7687,-6.7687,-6.7687,-6.7687,-6.7687,-6.7687,-6.7687,-6.7687,-6.7687,-6.7687,-6.7687,-6.7687,-6.7687,-6.7687,-6.688,-6.5632,-6.5411,-6.431,-6.2633,-6.141,-5.9499,-5.7479,-5.7479,-5.5941,-5.3686,-5.2193,-5.1748,-5.1903,-5.227,-5.205,-5.1646,-5.1499,-5.2197,-5.3702,-5.7005,-5.8584,0.0,-6.3833,-6.7944,-7.1064,-7.0917,-7.3046,-7.5432,-7.6827,-7.8075,-7.9286,-8.0461,-8.2003,-8.3324,-8.4132,-8.5637,-8.6738,-8.6995,-8.6114,-8.5343,-8.4976,-8.5049,-8.6004,-8.8206,-9.0262,-9.206,-9.3492,-9.4777,-9.5878,-9.6649,-9.8227,-9.9108,-9.9108,-10.0686,-10.1494,-10.1494,-10.1494,-10.1494,-10.1494,-10.1494,-10.098,-9.9952,-9.9292,-9.7456,-9.474,-9.2941,-9.1693,-9.0849,-8.9821,-8.9087,-8.8426,-8.7399,-8.6995,-8.6995,-8.6995,-8.6004,-8.4609,0.0,0.0,-2.458,-2.5747,-2.5772,-2.5587,-2.5424,-2.6733,-2.7798,-2.7835,-2.9255,-3.0634,-3.1693,-3.3781,-3.4981,-3.4761,-3.9429,-4.4234,-4.8467,-5.4182,-5.9368,-6.3932,-6.5668,-6.688,-6.7677,-6.7687,-6.7687,-6.7687,-6.7687,-6.7687,-6.7687,-6.7687,-6.7687,-6.7687,-6.7687,-6.7687,-6.7687,-6.7687,-6.721,-6.6402,-6.5632,-6.431,-6.2523,-6.0175,-5.7973,-5.6169,-5.6169,-5.341,-4.9595,-4.8301,-4.8123,-4.8343,-4.7553,-4.8947,0.0,-5.2674,-5.4252,-5.5354,-5.473,0.0,-6.3282,-6.5815,-7.0036,-7.4001,-7.5542,-7.7194,-7.8699,-7.9507,-7.9727,-7.9764,-7.98,-8.1158,-8.248,-8.3324,-8.4792,-8.6114,-8.6885,-8.5637,-8.4903,-8.5673,-8.4425,-8.4132,0.0,-8.8793,-9.0996,-9.1803,-9.4153,-9.5878,-9.6649,-9.8227,-9.9108,-9.9108,-10.0686,-10.1494,-10.1494,-10.1494,-10.1494,-10.1494,-10.1494,-10.0686,-9.9071,-9.6722,-9.474,-9.3161,-9.3088,-9.2574,-9.1657,-9.0078,-8.9417,-8.9198,-8.7619,-8.6995,-8.6995,-8.6995,-8.6004,-8.4609,0.0,0.0,0.0,-2.643,-2.6999,-2.727,-2.7212,-2.7638,-2.8344,-2.9278,-3.0482,0.0,0.0,0.0,0.0,0.0,-3.8507,-4.2479,-4.6368,-5.2078,-5.6854,-6.0256,-6.3558,-6.5558,-6.6109,-6.6623,-6.7173,-6.7687,-6.7687,-6.7687,-6.7687,-6.7687,-6.7687,-6.7687,-6.7687,-6.7687,-6.7687,-6.7687,-6.6916,-6.5632,-6.4824,-6.3503,-6.1826,-6.027,-5.7147,-5.3572,0.0,-5.0679,-4.7666,-4.6697,-4.6333,-4.6399,-4.7231,-4.7517,-4.8086,-5.0802,-5.3115,-5.5684,-5.9722,0.0,-6.7687,-7.1211,-7.4515,-7.7084,-7.7635,-7.8589,-7.914,-7.8332,-7.7708,-7.7194,-7.6644,-7.7855,-7.9396,-8.0791,-8.3251,-8.5453,-8.6811,-8.6554,-8.571,-8.4389,-8.4205,0.0,0.0,0.0,0.0,-9.162,-9.2611,-9.4116,-9.6575,-9.8227,-9.9108,-9.9108,-10.0686,-10.1494,-10.1494,-10.1494,-10.1494,-10.1494,-10.098,-9.9842,-9.8227,-9.6355,-9.4923,-9.3822,-9.2721,-9.1767,-9.0922,-8.9858,-8.9087,-8.85,-8.7435,-8.6995,-8.6995,-8.6995,-8.6004,-8.4609,0.0,0.0,0.0,0.0,0.0,0.0,0.0,0.0,0.0,0.0,0.0,0.0,0.0,0.0,0.0,0.0,0.0,-4.0774,-4.4222,-4.9094,-5.3231,-5.6405,-5.9651,-6.1629,-6.2179,-6.2865,-6.3898,-6.5262,-6.5441,-6.5962,-6.6843,-6.6843,-6.6843,-6.6843,-6.6843,-6.6843,-6.6806,-6.6512,-6.5815,-6.4714,-6.2831,-6.1282,-5.9803,-5.7444,-5.407,0.0,-4.9034,-4.6973,-4.4764,-4.3882,-4.4112,-4.4872,-4.5576,-4.7038,-4.904,-5.172,-5.462,-5.8327,-6.4567,-6.8164,-7.1174,-7.5212,-7.7635,-7.9029,-7.9029,-7.9213,-7.8883,-7.7231,-7.5763,-7.4478,-7.3413,-7.4037,-7.5652,-7.8442,-8.1122,-8.3838,-8.6628,-8.6261,-8.5233,-8.3985,-8.3765,0.0,0.0,0.0,0.0,-8.9895,-9.1473,-9.3308,-9.5694,-9.7933,-9.9108,-9.9108,-10.0686,-10.1494,-10.1494,-10.1494,-10.1384,-10.109,-9.9952,-9.8594,-9.6979,-9.5401,-9.4189,-9.3345,-9.2281,-9.151,-9.0959,-8.9858,-8.9124,-8.8536,-8.7435,-8.6995,-8.6995,-8.6995,-8.6004,-8.4609,0.0,0.0,0.0,0.0,0.0,0.0,0.0,0.0,0.0,0.0,0.0,0.0,0.0,0.0,0.0,0.0,0.0,0.0,-4.2053,-4.5387,-4.8867,-5.2543,-5.433,-5.5628,-5.6456,-5.6946,-5.8343,-6.0639,-6.1121,-6.25,-6.4824,-6.4824,-6.4824,-6.4824,-6.4824,-6.4824,-6.4751,-6.4005,-6.3663,-6.3321,-5.973,-5.7806,-5.6603,-5.2348,-4.9301,-4.702,-4.4706,-4.2768,-4.1167,-4.0306,-4.1991,0.0,0.0,0.0,-5.3739,-5.539,-5.8767,-6.3172,-6.8752,-7.1541,-7.3817,-7.7745,-7.9286,-7.9837,-7.9764,-7.9066,-7.7965,-7.6093,-7.378,-7.1541,0.0,0.0,-7.1468,-7.6209,-7.8626,-8.1599,-8.6407,-8.5159,-8.3985,0.0,0.0,0.0,0.0,0.0,0.0,-8.6885,0.0,-9.3382,-9.4299,-9.7346,-9.9071,-9.9108,-10.0613,-10.1494,-10.1494,-10.1494,-10.098,-10.0209,-9.8594,-9.6979,-9.5327,-9.3822,-9.2611,-9.1803,-9.1803,-9.1803,-9.1693,-9.0078,-8.9382,-8.9235,-8.7655,-8.6995,-8.6995,-8.6995,-8.6004,-8.4646,0.0,0.0,0.0,0.0,0.0,0.0,0.0,0.0,0.0,0.0,0.0,0.0,0.0,0.0,0.0,0.0,0.0,0.0,-3.9972,-4.3224,-4.6216,-4.8731,-5.1599,-5.3687,-5.4801,-5.5505,-5.6351,-5.732,-5.7439,-5.7706,-5.807,-5.807,-5.807,-5.807,-5.807,-5.807,-5.8056,-5.8134,-5.7804,-5.7142,-5.5809,-5.4795,-5.3945,-5.2536,-4.9733,-4.6461,-4.6184,-4.402,-4.1642,0.0,0.0,0.0,0.0,-5.291,-5.6455,0.0,0.0,-6.7871,-7.1725,-7.5285,-7.8332,-7.9984,-8.0534,-8.0388,-7.9176,-7.7781,-7.5616,-7.1578,-6.8348,-6.5375,0.0,0.0,0.0,-7.221,-7.7745,0.0,-8.7288,-8.7876,0.0,-8.7325,0.0,-8.6261,-8.527,-8.538,0.0,0.0,-8.9638,-9.2391,-9.507,-9.7126,-9.8484,-9.9071,-10.0099,-10.0907,-10.1494,-10.0907,-9.9879,-9.8484,-9.7493,-9.5841,-9.3712,-9.3308,-9.2611,-9.1803,-9.1803,-9.1803,-9.1693,-9.0078,-8.9382,-8.9235,-8.7655,-8.6995,-8.6995,-8.6995,-8.6371,-8.5416,0.0,0.0,0.0,0.0,0.0,0.0,0.0,0.0,0.0,0.0,0.0,0.0,0.0,0.0,0.0,0.0,0.0,0.0,0.0,-4.1401,-4.3316,-4.4878,-4.7133,-4.8624,-4.9301,-5.0312,-5.148,-5.2819,-5.3236,-5.3901,-5.4769,-5.4617,-5.4546,-5.4546,-5.4546,-5.4546,-5.4531,-5.4546,-5.424,0.0,0.0,-5.1525,-5.0993,-4.9883,-4.7767,-4.5406,-4.5677,-4.5795,0.0,0.0,0.0,-5.4146,-5.5824,-5.829,-6.1227,-6.4824,0.0,-7.1798,-7.5395,-7.8295,-8.0498,-8.1342,-8.0718,-7.925,-7.6533,-7.4111,-7.0954,-6.5742,-6.2365,0.0,0.0,0.0,0.0,0.0,0.0,0.0,-8.6921,-8.8059,-8.8316,0.0,-8.85,0.0,-8.6958,-8.7472,-8.8096,0.0,-8.9821,-9.1583,-9.3749,-9.6098,-9.7566,-9.8043,-9.9181,-9.9989,-10.0393,-9.9659,-9.8631,-9.7346,-9.6208,-9.474,-9.3088,-9.2721,-9.2244,-9.1803,0.0,-9.1803,-9.1693,-9.0078,-8.9382,-8.9235,-8.7655,-8.6995,-8.6995,-8.6995,-8.6481,-8.5673,0.0,0.0,0.0,0.0,0.0,0.0,0.0,0.0,0.0,0.0,0.0,0.0,0.0,0.0,0.0,0.0,0.0,0.0,0.0,0.0,-4.0777,-4.1769,-4.2624,-4.3162,-4.3278,-4.4459,-4.6073,-4.8149,-4.9017,-5.046,-5.2401,-5.2129,-5.1944,-5.1903,-5.1903,-5.1924,-5.1969,-5.1603,-5.1486,-5.1347,-4.9159,-4.8284,-4.809,0.0,-4.5056,-4.4278,-4.4243,0.0,0.0,0.0,-5.4883,-5.7409,-6.0566,-6.3723,-6.7026,-7.0844,-7.3083,-7.5175,-7.8919,-8.0534,-8.1305,-8.1893,-8.0131,-7.7194,-7.312,-6.9522,-6.5448,-5.9758,0.0,-5.4656,-5.3775,-5.5904,-6.0199,-6.743,0.0,-7.8662,-8.5967,-8.7105,-8.7509,-8.8426,-8.9234,-8.9454,-8.8757,-8.9858,-9.0629,-9.0739,-9.0665,-9.0996,-9.1913,-9.4777,-9.6428,-9.6539,-9.8007,-9.8851,-9.8961,-9.8043,-9.7236,-9.6539,-9.4923,-9.3712,-9.2905,-9.2134,-9.1803,-9.1803,0.0,0.0,-9.1693,-9.0078,-8.9382,-8.9235,-8.7655,-8.6995,-8.6995,-8.6995,-8.6554,-8.582,0.0,0.0,0.0,0.0,0.0,0.0,0.0,0.0,0.0,0.0,-3.7815,-3.7584,0.0,0.0,0.0,0.0,0.0,0.0,0.0,0.0,0.0,-4.1731,-4.2624,-4.3393,-4.4085,-4.5003,-4.5563,0.0,0.0,-4.5857,-4.568,-4.56,-4.546,-4.5186,-4.5186,-4.5324,-4.56,-4.5865,-4.611,-4.6352,-4.6184,-4.6128,-4.609,-4.5722,0.0,0.0,0.0,0.0,0.0,0.0,-5.8091,-6.4053,-6.6623,-6.9192,-7.1798,-7.4478,-7.646,-7.8185,-8.0241,-8.1379,-8.1856,-8.1342,-7.8846,-7.5469,-7.1431,-6.6953,0.0,0.0,-5.3298,-5.1169,-4.9627,-5.3555,-5.9171,-6.5852,0.0,0.0,0.0,0.0,-8.8536,0.0,0.0,0.0,0.0,0.0,0.0,0.0,0.0,0.0,-9.2794,-9.4042,-9.5034,-9.5694,-9.6612,-9.7456,-9.808,-9.6649,-9.5878,-9.5694,-9.4079,-9.2868,-9.2024,-9.1877,-9.1803,-9.1803,0.0,0.0,-9.1693,-9.0078,-8.9382,-8.9235,-8.7655,-8.6995,-8.6995,-8.6995,-8.6921,-8.6591,0.0,0.0,0.0,0.0,0.0,0.0,0.0,-3.7046,-3.9431,-4.1623,-4.2316,-4.1777,-3.9546,-3.8931,-3.8661,0.0,0.0,0.0,0.0,0.0,0.0,0.0,-4.2893,-4.3278,-4.3662,0.0,0.0,0.0,0.0,0.0,0.0,0.0,0.0,0.0,0.0,0.0,0.0,-4.4414,-4.48,0.0,0.0,0.0,0.0,0.0,0.0,0.0,0.0,0.0,0.0,0.0,-5.7602,-6.4567,-6.7871,-7.0844,-7.367,-7.657,-7.7965,-7.9029,-8.1085,-8.1893,-8.2003,-8.1195,-7.8222,-7.3854,-6.7724,0.0,0.0,0.0,-4.8453,-4.7388,-4.6562,0.0,0.0,0.0,0.0,0.0,0.0,0.0,0.0,0.0,0.0,0.0,0.0,0.0,0.0,0.0,0.0,0.0,-9.2391,-9.3235,-9.4042,-9.485,-9.5254,-9.5621,-9.6025,-9.485,-9.4263,-9.4263,-9.3015,-9.2207,-9.1803,-9.1803,-9.1803,-9.1803,-9.1803,0.0,-9.1693,-9.0078,-8.9382,-8.9235,-8.7655,-8.6995,-8.6995,-8.6995,-8.6995,-8.6848,0.0,0.0,0.0,0.0,0.0,0.0,0.0,-3.9315,-4.2093,-4.5009,-4.6586,-4.6086,-4.2516,-4.1093,-4.0246,0.0,0.0,0.0,0.0,0.0,0.0,0.0,0.0,0.0,0.0,0.0,0.0,0.0,0.0,0.0,0.0,0.0,0.0,0.0,0.0,0.0,0.0,0.0,0.0,0.0,0.0,0.0,0.0,0.0,0.0,0.0,0.0,0.0,0.0,0.0,-5.5172,-6.119,-6.5081,-6.9339,-7.3523,-7.6644,-7.7781,-7.8626,-8.1232,-8.2076,-8.1966,-8.0975,-7.7561,-7.2312,-6.4347,-5.9171,0.0,0.0,-4.4562,-4.4488,-4.4654,0.0,0.0,0.0,0.0,0.0,0.0,0.0,0.0,0.0,0.0,0.0,0.0,0.0,0.0,0.0,0.0,0.0,0.0,-9.2464,-9.3125,-9.3749,-9.3749,-9.3859,-9.4042,-9.3235,-9.2941,-9.3088,-9.2207,-9.1803,-9.1803,-9.1803,-9.1803,-9.1803,0.0,0.0,0.0,-9.0078,-8.9382,-8.9235,-8.7655,-8.6995,-8.6995,-8.6995,-8.6995,-8.6885,0.0,0.0,0.0,0.0,0.0,0.0,0.0,-4.0739,-4.4316,-4.8394,-4.9086,-4.8702,-4.7548,-4.5278,-4.3239,0.0,0.0,0.0,0.0,0.0,0.0,0.0,0.0,0.0,0.0,0.0,0.0,0.0,0.0,0.0,0.0,0.0,0.0,0.0,0.0,0.0,0.0,0.0,0.0,0.0,0.0,0.0,0.0,0.0,0.0,0.0,0.0,0.0,0.0,0.0,0.0,-5.3555,-5.6859,-6.3686,-7.0917,-7.3413,0.0,0.0,-8.0241,-8.1636,-8.1819,-8.0277,-7.6276,-7.0807,-6.3392,0.0,0.0,-4.5902,-4.4121,-4.3828,-4.4562,-4.6195,0.0,0.0,0.0,-6.5338,0.0,0.0,0.0,0.0,0.0,0.0,0.0,0.0,0.0,0.0,0.0,0.0,0.0,-9.1877,-9.195,-9.2024,-9.2024,-9.2391,-9.3198,-9.2354,-9.2317,-9.3088,-9.2207,-9.1803,-9.1803,-9.1803,-9.1803,-9.1803,0.0,0.0,0.0,-9.0078,-8.9382,-8.9235,-8.7655,-8.6995,-8.6995,-8.6995,-8.6995,-8.6775,0.0,0.0,0.0,0.0,0.0,0.0,-3.89,-4.0669,-4.3431,-4.8702,-4.9856,-5.0048,-4.9702,-4.8279,-4.6086,-4.2854,0.0,0.0,0.0,0.0,0.0,0.0,0.0,0.0,0.0,0.0,0.0,0.0,0.0,0.0,0.0,0.0,0.0,0.0,0.0,0.0,0.0,0.0,0.0,0.0,0.0,0.0,0.0,0.0,0.0,0.0,0.0,0.0,0.0,0.0,0.0,0.0,-5.0956,-5.5586,0.0,0.0,-7.2275,-7.4845,-7.9103,-8.1195,-8.1912,-8.0644,-7.6375,-7.0579,-6.3146,0.0,-5.1463,-4.5259,-4.3718,-4.3625,-4.3901,-4.4892,-4.7168,-5.172,-5.3959,-5.8327,-6.7577,0.0,0.0,0.0,0.0,0.0,0.0,0.0,0.0,0.0,0.0,0.0,0.0,-9.1803,-9.1803,-9.1803,-9.1803,-9.195,-9.2317,-9.195,-9.195,-9.2317,-9.195,-9.1803,-9.1803,-9.1803,-9.1803,-9.1803,0.0,0.0,0.0,-9.0078,-8.9382,-8.9235,-8.7655,-8.6995,-8.6995,-8.6995,-8.6995,-8.6921,0.0,0.0,0.0,0.0,0.0,-3.5552,-3.9554,-4.0785,-4.3124,-4.8355,-4.9779,-5.0404,-5.0673,-4.9471,-4.7548,-4.4816,-4.3662,0.0,0.0,0.0,0.0,0.0,0.0,0.0,0.0,0.0,0.0,0.0,0.0,0.0,0.0,0.0,0.0,0.0,0.0,0.0,0.0,0.0,0.0,0.0,0.0,0.0,0.0,0.0,0.0,0.0,0.0,0.0,0.0,0.0,0.0,0.0,0.0,0.0,0.0,0.0,-6.8583,-7.1883,-7.7361,-8.0073,-8.1138,-8.0142,-7.5936,-7.0043,0.0,-5.6607,-5.1059,-4.4782,-4.3515,-4.3515,-4.3515,-4.4158,-4.5626,-4.8416,-5.0362,-5.4363,-6.2548,0.0,0.0,0.0,0.0,0.0,0.0,0.0,0.0,0.0,0.0,0.0,0.0,-9.1803,-9.1803,-9.1803,-9.1803,-9.1803,-9.1803,-9.1803,-9.1803,-9.1803,-9.1803,-9.1803,-9.1803,-9.1803,-9.1803,0.0,0.0,0.0,0.0,-9.0078,-8.9382,-8.9235,-8.7655,-8.6995,-8.6995,-8.6995,-8.6995,-8.6995,0.0,0.0,0.0,0.0,0.0,0.0,-3.8784,-4.1431,-4.4278,-4.7663,-4.8856,-4.974,-5.0596,-4.8432,-4.7231,-4.7971,-4.5009,0.0,0.0,0.0,0.0,0.0,0.0,0.0,0.0,0.0,-4.7278,-4.8086,-4.8933,-4.9356,0.0,0.0,0.0,0.0,0.0,0.0,0.0,0.0,0.0,0.0,0.0,0.0,0.0,0.0,0.0,0.0,0.0,0.0,0.0,0.0,0.0,0.0,0.0,0.0,0.0,0.0,-6.377,-6.8041,-7.4789,-7.8079,-7.9263,-7.821,-7.4465,-6.8866,0.0,-5.5306,-5.0398,-4.469,-4.3515,-4.3515,-4.3515,-4.4158,-4.5241,-4.6856,-5.0525,-5.5405,-6.19,0.0,0.0,0.0,0.0,0.0,0.0,0.0,0.0,0.0,0.0,0.0,0.0,0.0,-9.1803,-9.1803,-9.1803,-9.1803,-9.1803,-9.1803,-9.1803,-9.1803,-9.1803,-9.1803,-9.1803,-9.1803,0.0,0.0,0.0,0.0,0.0,-9.0078,-8.9382,-8.9235,-8.7655,-8.6995,-8.6995,-8.6995,-8.6995,-8.6885,0.0,0.0,0.0,0.0,0.0,0.0,0.0,-3.9469,-4.1239,-4.5778,-4.6633,-4.7557,-4.9586,-4.8548,-4.7817,-4.8086,-4.6086,0.0,0.0,0.0,0.0,0.0,0.0,0.0,0.0,-4.6432,-4.7894,-4.9894,-5.0702,-5.1433,-5.1962,-5.0761,0.0,0.0,0.0,0.0,0.0,0.0,0.0,0.0,0.0,0.0,0.0,0.0,0.0,0.0,0.0,0.0,0.0,0.0,0.0,0.0,0.0,0.0,0.0,-5.1639,-5.699,0.0,-6.5445,-6.8837,-7.0935,-6.8803,-6.6416,-6.2979,-5.6948,-5.329,-4.9701,-4.458,-4.3515,-4.3515,-4.3515,-4.3718,-4.5516,-5.0452,-5.236,0.0,0.0,0.0,0.0,0.0,0.0,0.0,0.0,0.0,0.0,0.0,0.0,0.0,0.0,0.0,-9.1803,-9.1803,-9.1803,-9.1803,-9.1803,-9.1803,-9.1803,-9.1803,-9.1803,-9.1803,-9.1803,-9.1803,0.0,0.0,0.0,0.0,0.0,-8.9858,-8.9087,-8.8463,-8.7435,-8.6995,-8.6995,-8.6995,-8.6995,-8.6885,0.0,0.0,0.0,0.0,0.0,0.0,0.0,-3.843,-3.9738,-4.3209,-4.4517,-4.597,-4.8202,-4.7663,-4.7394,-4.8048,-4.6586,0.0,0.0,0.0,0.0,0.0,0.0,0.0,-4.6086,-4.6932,-4.8779,-5.1625,-5.2472,-5.3472,-5.4615,-5.3632,-5.1813,-4.9426,0.0,0.0,0.0,0.0,0.0,0.0,0.0,0.0,0.0,0.0,0.0,0.0,0.0,0.0,0.0,0.0,0.0,0.0,0.0,0.0,0.0,0.0,-5.1065,-5.5536,0.0,-6.3303,-6.5356,-6.3638,-6.1645,-5.8884,-5.4202,-5.1232,-4.8269,-4.4305,-4.3515,-4.3515,-4.3515,-4.3754,-4.5369,-4.9738,-5.2013,0.0,0.0,0.0,0.0,0.0,0.0,0.0,0.0,0.0,0.0,0.0,0.0,0.0,0.0,0.0,-9.1803,-9.1803,-9.1803,-9.1803,-9.1803,-9.1803,-9.1803,-9.1803,-9.1803,-9.1803,-9.1803,0.0,0.0,0.0,0.0,0.0,0.0,-8.9417,-8.8647,-8.8133,-8.7325,-8.6995,-8.6995,-8.6995,-8.6995,-8.6885,0.0,0.0,0.0,0.0,0.0,0.0,0.0,-3.8123,-3.9515,-4.04,-4.2662,-4.4855,-4.6547,-4.6047,-4.6249,-4.7778,0.0,0.0,0.0,0.0,0.0,0.0,0.0,0.0,-4.6885,-4.774,-4.9856,-5.328,-5.4203,-5.5588,-5.7269,-5.7115,-5.5125,-5.1636,-5.1787,-5.0319,0.0,0.0,0.0,0.0,0.0,0.0,0.0,0.0,0.0,0.0,0.0,0.0,0.0,0.0,0.0,0.0,0.0,0.0,0.0,0.0,0.0,0.0,0.0,-6.0059,0.0,-6.1065,-5.8929,-5.5902,-5.2013,-4.899,0.0,-4.3975,-4.3515,-4.3551,-4.3718,-4.4305,-4.5223,-4.6544,-5.0618,0.0,0.0,0.0,0.0,0.0,0.0,0.0,0.0,0.0,0.0,0.0,0.0,0.0,0.0,0.0,0.0,-9.1803,-9.1803,-9.1803,-9.1803,-9.1803,-9.1803,-9.1803,-9.1803,-9.1803,-9.1803,0.0,0.0,0.0,0.0,0.0,0.0,-8.883,-8.8169,-8.8059,-8.7288,-8.6995,-8.6995,-8.6995,-8.6995,-8.6885,0.0,0.0,0.0,0.0,0.0,0.0,0.0,0.0,0.0,0.0,-4.2162,-4.3778,-4.4816,-4.5316,-4.5748,0.0,0.0,0.0,0.0,0.0,0.0,0.0,0.0,0.0,-4.6885,-4.8355,-5.0779,-5.4203,-5.5665,-5.7588,-5.9858,-5.8259,-5.6227,-5.3783,-5.2209,-5.0588,0.0,0.0,0.0,0.0,0.0,0.0,0.0,0.0,0.0,0.0,0.0,0.0,0.0,0.0,0.0,0.0,0.0,0.0,0.0,0.0,-4.4608,-4.5698,-4.7677,0.0,-5.1191,-4.9286,-4.9214,-4.9012,0.0,-4.6249,-4.5663,-4.3882,-4.3515,-4.4048,-4.5902,-4.592,-4.7719,-5.4106,0.0,0.0,0.0,0.0,0.0,0.0,0.0,0.0,0.0,0.0,0.0,0.0,0.0,0.0,0.0,0.0,0.0,-9.1803,-9.1803,-9.1803,-9.1803,-9.1803,-9.1803,-9.1803,-9.1803,-9.1803,-9.1803,0.0,0.0,0.0,0.0,0.0,-8.872,-8.8353,-8.7839,-8.7252,-8.7068,-8.6995,-8.6995,-8.6995,-8.6995,-8.6811,0.0,0.0,0.0,0.0,0.0,0.0,0.0,0.0,0.0,0.0,0.0,-4.3393,-4.4201,-4.5094,0.0,0.0,0.0,0.0,0.0,0.0,0.0,0.0,0.0,-4.6163,-4.7432,-4.874,-5.1241,-5.5049,-5.6357,-5.828,-6.0781,-5.9638,-5.7902,-5.5592,-5.2865,-5.1031,0.0,0.0,0.0,0.0,0.0,0.0,0.0,0.0,0.0,0.0,0.0,-4.5283,0.0,-4.6282,-4.6242,-4.5934,0.0,0.0,0.0,0.0,-4.3925,-4.4158,-4.4158,-4.6471,-4.8563,-4.7278,-4.7315,-4.7406,-4.6544,-4.5553,-4.4525,-4.3698,-4.3515,-4.4121,-4.6177,-4.6801,0.0,0.0,0.0,0.0,0.0,0.0,0.0,0.0,0.0,0.0,0.0,0.0,0.0,0.0,0.0,0.0,0.0,0.0,0.0,0.0,-9.162,-9.1803,-9.1803,-9.1803,-9.1803,-9.1803,-9.1436,-9.1253,-9.1253,0.0,0.0,0.0,0.0,0.0,-8.8169,-8.7802,-8.7399,-8.6995,-8.6995,-8.6995,-8.6995,-8.6995,-8.6775,-8.6261,0.0,0.0,0.0,0.0,0.0,0.0,0.0,0.0,0.0,0.0,0.0,0.0,0.0,0.0,0.0,0.0,0.0,0.0,0.0,0.0,0.0,0.0,-4.5594,-4.6509,-4.8432,-4.9086,-5.151,-5.5895,-5.678,-5.8511,-6.1012,-6.1012,-5.9511,-5.6676,-5.343,-5.1508,-5.0712,0.0,0.0,0.0,0.0,0.0,0.0,0.0,0.0,0.0,0.0,0.0,0.0,-4.7146,-4.7026,-4.6428,-4.7034,0.0,0.0,0.0,0.0,0.0,-4.3938,-4.7004,-4.9874,-4.9079,-4.8563,-4.8233,-4.8012,-4.581,-4.3882,-4.3882,-4.3938,0.0,0.0,-4.8233,0.0,0.0,0.0,0.0,0.0,0.0,0.0,0.0,0.0,0.0,0.0,0.0,0.0,0.0,0.0,0.0,0.0,0.0,0.0,0.0,-9.1069,-9.1436,-9.1436,-9.1546,-9.1546,-9.1436,-9.0739,-9.0445,-9.0408,-8.9711,0.0,0.0,0.0,0.0,-8.7949,-8.7288,-8.6995,-8.6995,-8.6995,-8.6995,-8.6995,-8.6885,-8.6371,-8.5673,0.0,0.0,0.0,0.0,0.0,0.0,0.0,0.0,0.0,0.0,0.0,0.0,0.0,0.0,0.0,0.0,0.0,0.0,0.0,0.0,0.0,-4.5594,-4.5594,-4.7095,-5.025,-4.9702,-5.1818,-5.6791,-5.7665,-5.9396,-6.1908,-6.1908,-5.9754,-5.5818,-5.3498,-5.1836,-5.0712,-5.0712,0.0,0.0,0.0,0.0,0.0,0.0,0.0,0.0,0.0,0.0,0.0,-4.5485,-4.59,-4.6199,-4.5649,0.0,0.0,0.0,0.0,0.0,-4.5975,-4.9325,-5.1136,-4.6598,-4.6911,-4.7939,-4.6581,-4.5883,-4.5516,0.0,0.0,0.0,0.0,-5.2858,0.0,0.0,0.0,0.0,0.0,0.0,0.0,0.0,0.0,0.0,0.0,0.0,0.0,0.0,0.0,0.0,0.0,0.0,0.0,0.0,0.0,-8.9784,-8.9784,-9.0445,-9.0445,-8.9784,-8.9674,-8.9565,-8.9565,-8.9455,-8.905,0.0,0.0,-8.7802,-8.7178,-8.7068,-8.6995,-8.6995,-8.6995,-8.6995,-8.6921,-8.6224,-8.5894,-8.56,0.0,0.0,0.0,0.0,0.0,0.0,0.0,0.0,0.0,0.0,0.0,0.0,0.0,0.0,0.0,0.0,0.0,0.0,0.0,0.0,-4.6701,-4.7625,-4.7663,-4.8596,-5.0673,-5.1202,-5.3933,-5.905,-5.9935,-6.1435,-6.3397,-6.155,-5.8896,-5.5626,-5.3766,-5.2088,-5.0712,-5.0712,-5.0712,0.0,0.0,0.0,0.0,0.0,0.0,0.0,0.0,0.0,0.0,0.0,-4.6456,-4.6809,-4.5993,0.0,0.0,0.0,0.0,0.0,-4.5077,-4.7808,-4.9898,-4.8135,-5.0546,-5.314,-5.2381,-5.1213,-5.0119,-4.9656,0.0,0.0,0.0,0.0,0.0,0.0,0.0,0.0,0.0,0.0,0.0,0.0,0.0,0.0,0.0,0.0,0.0,0.0,0.0,0.0,0.0,0.0,0.0,0.0,0.0,0.0,-8.8757,-8.9124,-8.9344,-8.9382,-8.8977,-8.8757,-8.8757,-8.8316,-8.7912,-8.7545,0.0,-8.7362,-8.6995,-8.6995,-8.6995,-8.6958,-8.6518,-8.6334,-8.6187,-8.4976,-8.4499,-8.4352,0.0,0.0,0.0,0.0,0.0,0.0,0.0,0.0,0.0,0.0,0.0,0.0,0.0,0.0,0.0,0.0,0.0,0.0,0.0,-4.6432,-4.7471,-4.8779,-4.9586,-5.0664,-5.2135,-5.3049,-5.6011,-6.1089,-6.1973,-6.3128,-6.4551,-6.132,-5.8357,-5.5626,-5.3933,-5.2279,-5.0712,-5.0712,-5.0712,0.0,0.0,0.0,0.0,0.0,0.0,0.0,0.0,0.0,0.0,0.0,0.0,0.0,0.0,0.0,0.0,-4.5475,-4.4565,-4.4103,-4.4819,-4.6829,-4.9159,-5.0738,-5.3813,-5.6742,-5.7829,-5.6461,-5.496,-5.494,-5.507,0.0,0.0,0.0,0.0,0.0,0.0,0.0,0.0,0.0,0.0,0.0,0.0,0.0,0.0,0.0,0.0,0.0,0.0,0.0,0.0,0.0,0.0,0.0,0.0,0.0,-8.7912,-8.7912,-8.8243,-8.8831,-8.8206,-8.7912,-8.7912,-8.7288,-8.6995,-8.6995,-8.6995,-8.6995,-8.6995,-8.6811,-8.6738,-8.6628,-8.582,-8.538,-8.5086,-8.3875,-8.3287,-8.303,0.0,0.0,0.0,0.0,0.0,0.0,0.0,0.0,0.0,0.0,0.0,0.0,0.0,0.0,0.0,0.0,0.0,0.0,0.0,-4.6432,-4.6962,-4.7077,-5.0038,-5.3241,-5.6483,-5.5126,-5.6896,-6.2024,-6.282,-6.3705,-6.4551,-6.1935,-5.8934,-5.5626,-5.3933,-5.2279,-5.0712,-5.0712,-5.0712,-5.0635,-4.974,0.0,0.0,0.0,0.0,0.0,0.0,0.0,0.0,0.0,0.0,0.0,0.0,0.0,-4.6934,-4.6849,-4.6029,-4.5579,-4.7482,-4.9064,-5.0695,-5.2995,-5.3256,-5.4107,-5.8442,-5.8748,-5.8727,-6.1048,-6.2091,-6.2482,0.0,0.0,0.0,0.0,0.0,0.0,0.0,0.0,0.0,0.0,0.0,0.0,0.0,0.0,0.0,0.0,0.0,0.0,0.0,0.0,0.0,0.0,0.0,0.0,-8.7105,-8.7105,-8.7142,-8.7178,-8.7105,-8.7105,-8.7105,-8.7031,-8.6995,-8.6995,-8.6995,-8.6995,-8.6958,-8.6187,-8.5894,-8.582,-8.5013,-8.4242,-8.3581,-8.3471,-8.292,-8.226,0.0,0.0,0.0,0.0,0.0,0.0,0.0,0.0,0.0,0.0,0.0,0.0,0.0,0.0,0.0,0.0,0.0,0.0,0.0,-4.6432,-4.7625,-4.9202,-5.0971,-5.3241,-5.6126,-5.7126,-6.0127,-6.5217,-6.5513,-6.5282,-6.4551,-6.1435,-5.8473,-5.5626,-5.3933,-5.2549,-5.1395,-5.0894,-5.0971,-5.1356,-5.0548,0.0,0.0,0.0,0.0,0.0,0.0,0.0,0.0,0.0,-4.656,-4.7337,-4.6713,-4.7301,-4.7884,-4.6276,-4.555,-4.5339,-4.5576,-4.8302,-5.1611,-5.3833,-5.5848,-5.8341,-6.2129,-6.4003,-6.552,-6.755,-6.8236,-6.8164,0.0,0.0,0.0,0.0,0.0,0.0,0.0,0.0,0.0,0.0,0.0,0.0,0.0,0.0,0.0,0.0,0.0,0.0,0.0,0.0,0.0,0.0,0.0,0.0,0.0,-8.6518,-8.6518,-8.6995,-8.6995,-8.6995,-8.6995,-8.6995,-8.6995,-8.6995,-8.6481,-8.6261,-8.6187,-8.538,-8.5049,-8.4976,-8.4168,-8.3361,-8.2663,-8.2663,-8.2443,-8.2186,0.0,0.0,0.0,0.0,0.0,0.0,0.0,0.0,0.0,0.0,0.0,0.0,0.0,0.0,0.0,0.0,0.0,0.0,-4.5594,-4.6432,-4.7702,-4.9433,-5.1048,-5.2972,-5.528,-5.8088,-6.1358,-6.5089,-6.5897,-6.5436,-6.3743,-6.0858,-5.828,-5.6011,-5.4183,-5.3053,-5.2439,-5.1338,-5.1222,-5.1634,-5.0839,-4.9324,0.0,0.0,0.0,0.0,0.0,0.0,0.0,0.0,-4.6483,-4.7192,-4.6465,-4.7082,-4.7735,-4.6025,-4.5956,-4.627,-4.5535,-4.8296,-5.1927,-5.4418,-5.7734,-6.1537,-6.5917,-6.8296,-7.034,-7.3144,-7.2813,-7.1883,-7.1383,0.0,0.0,0.0,0.0,0.0,0.0,0.0,0.0,0.0,0.0,0.0,0.0,0.0,0.0,0.0,0.0,0.0,0.0,0.0,0.0,0.0,0.0,0.0,0.0,-8.571,-8.571,-8.6261,-8.6261,-8.6518,-8.6995,-8.6738,-8.6628,-8.6591,-8.5783,-8.5416,-8.5343,-8.4535,-8.4058,-8.3801,-8.3251,-8.27,-8.2186,-8.2186,-8.2186,-8.2186,0.0,0.0,0.0,0.0,0.0,0.0,0.0,0.0,0.0,0.0,0.0,0.0,0.0,0.0,0.0,0.0,0.0,0.0,-4.5594,-4.6394,-4.6885,-4.6923,-5.0115,-5.2702,-5.4434,-5.7742,-5.9896,-6.0819,-6.332,-6.3705,-6.2062,-6.0281,-5.8588,-5.6896,-5.4765,-5.3798,-5.3683,-5.1993,-5.1307,-5.1231,-5.0442,-4.9093,-4.7579,0.0,0.0,0.0,0.0,0.0,0.0,0.0,-4.6003,-4.5858,-4.7171,-4.7007,-4.6373,-4.6458,-4.7628,-4.8813,-4.8365,-4.9517,-5.1652,-5.4995,-5.837,-6.2651,-6.939,-7.0937,-7.2399,-7.7476,-7.5737,-7.3549,-7.4399,-7.4118,0.0,0.0,0.0,0.0,0.0,0.0,0.0,0.0,0.0,0.0,0.0,0.0,0.0,0.0,0.0,0.0,0.0,0.0,0.0,0.0,0.0,0.0,0.0,-8.4609,-8.4609,-8.4609,-8.4609,-8.5453,-8.6958,-8.6151,-8.5783,-8.5747,-8.4939,-8.4609,-8.4535,-8.3728,-8.292,-8.2186,-8.2186,-8.2186,-8.2186,-8.2186,-8.2186,-8.2186,0.0,0.0,0.0,0.0,0.0,0.0,0.0,0.0,0.0,0.0,0.0,0.0,0.0,0.0,0.0,0.0,0.0,0.0,-4.5594,-4.5825,-4.6509,-4.7702,-4.9279,-5.0664,-5.1789,-5.3972,-5.7242,-6.1716,-6.1858,-6.1358,-6.0242,-5.855,-5.7137,-5.6038,-5.5109,-5.4039,-5.2857,-5.1475,-5.106,-5.1231,-5.074,-4.9707,-4.8471,0.0,0.0,0.0,0.0,0.0,0.0,0.0,0.0,0.0,-4.5976,-4.7647,-4.91,-4.5731,-4.6717,-4.8458,-4.6341,-5.0001,-5.4974,-5.7084,-6.2796,-6.8882,-7.2702,-7.4514,-7.654,-8.0558,-8.0106,-7.8652,-7.7401,0.0,0.0,0.0,0.0,0.0,0.0,0.0,0.0,0.0,0.0,0.0,0.0,0.0,0.0,0.0,0.0,0.0,0.0,0.0,0.0,0.0,0.0,0.0,0.0,0.0,-8.4058,-8.4609,-8.4022,-8.4315,-8.5306,-8.5049,-8.4976,-8.4903,-8.4132,-8.3765,-8.3691,-8.2884,-8.2406,-8.2186,-8.2186,-8.2186,-8.2186,-8.2186,-8.2186,-8.2186,0.0,0.0,0.0,0.0,0.0,0.0,0.0,0.0,0.0,0.0,-4.5594,-4.5594,0.0,0.0,0.0,0.0,0.0,0.0,-4.5594,-4.5594,-4.6201,-4.7548,-4.8432,-4.9779,-5.1664,-5.3356,-5.5626,-5.855,-5.8396,-5.8204,-5.7973,-5.733,-5.679,-5.647,-5.6549,-5.5573,-5.3746,-5.2485,-5.1764,-5.1478,-5.0935,-5.0,-4.8861,0.0,0.0,0.0,0.0,0.0,0.0,0.0,0.0,0.0,-4.4816,-4.6183,-4.7846,-4.5663,-4.7211,-4.9615,-4.9582,-5.3633,-5.8543,-6.1397,-6.6422,-7.1833,-7.6254,0.0,0.0,0.0,-8.1663,-8.0448,-7.9539,0.0,0.0,0.0,0.0,0.0,0.0,0.0,0.0,0.0,0.0,0.0,0.0,0.0,0.0,0.0,0.0,0.0,0.0,0.0,0.0,0.0,0.0,0.0,0.0,0.0,0.0,-8.3654,-8.3177,-8.3177,-8.3654,-8.3985,-8.4132,-8.4095,-8.3287,-8.292,-8.2884,-8.2406,-8.2186,-8.2186,-8.2186,-8.2186,-8.2186,-8.2186,-8.2186,-8.2186,0.0,0.0,0.0,0.0,0.0,0.0,0.0,0.0,0.0,0.0,-4.5594,-4.5594,0.0,0.0,0.0,0.0,0.0,0.0,0.0,-4.5594,-4.6009,-4.6962,-4.7932,-4.9933,-5.3126,-5.4549,-5.4511,-5.2972,-5.3933,-5.4741,-5.5472,-5.6412,-5.7045,-5.752,-5.8282,-5.7392,-5.5276,-5.3936,-5.2655,-5.1428,-5.0727,-4.9768,-4.8776,-4.8273,0.0,0.0,0.0,0.0,0.0,0.0,0.0,0.0,-4.3888,-4.3725,-4.4399,-4.5902,-4.8408,-5.1564,-5.5438,-5.8602,-6.1932,-6.6646,-6.9502,0.0,-7.9598,-8.1226,-8.16,-8.2652,0.0,0.0,0.0,0.0,0.0,0.0,0.0,0.0,0.0,0.0,0.0,0.0,0.0,0.0,0.0,0.0,0.0,0.0,0.0,0.0,0.0,0.0,0.0,0.0,0.0,0.0,0.0,0.0,0.0,0.0,-8.2186,-8.2186,-8.2223,-8.2957,-8.3287,-8.3251,-8.2517,-8.2186,-8.2186,-8.2186,-8.2186,-8.2186,-8.2186,-8.2186,-8.2186,-8.2186,-8.2186,-8.2186,0.0,0.0,0.0,0.0,0.0,0.0,0.0,0.0,0.0,0.0,0.0,0.0,0.0,0.0,0.0,0.0,0.0,0.0,0.0,-4.5594,-4.6278,-4.7778,-4.9923,-5.1731,-5.3164,-5.2241,-5.1597,-5.1241,-5.2741,-5.3587,-5.3769,-5.4903,-5.5834,-5.6553,-5.6452,-5.5016,-5.2604,-5.102,-4.9625,-4.8428,-4.8386,-4.831,-4.8192,-4.7526,-4.7011,0.0,0.0,0.0,0.0,0.0,0.0,0.0,-4.4597,-4.5394,-4.6304,-4.4655,-4.7282,-5.099,-5.2397,-5.6958,0.0,0.0,-7.33,-7.8382,-8.0771,-8.1327,-8.16,-8.2652,0.0,0.0,0.0,0.0,0.0,0.0,0.0,0.0,0.0,0.0,0.0,0.0,0.0,0.0,0.0,0.0,0.0,0.0,0.0,0.0,0.0,0.0,0.0,0.0,0.0,0.0,-8.2186,-8.2186,-8.2186,0.0,-8.2186,-8.2186,-8.2186,-8.237,-8.2443,-8.2443,-8.226,-8.2186,-8.2186,-8.2186,-8.2186,-8.2186,-8.2186,-8.2186,-8.2186,-8.2186,-8.2186,-8.2186,0.0,0.0,0.0,0.0,0.0,0.0,0.0,0.0,0.0,0.0,0.0,0.0,0.0,0.0,0.0,0.0,0.0,0.0,0.0,-4.5594,-4.6518,-4.8625,-5.0769,-5.1923,-5.201,-5.1174,-5.0289,-4.9471,-5.0741,-5.189,-5.2924,-5.4345,-5.577,-5.7165,-5.677,-5.52,-5.2698,-5.1243,-4.9643,-4.8121,-4.8191,-4.8196,-4.8081,-4.7467,-4.6979,-4.6521,-4.5858,0.0,0.0,0.0,0.0,0.0,0.0,0.0,-4.5033,-4.4749,-4.6682,-4.9811,-5.3558,0.0,0.0,-7.0654,0.0,-7.953,-8.095,-8.0983,0.0,0.0,0.0,0.0,0.0,0.0,0.0,0.0,0.0,0.0,0.0,0.0,0.0,0.0,0.0,0.0,0.0,0.0,0.0,0.0,0.0,0.0,0.0,0.0,0.0,0.0,0.0,0.0,-8.2186,-8.2186,-8.2186,-8.2186,-8.2186,-8.2186,-8.2186,-8.2186,-8.2186,-8.2186,-8.2186,-8.2186,-8.2186,-8.2186,-8.2186,-8.2186,-8.2186,-8.2186,-8.2186,-8.2186,-8.2186,-8.2186,0.0,0.0,0.0,0.0,0.0,0.0,0.0,0.0,0.0,0.0,0.0,0.0,0.0,0.0,0.0,0.0,0.0,0.0,0.0,-4.5748,-4.6894,-4.9279,-5.0741,-5.1279,-5.0933,-5.0481,-4.9625,-4.8317,-4.8894,-5.0572,-5.3228,-5.4372,-5.605,-5.8089,-5.727,-5.5703,-5.3466,-5.1764,-4.9964,-4.8228,-4.8121,-4.7935,-4.7702,-4.7098,-4.6466,-4.5889,-4.536,-4.5248,-4.5364,-4.5364,0.0,0.0,0.0,0.0,-4.3049,-4.4827,-4.6112,-4.8325,-5.4497,0.0,-6.5269,-7.3688,-7.713,0.0,-8.0382,0.0,0.0,0.0,0.0,0.0,0.0,0.0,0.0,0.0,0.0,0.0,0.0,0.0,0.0,0.0,0.0,0.0,0.0,0.0,0.0,0.0,0.0,0.0,0.0,0.0,0.0,0.0,0.0,-8.2186,-8.2186,-8.2186,-8.2186,-8.2186,-8.2186,-8.2186,-8.2186,-8.2186,-8.2186,-8.2186,-8.2186,-8.2186,-8.2186,-8.2186,-8.2186,-8.2186,-8.2186,-8.2186,-8.2186,-8.2186,-8.2186,-8.2186,0.0,0.0,0.0,0.0,0.0,0.0,0.0,0.0,0.0,0.0,-4.5594,-4.5594,-4.5594,-4.5594,0.0,0.0,0.0,0.0,-4.5594,0.0,0.0,-4.9317,-4.9625,-5.0356,-5.1692,-4.9586,-4.8702,-4.924,-4.8586,-5.0985,-5.6086,-5.4964,-5.5697,-5.798,-5.545,-5.3715,-5.2462,-4.9072,-4.7003,-4.5994,-4.539,-4.5472,-4.5841,-4.4722,-4.4411,-4.4465,-4.3731,-4.3893,-4.447,-4.447,-4.4979,0.0,0.0,0.0,0.0,0.0,-4.4738,-4.6865,0.0,0.0,-6.6974,0.0,-7.6707,-7.8615,0.0,0.0,0.0,0.0,0.0,0.0,0.0,0.0,0.0,0.0,0.0,0.0,0.0,0.0,0.0,0.0,0.0,0.0,0.0,0.0,0.0,0.0,0.0,0.0,0.0,0.0,-8.2186,-8.2186,-8.2186,0.0,-8.2186,-8.2186,-8.2186,-8.2186,-8.2186,-8.2186,-8.2186,-8.2186,-8.2186,-8.2186,-8.2186,-8.2186,-8.2186,-8.2186,-8.2186,-8.2186,-8.2186,-8.2186,-8.2186,-8.2186,-8.2186,-8.2186,0.0,0.0,0.0,0.0,0.0,0.0,0.0,0.0,0.0,0.0,0.0,-4.5594,-4.5594,-4.5594,0.0,0.0,0.0,0.0,-4.5594,-4.6432,0.0,-4.8625,-4.8663,-4.9009,-4.9731,-4.8231,-4.7625,-4.8009,-4.7625,-5.0516,-5.6459,-5.5906,-5.7845,-6.1626,-5.81,-5.5376,-5.3308,-4.9358,-4.6758,-4.5283,-4.4988,-4.6604,-4.8769,-4.539,-4.5649,-4.7471,-4.4239,-4.3316,-4.3701,-4.4162,-4.4547,-4.4837,0.0,0.0,0.0,0.0,0.0,-4.4731,-5.0979,-5.8792,-6.6474,0.0,0.0,0.0,0.0,0.0,0.0,0.0,0.0,0.0,0.0,0.0,0.0,0.0,0.0,0.0,0.0,0.0,0.0,0.0,0.0,0.0,0.0,0.0,0.0,0.0,0.0,0.0,0.0,-8.2186,-8.2186,-8.2186,-8.2186,0.0,-8.2186,-8.2186,-8.2186,-8.2186,-8.2186,-8.2186,-8.2186,-8.2186,-8.2186,-8.2186,-8.2186,-8.2186,-8.2186,-8.2186,-8.2186,-8.2186,-8.2186,-8.2186,-8.2186,-8.2186,-8.2186,-8.2186,0.0,0.0,0.0,0.0,0.0,0.0,0.0,0.0,0.0,0.0,0.0,-4.5594,-4.5594,0.0,0.0,0.0,0.0,0.0,-4.5594,0.0,0.0,0.0,-4.7586,-4.7586,-4.7778,-4.7009,-4.6701,-4.6885,-4.6885,-5.044,-5.7211,-5.7424,-6.0641,-6.6072,-6.1418,-5.7617,-5.4441,-5.0525,-4.798,-4.6633,-4.6587,-4.8723,-5.1577,-4.8625,-4.951,-5.1625,-4.6547,-4.4855,-4.497,-4.447,-4.4432,-4.4577,0.0,0.0,0.0,0.0,0.0,0.0,0.0,0.0,-6.2462,0.0,0.0,0.0,0.0,0.0,0.0,0.0,0.0,0.0,0.0,0.0,0.0,0.0,0.0,0.0,0.0,0.0,0.0,0.0,0.0,0.0,0.0,0.0,0.0,0.0,0.0,0.0,-8.1599,-8.1599,-8.1672,-8.1893,-8.1893,-8.2003,-8.2186,-8.2186,-8.2186,-8.2186,-8.2186,-8.2186,-8.2186,-8.2186,-8.2186,-8.2186,-8.2186,-8.2186,-8.2186,-8.2186,-8.2186,-8.2186,-8.2186,-8.2186,-8.2186,-8.2186,-8.2186,-8.2186,0.0,0.0,0.0,0.0,0.0,0.0,0.0,0.0,0.0,0.0,0.0,-4.5594,-4.5594,-4.5594,-4.5594,-4.5594,-4.5594,0.0,0.0,0.0,0.0,0.0,0.0,0.0,-4.6923,-4.6124,-4.6086,-4.6885,-4.6885,-5.13,-5.9726,-5.9733,-6.3615,-7.0301,-6.418,-5.9223,-5.5296,-5.2066,-5.0701,-5.0797,-5.0661,-5.1116,-5.2231,-5.5203,-5.6472,-5.6,-5.0894,-4.9586,-4.9711,-4.5663,-4.4855,-4.5328,-4.4268,-4.3522,-4.2698,0.0,0.0,0.0,0.0,-4.946,0.0,0.0,0.0,0.0,0.0,0.0,0.0,0.0,0.0,0.0,0.0,0.0,0.0,0.0,0.0,0.0,0.0,0.0,0.0,0.0,0.0,0.0,0.0,0.0,0.0,0.0,0.0,0.0,-7.991,-7.991,-8.0277,-8.1048,-8.1048,-8.1415,-8.2186,-8.2186,-8.2186,-8.2186,-8.2186,-8.2186,-8.2186,-8.2186,-8.2186,-8.2186,-8.2186,-8.2186,-8.2186,-8.2186,-8.2186,-8.2186,-8.2186,-8.2186,-8.2186,-8.2186,-8.2186,-8.2186,0.0,0.0,0.0,0.0,0.0,0.0,0.0,0.0,0.0,0.0,0.0,0.0,0.0,-4.5594,-4.5594,-4.5594,-4.5594,0.0,0.0,0.0,0.0,0.0,0.0,0.0,-4.6047,-4.5748,-4.5748,-4.6086,-4.6086,-4.9326,-5.5629,-5.6872,-5.9245,-6.2438,-6.2193,-6.0855,-5.8344,-5.306,-5.0803,-5.0941,-5.2023,-5.4509,-5.7588,-5.7176,-5.8665,-6.0396,-5.528,-5.2587,-5.1211,-4.9384,-4.7559,-4.5768,-4.406,-4.2543,-4.0939,-3.8676,-3.9686,-4.2129,0.0,0.0,0.0,0.0,0.0,0.0,0.0,0.0,0.0,0.0,0.0,0.0,0.0,0.0,0.0,0.0,0.0,0.0,0.0,0.0,0.0,0.0,0.0,0.0,0.0,0.0,0.0,0.0,0.0,0.0,-7.98,-7.98,-7.991,-8.0204,-8.0241,-8.0608,-8.1415,-8.1415,-8.1672,-8.2186,-8.2186,-8.2186,-8.2186,-8.2186,-8.2186,-8.2186,-8.2186,-8.2186,-8.2186,-8.2186,-8.2186,-8.2186,-8.2186,-8.2186,-8.2186,-8.2186,-8.2186,-8.2186,0.0,0.0,0.0,0.0,0.0,0.0,0.0,0.0,-4.5594,-4.5594,0.0,0.0,0.0,0.0,-4.5594,-4.5594,-4.5594,-4.5594,-4.5594,-4.5594,0.0,0.0,0.0,0.0,-4.5594,-4.5594,-4.5594,-4.5594,-4.5893,-4.8355,-5.2808,-5.4369,-5.6317,-5.8487,-5.9197,-5.9716,-5.9795,-5.5518,-5.3582,-5.352,-5.5306,-5.7949,-6.0935,-6.2089,-6.3743,-6.4974,-6.1281,-5.8319,-5.5901,-5.4223,-5.1588,-4.8548,-4.5546,-4.2294,-3.9234,-3.7619,-3.9309,-4.2008,-4.3105,0.0,0.0,0.0,0.0,0.0,0.0,0.0,0.0,0.0,0.0,0.0,0.0,0.0,0.0,0.0,0.0,0.0,0.0,0.0,0.0,0.0,0.0,0.0,0.0,0.0,0.0,0.0,0.0,0.0,-7.8956,-7.8956,-7.9103,-7.9396,-7.9653,-8.0057,-8.0571,-8.0608,-8.1012,-8.1782,-8.1782,-8.1929,-8.2186,-8.2186,-8.2186,-8.2186,-8.2186,-8.2186,-8.2186,-8.2186,-8.2186,-8.2186,-8.2186,-8.2186,-8.2186,-8.2186,-8.2186,-8.2186,0.0,0.0,0.0,0.0,0.0,0.0,0.0,0.0,-4.5594,-4.5594,0.0,0.0,0.0,0.0,0.0,-4.5748,-4.5748,-4.571,-4.5633,-4.5594,-4.5594,-4.5594,0.0,0.0,-4.5594,-4.5594,-4.5594,-4.5594,-4.6432,-4.8538,-5.1769,-5.2664,-5.5449,-5.9475,-5.5562,-5.5812,-5.9197,-5.9214,-5.9035,-5.891,-6.0685,-6.1249,-6.1973,-7.0244,-7.1937,-6.9783,-6.8898,-6.6974,-6.4205,-6.0038,-5.6846,-5.3772,-4.8732,-4.2961,-3.7979,-3.804,-3.904,-4.0158,0.0,0.0,0.0,0.0,0.0,0.0,0.0,0.0,0.0,0.0,0.0,0.0,0.0,0.0,0.0,0.0,0.0,0.0,0.0,0.0,0.0,0.0,0.0,0.0,0.0,0.0,0.0,0.0,0.0,-7.7273,-7.7273,-7.7273,-7.7708,-7.8516,-7.9323,-7.9727,-7.9764,-7.9764,-8.0167,-8.0975,-8.0975,-8.1379,-8.2113,-8.215,-8.215,-8.215,-8.2186,-8.2186,-8.2186,-8.2186,-8.2186,-8.2186,-8.2186,-8.2186,-8.2186,-8.2186,-8.2186,-8.2186,0.0,0.0,0.0,0.0,0.0,-4.5594,-4.5594,-4.5594,-4.5594,0.0,0.0,0.0,-4.6009,-4.7394,-4.8586,-4.925,-4.8702,-4.7817,-4.6624,-4.5932,-4.5594,-4.5594,-4.5594,-4.5594,-4.5594,-4.5594,-4.5594,-4.5594,-4.5825,-4.6778,-4.8308,-4.9779,-5.1449,-5.3272,-5.3996,-5.4526,-5.4816,-5.2981,-5.5102,-5.9669,-5.8949,-6.2142,-6.7475,-6.986,-7.2206,-7.413,-7.3283,-7.1706,-6.9679,0.0,-6.2804,-5.7226,-4.8909,-4.3391,-3.9823,-3.8899,-4.036,-4.1993,-4.0718,0.0,0.0,0.0,0.0,0.0,0.0,0.0,0.0,0.0,0.0,0.0,0.0,0.0,0.0,0.0,0.0,0.0,0.0,0.0,0.0,0.0,0.0,0.0,0.0,0.0,0.0,0.0,0.0,-7.7273,-7.7273,-7.7273,-7.7384,-7.7671,-7.7892,-7.8295,-7.8919,-7.8919,-7.9323,-8.0131,-8.0131,-8.0241,-8.0461,-8.1085,-8.1342,-8.1379,-8.1929,-8.2186,-8.2186,-8.2186,-8.2186,-8.2186,-8.2186,-8.2186,-8.2186,-8.2186,-8.2186,-8.2186,0.0,0.0,-4.571,-4.6086,-4.6432,-4.6778,-4.7134,-4.6894,-4.6778,0.0,0.0,0.0,-4.7163,-5.0087,-5.151,-5.0279,-4.9702,-4.8702,-4.7,-4.6086,-4.5594,-4.5594,-4.5594,-4.5787,-4.6124,-4.5787,-4.5787,-4.6124,-4.5787,-4.5864,-4.6394,-4.7355,-4.8095,-4.8634,-4.974,-5.0548,-5.0903,-4.8342,-5.1751,-5.9,-6.1234,-6.4742,-6.8975,-7.2168,-7.4245,0.0,0.0,0.0,-7.3615,-7.2379,-6.7031,-5.9352,-5.0863,-4.6339,-4.3631,-4.0738,-4.242,-4.4739,-4.2662,-4.3602,-4.5208,0.0,0.0,0.0,0.0,0.0,0.0,0.0,0.0,0.0,0.0,0.0,0.0,0.0,0.0,0.0,0.0,0.0,0.0,0.0,0.0,0.0,0.0,0.0,0.0,0.0,-7.6056,-7.646,-7.679,-7.709,-7.7273,-7.7273,-7.7273,-7.753,-7.8075,-7.8075,-7.8479,-7.9286,-7.9286,-7.947,-7.98,-8.0277,-8.0681,-8.1048,-8.1489,-8.1893,-8.2186,-8.2186,-8.2186,-8.2186,-8.2186,-8.2186,-8.2186,-8.2186,-8.2186,-8.2186,0.0,0.0,-4.5893,-4.6855,-4.7625,-4.8471,-4.951,-4.8933,-4.874,0.0,-4.8625,-4.8509,-5.0433,-5.3741,-5.4395,-5.0818,-5.001,-4.9009,-4.7432,-4.624,-4.5594,-4.5594,-4.5594,-4.597,-4.674,-4.6009,-4.597,-4.6778,-4.597,-4.5594,-4.5594,-4.5594,-4.5556,-4.5441,-4.4662,-4.5547,-4.7586,-4.5855,-4.974,-5.7599,-6.4512,-6.7475,0.0,0.0,-7.6976,-7.5822,-7.8746,-7.84,-7.6476,-7.6015,-6.986,-6.1242,-5.4511,-5.1214,-4.8896,-4.3884,-4.5418,-4.8279,-4.5817,-4.6062,-4.7378,-4.8885,0.0,0.0,-5.3848,-5.331,0.0,0.0,0.0,0.0,0.0,0.0,0.0,0.0,0.0,0.0,0.0,0.0,0.0,0.0,0.0,0.0,0.0,0.0,0.0,-7.4771,-7.4845,-7.5212,-7.5946,-7.6644,-7.7053,-7.7163,-7.7163,-7.72,-7.7273,-7.7273,-7.7708,-7.8479,-7.8479,-7.8809,-7.9507,-7.9617,-8.0057,-8.0755,-8.0828,-8.1305,-8.2076,-8.2076,-8.2113,-8.2186,-8.2186,-8.2186,-8.2186,-8.2186,-8.2186,-8.2186,0.0,-4.5594,-4.6095,-4.7586,-4.8009,-4.8856,-5.1077,-5.0702,-5.0741,-5.2279,-5.2779,-5.4434,-5.8165,-5.7484,-5.6983,-5.7473,-5.378,-5.101,-5.001,-4.721,-4.5594,-4.5594,-4.5594,-4.5671,-4.5864,-4.571,-4.5671,-4.5855,-4.5671,-4.5594,-4.5594,-4.5594,-4.5248,-4.4547,-4.4393,-4.4586,-4.5278,-4.8894,0.0,-5.7176,-5.9396,0.0,-7.2476,-7.463,-7.7284,-7.9862,-7.9823,-7.9939,-7.9592,-7.613,-7.1703,-6.6559,-6.0352,-5.7311,-5.5084,-5.0596,-5.114,-5.2856,-5.0923,-5.0624,-5.0412,0.0,0.0,0.0,0.0,-4.8318,0.0,0.0,0.0,0.0,0.0,0.0,0.0,0.0,0.0,0.0,0.0,0.0,0.0,0.0,0.0,0.0,0.0,0.0,-7.323,-7.3891,-7.4551,-7.4992,-7.5139,-7.5285,-7.5689,-7.6313,-7.635,-7.6644,-7.7273,-7.7273,-7.7384,-7.753,-7.753,-7.764,-7.7818,-7.8516,-7.8919,-7.9103,-7.9727,-8.0498,-8.1232,-8.1232,-8.1636,-8.2186,-8.2186,-8.2186,-8.2186,-8.2186,-8.2186,-8.2186,-4.5594,-4.5594,-4.6287,-4.8394,-4.9125,-5.0394,-5.3356,-5.3126,-5.351,-5.6011,-5.7819,-5.905,-5.9511,-5.9896,-5.9473,-5.7742,-5.4895,-5.2318,-5.0202,-4.7663,-4.6047,-4.5633,-4.5594,-4.5979,-4.6817,-4.6018,-4.6018,-4.6855,-4.5547,-4.494,-4.494,-4.494,-4.5393,-4.6124,-4.4855,-4.547,-4.7548,-4.8394,-5.1202,-5.5665,-6.2012,0.0,-7.4399,-7.6938,-7.9246,-8.1054,-8.0592,-8.0746,-8.04,-7.5668,-7.2851,0.0,0.0,-6.1882,-6.1222,0.0,-5.576,-5.7478,-5.3851,0.0,0.0,-5.1702,0.0,0.0,0.0,0.0,0.0,0.0,0.0,0.0,0.0,0.0,0.0,0.0,0.0,0.0,0.0,0.0,0.0,0.0,0.0,0.0,0.0,0.0,-7.2332,-7.2869,-7.3394,-7.3891,-7.4294,-7.4698,-7.5102,-7.5506,-7.5909,-7.6276,-7.6717,-7.709,-7.7273,-7.7273,-7.7273,-7.7273,-7.731,-7.7781,-7.8185,-7.8626,-7.9029,-7.9653,-8.0424,-8.0828,-8.1232,-8.1636,-8.2039,-8.2186,-8.2186,-8.2186,-8.2186,-8.2186,-4.5556,-4.5594,-4.6364,-4.874,-5.001,-5.1789,-5.4972,-5.5049,-5.6011,-5.955,-6.2358,-6.3205,-6.0973,-6.3012,-6.3128,-5.9665,-5.7126,-5.4626,-5.201,-4.9202,-4.7317,-4.6595,-4.5941,-4.6471,-4.8317,-4.6547,-4.624,-4.7625,-4.5393,-4.4316,-4.4316,-4.4316,-4.5393,-4.7317,-4.5893,-4.7201,-5.0327,-4.8365,0.0,-5.6549,0.0,-7.1398,-7.3053,-7.7977,-7.9862,-7.9977,-8.0785,-8.1093,-8.0362,-7.5592,-7.3976,-7.2741,-6.57,-6.5378,0.0,0.0,0.0,0.0,0.0,0.0,0.0,0.0,0.0,-5.251,0.0,0.0,0.0,-5.4385,0.0,0.0,0.0,0.0,0.0,0.0,0.0,0.0,0.0,0.0,0.0,0.0,0.0,0.0,0.0,0.0,-7.0758,-7.1429,-7.133,-7.1801,-7.3156,-7.3854,-7.4368,-7.4661,-7.5285,-7.5799,-7.6093,-7.6754,-7.7127,-7.7273,-7.7273,-7.7273,-7.7273,-7.7273,-7.7708,-7.8369,-7.8369,-7.8809,-7.9617,-8.0277,-8.0645,-8.0865,-8.1819,-8.2186,-8.2186,-8.2186,-8.2186,-8.2186,-4.5441,-4.5594,-4.6172,-4.7932,-4.9625,-5.1597,-5.4241,-5.5164,-5.7049,-6.1254,-6.4628,-6.7359,-6.9244,-6.9167,-6.9937,-7.2322,-6.4897,-6.0242,-6.0639,-5.4136,-5.0212,-5.0135,-4.721,-4.6749,-4.9202,-4.6864,-4.571,-4.5902,-4.4816,-4.4316,-4.4316,-4.4316,-4.4432,-4.4855,-4.7586,-4.9086,-4.9779,0.0,-5.8396,0.0,-6.8398,-6.7744,0.0,-7.2668,-7.5438,-7.5938,-7.9746,-8.1093,-8.0554,0.0,-7.5707,-7.4572,0.0,-6.7558,-6.8408,-6.3321,0.0,0.0,0.0,0.0,0.0,0.0,-5.7088,0.0,0.0,0.0,-5.1,-4.9433,0.0,0.0,0.0,0.0,0.0,0.0,0.0,0.0,0.0,0.0,0.0,0.0,0.0,0.0,0.0,0.0,0.0,-6.9088,-6.7578,-6.8047,-7.1394,-7.166,-7.2386,-7.378,-7.3927,-7.4661,-7.6093,-7.6203,-7.6607,-7.7273,-7.7273,-7.7273,-7.7273,-7.7273,-7.7347,-7.742,-7.742,-7.7965,-7.8736,-7.8846,-7.9286,-8.0094,-8.1599,-8.2186,-8.2186,-8.2186,-8.2186,-8.2186,-4.5441,-4.5594,-4.6133,-4.7817,-4.8702,-5.0394,-5.3972,-5.855,-6.2089,-6.3358,-6.6898,-6.9513,-7.0129,-7.0783,-7.1514,-7.2437,-6.8936,-6.5551,0.0,-5.7973,-5.4434,-5.2972,-4.9625,-4.8548,-5.0125,-4.7663,-4.6355,-4.6355,-4.4509,-4.3585,-4.3585,-4.3585,-4.5163,-4.8095,-5.001,0.0,-5.678,0.0,-5.8858,0.0,0.0,0.0,0.0,-7.4207,-7.84,-7.8669,-8.0439,-8.1093,-8.0592,0.0,-7.5668,0.0,0.0,0.0,0.0,0.0,0.0,0.0,0.0,0.0,0.0,0.0,0.0,0.0,-5.0664,0.0,-4.9115,0.0,0.0,0.0,0.0,0.0,0.0,0.0,0.0,0.0,0.0,0.0,0.0,0.0,0.0,0.0,0.0,0.0,0.0,0.0,0.0,-6.6158,-7.0121,-7.0487,-7.1138,-7.2275,-7.3193,-7.4001,-7.4698,-7.5175,-7.5836,-7.6607,-7.6607,-7.6864,-7.7273,-7.7273,-7.7273,-7.7273,-7.7273,-7.7494,-7.7892,-7.8405,-7.8809,-7.9213,-8.0351,-8.1085,-8.1562,-8.2039,-8.2186,-8.2186,-4.5441,-4.5594,-4.5979,-4.7201,-4.8009,-4.9971,-5.4511,-6.0281,-6.432,-6.4897,-6.8244,-7.0783,-7.136,-7.3129,-7.4476,-7.5014,-7.4245,-7.1822,0.0,-6.3089,-5.9665,-5.7357,-5.3126,-5.1318,-5.2395,-4.924,-4.7355,-4.6885,-4.4586,-4.3547,-4.3778,-4.3547,-4.5663,-4.974,-5.1972,-5.5972,-6.105,0.0,-6.1512,-6.3012,-6.5436,-6.6397,-6.7321,-7.6015,-8.0092,-8.1093,-8.1093,-8.1093,-8.0592,-7.7438,-7.5938,0.0,-7.3899,0.0,0.0,0.0,0.0,0.0,-6.468,0.0,0.0,0.0,0.0,0.0,0.0,0.0,0.0,0.0,0.0,0.0,0.0,0.0,0.0,-4.8432,0.0,0.0,0.0,0.0,0.0,0.0,0.0,0.0,0.0,0.0,0.0,0.0,0.0,0.0,-6.8198,-6.8847,-6.9669,-7.0954,-7.2312,-7.323,-7.3707,-7.4294,-7.5102,-7.6093,-7.6295,-7.6707,-7.7341,-7.748,-7.745,-7.7273,-7.7273,-7.7273,-7.7347,-7.8002,-7.8259,-7.8332,-7.914,-7.9926,-8.0665,-8.1328,-8.1672,-8.1819,-4.5441,-4.5594,-4.5633,-4.5671,-4.7702,-5.1048,-5.6137,-5.8511,-6.1204,-6.532,-6.8129,-7.1283,-7.5361,-7.8054,-8.1208,-8.5247,0.0,-7.9669,-7.7015,0.0,-6.6051,-6.4359,-5.7896,-5.5126,-5.6769,-5.1895,-4.8548,-4.6885,-4.5124,-4.4701,-4.5518,-4.4662,-4.524,-4.7269,-5.301,-5.6626,-5.8781,-6.4436,-6.9667,-7.4168,-7.4284,-7.6784,-8.0054,0.0,-7.7476,-8.1093,-8.1093,0.0,0.0,-7.813,-7.7246,0.0,0.0,0.0,0.0,0.0,0.0,0.0,0.0,0.0,0.0,-5.8088,0.0,0.0,0.0,0.0,-5.2549,0.0,0.0,0.0,0.0,-5.2346,-5.1231,-4.9625,-4.9394,0.0,0.0,0.0,0.0,0.0,0.0,0.0,0.0,0.0,0.0,0.0,0.0,0.0,-6.5158,-6.6182,-6.7687,-7.0073,-7.0954,-7.2129,-7.367,-7.3707,-7.4515,-7.6093,-7.6764,-7.7153,-7.7304,-7.7988,-7.7903,-7.7273,-7.7273,-7.7273,-7.7273,-7.731,-7.7347,-7.742,-7.8295,-7.9002,-7.9549,-7.9818,-8.0351,-8.0938,-4.6278,-4.6471,-4.6278,-4.571,-4.6778,-4.9625,-5.528,-5.9473,-6.3935,0.0,-7.1783,0.0,0.0,-8.2785,-8.4786,0.0,0.0,-8.4786,-8.167,-7.5592,0.0,-7.2129,-6.4051,-6.005,-6.1154,-5.6165,-5.2202,-4.9394,-4.7124,-4.6163,-4.6432,-4.497,-4.5509,-4.7932,-5.328,-5.7896,0.0,0.0,0.0,0.0,0.0,-7.6784,-8.0939,0.0,0.0,-8.1093,-8.1093,-8.1093,0.0,-8.0092,-7.8669,-7.7323,-7.7592,-7.5745,-7.35,-7.3437,-7.2822,0.0,0.0,0.0,-7.0244,-6.1973,0.0,0.0,0.0,0.0,0.0,0.0,0.0,0.0,0.0,-5.1664,-5.0548,-4.8817,-4.8548,-4.7471,0.0,0.0,0.0,0.0,0.0,0.0,0.0,0.0,0.0,0.0,0.0,0.0,0.0,-6.5854,-6.7505,-6.9691,-7.0772,-7.1835,-7.2899,-7.2899,-7.345,-7.4544,-7.5716,-7.6601,-7.72,-7.8365,-7.8741,-7.8576,-7.8576,-7.8576,-7.8525,-7.8146,-7.819,-7.8562,-7.8453,-7.8762,-7.9342,-7.9667,-8.0217,-8.0748,-4.6855,-4.6885,-4.674,-4.6163,-4.7778,-5.0933,-5.6242,0.0,0.0,0.0,-7.4899,0.0,-8.3054,0.0,-8.6594,0.0,-8.8902,-8.7748,-8.3401,-8.0131,0.0,-7.6515,-7.0129,0.0,-6.6474,-6.1166,-5.6472,-5.2482,-4.9933,-4.8385,-4.774,-4.6047,-4.624,-4.8317,-5.3126,-5.7934,-6.2781,0.0,-7.1745,0.0,0.0,-7.8169,0.0,0.0,-8.1093,-8.1093,0.0,-8.1093,-8.1093,-8.1093,-8.0015,-7.8823,-7.9939,-7.8169,-7.5784,-7.5976,-7.5284,-7.4053,-7.2283,-7.286,0.0,-6.5205,-6.3012,0.0,-5.3703,0.0,0.0,0.0,0.0,0.0,0.0,0.0,-5.1318,-5.051,-4.9086,-4.6932,0.0,0.0,0.0,0.0,0.0,0.0,0.0,0.0,-5.1645,-5.5513,0.0,0.0,0.0,0.0,-6.6675,-6.8677,-7.0306,-7.1534,-7.2373,-7.2669,-7.3323,-7.437,-7.5507,-7.6525,-7.7392,-7.8565,-7.9138,-7.9198,-7.9198,-7.9198,-7.9152,-7.8562,-7.8653,-7.9152,-7.8536,-7.8804,-7.9554,-7.9572,-7.9846,-8.0223,-4.7192,-4.7154,0.0,0.0,-5.0702,0.0,0.0,0.0,-7.0629,0.0,-7.7438,-8.1054,-8.3747,-8.5517,-8.7132,-8.8748,-9.0325,-8.8825,-8.3093,-8.4132,0.0,0.0,-7.6015,-7.4207,-7.2591,-6.6667,-6.1089,-5.6088,-5.3318,-5.1125,-4.9471,-4.7778,-4.7355,-4.824,-5.251,0.0,-6.1243,-6.8783,-7.4553,-7.8707,-8.04,-8.1093,-8.1093,-8.1093,0.0,-8.1093,-8.1093,-8.1093,-8.1093,-8.1093,-8.1093,-8.1093,-8.1093,-8.0516,-7.9708,-7.8823,-7.8554,-7.7861,-7.463,-7.4284,-7.3437,-6.7705,0.0,0.0,0.0,0.0,-6.2551,0.0,0.0,0.0,0.0,0.0,-5.3626,-5.4164,-5.0664,-4.6817,-4.3624,0.0,0.0,0.0,0.0,0.0,0.0,0.0,-4.6608,-5.1929,-5.1662,0.0,0.0,0.0,0.0,-6.7141,-6.9615,-7.133,-7.2236,-7.3056,-7.4135,-7.5463,-7.6102,-7.6918,-7.7923,-7.8613,-7.9087,-7.929,-7.929,-7.929,-7.9244,-7.8628,-7.8754,-7.9244,-7.8602,-7.9105,-8.0086,-7.9469,-7.9221,-7.9311,-4.8933,-5.0818,-5.2933,0.0,-5.478,-5.6703,0.0,0.0,0.0,0.0,-8.1362,-8.5286,-8.971,-9.1133,-9.1672,-9.1518,-9.1902,0.0,0.0,0.0,0.0,-8.6632,-8.14,-7.8284,-7.7861,-7.0783,-6.5205,-6.1358,-5.5665,-5.2308,-5.1192,-4.8894,-4.7586,-4.7385,0.0,0.0,-6.0242,-6.6667,-7.3283,-7.9554,-8.0669,-8.1093,0.0,0.0,-8.1093,-8.1093,-8.1093,-8.1093,-8.1093,-8.1093,-8.1093,-8.1093,-8.1093,-8.0939,-8.0592,-7.9708,-7.9477,-7.9131,-7.763,-7.6938,-7.5822,-7.2399,-6.9629,-6.6859,0.0,0.0,0.0,0.0,0.0,0.0,0.0,0.0,0.0,-5.1395,-4.7663,-4.497,-4.4124,0.0,0.0,0.0,0.0,0.0,0.0,0.0,-4.7184,-4.9504,0.0,0.0,0.0,0.0,0.0,-6.7296,-6.9478,-7.1319,-7.277,-7.3635,-7.4252,-7.4633,-7.5855,-7.6865,-7.7778,-7.9003,-7.9944,-8.0608,-8.0608,-8.0608,-8.0573,-7.9888,-8.0027,-8.0555,-7.9888,-8.0125,-8.075,-8.0105,-7.9578,-7.9305,-5.0587,0.0,0.0,-5.9023,0.0,0.0,-6.5705,0.0,0.0,-7.8977,-8.3439,0.0,-8.994,-9.2326,-9.3518,-9.3056,-9.271,0.0,-8.9671,0.0,0.0,-8.8248,-8.4939,-8.2785,-8.2054,-7.5245,0.0,-6.4436,0.0,-5.4049,-5.1318,-4.8779,-4.7317,-4.7077,0.0,-5.478,0.0,-6.7552,-7.4091,-7.8861,-8.0439,0.0,0.0,-8.1093,-8.1093,-8.1093,-8.1093,-8.1093,-8.1093,-8.1093,-8.1093,-8.1093,-8.1093,-8.1093,-8.1016,-8.0516,-8.0362,-8.0169,-7.9323,-7.8438,-7.74,-7.5592,-7.3437,-7.1052,-6.8513,-6.8629,-6.8936,0.0,0.0,0.0,0.0,0.0,0.0,-4.9817,-4.6586,-4.4739,0.0,0.0,0.0,0.0,0.0,0.0,0.0,0.0,0.0,0.0,0.0,0.0,0.0,0.0,0.0,-6.5797,-6.8751,-7.1142,-7.283,-7.3702,-7.4427,-7.5037,-7.5841,-7.6858,-7.8063,-7.8868,-7.9939,-8.1093,-8.1093,-8.1093,-8.1061,-8.037,-8.0499,-8.1061,-8.066,-8.0767,-8.1061,-8.0698,-8.0315,-8.0046,-5.2885,0.0,0.0,0.0,0.0,0.0,0.0,-7.3129,0.0,-8.0285,0.0,-8.8286,-8.8363,-9.1787,-9.398,-9.3864,0.0,-9.1364,-8.8286,-9.0017,-8.9863,-8.6901,-8.7286,-8.6824,-8.5247,-7.9285,-7.2976,0.0,-6.0973,-5.5703,-5.0635,-4.8202,-4.7,-4.7038,0.0,0.0,0.0,-6.9898,-7.5668,0.0,-8.0131,-8.1093,-8.1093,-8.1093,-8.1093,-8.1093,-8.1093,-8.1093,-8.1093,-8.1093,-8.1093,-8.1093,-8.1093,-8.1093,-8.1093,-8.1093,-8.1093,-8.0939,-8.0169,-7.9246,-7.8323,-7.763,-7.6707,-7.5399,-7.3206,-7.2706,-7.2476,-7.1706,-6.909,-6.7859,0.0,0.0,0.0,-4.9856,0.0,0.0,0.0,0.0,0.0,0.0,0.0,0.0,0.0,0.0,0.0,0.0,0.0,0.0,0.0,0.0,0.0,0.0,-6.7954,0.0,-7.2716,0.0,-7.4697,-7.6015,-7.6015,-7.6823,-7.8376,-7.8438,-7.94,-8.0939,-8.1054,-8.1093,-8.1061,-8.0481,-8.0591,-8.1093,-8.1093,-8.1093,-8.1093,-8.1093,-8.1093,-8.1007,0.0,0.0,0.0,0.0,0.0,-7.3091,-7.6438,-7.9708,-8.2862,-8.5709,-8.9863,-9.2864,-9.3595,-9.498,-9.5557,-9.4826,-9.398,0.0,0.0,0.0,0.0,-9.0325,-8.9133,-8.7979,-8.6978,-8.0477,-7.4437,0.0,-6.182,-5.5703,-5.0673,-4.8779,-4.7548,-4.7038,0.0,0.0,-6.4743,-7.1052,0.0,-7.8438,-8.0323,-8.1093,-8.1093,-8.1093,-8.1093,-8.1093,-8.1093,-8.1093,-8.1093,-8.1093,-8.1093,-8.1093,-8.1093,-8.1093,-8.1093,-8.1093,-8.1093,-8.1054,-8.09,-7.9708,-7.8492,-7.8323,-7.713,-7.5861,-7.5438,-7.5322,-7.5284,-7.513,-7.3553,-7.1552,-6.9436,0.0,0.0,0.0,0.0,0.0,0.0,0.0,0.0,0.0,0.0,0.0,0.0,0.0,0.0,0.0,0.0,0.0,0.0,0.0,0.0,0.0,0.0,0.0,0.0,0.0,0.0,-7.6015,-7.6015,-7.6515,-7.7515,-7.8207,-7.9054,-8.0092,-8.0785,-8.1093,-8.1093,-8.0975,-8.0991,-8.1093,-8.1093,-8.1093,-8.1093,-8.1093,-8.1093,-8.1077,0.0,0.0,0.0,0.0,0.0,0.0,0.0,-8.5709,0.0,-8.7478,-8.9556,-9.1441,-9.2249,-9.4711,-9.6134,-9.5711,-9.4441,-9.3518,-9.3133,-9.1902,-9.121,-9.121,-8.9594,0.0,-8.7401,-8.2054,-7.6322,-7.0321,-6.3551,-5.7203,-5.1279,-4.8702,-4.7269,-4.7077,0.0,-5.7857,0.0,0.0,0.0,-7.7438,-8.0054,-8.1093,-8.1093,-8.1093,-8.1093,-8.1093,-8.1093,-8.1093,-8.1093,-8.1093,-8.1093,-8.1093,-8.1093,-8.1093,-8.1093,-8.1093,-8.1093,-8.1093,-8.1093,-7.9823,-7.8477,-7.8477,-7.7246,-7.6015,-7.6015,-7.6015,-7.5861,-7.5438,-7.4361,-7.2322,-6.8436,-6.3628,0.0,0.0,0.0,0.0,0.0,0.0,0.0,0.0,0.0,0.0,0.0,0.0,0.0,0.0,0.0,0.0,0.0,0.0,0.0,0.0,0.0,0.0,0.0,0.0,0.0,-7.6015,-7.6015,-7.6476,-7.7323,-7.813,-7.8977,-7.9862,-8.0708,-8.1093,-8.1093,-8.1093,-8.1093,-8.1093,-8.1093,-8.1093,-8.1093,-8.1093,-8.1093,-8.1093,0.0,-6.8475,0.0,0.0,-7.7938,0.0,-8.5555,-8.9748,-9.1672,-8.9325,-8.9594,-9.0364,-9.1171,-9.4287,-9.6288,-9.6288,-9.4864,-9.3903,-9.371,-9.2287,-9.1402,-9.121,-8.9594,-8.8363,-8.7671,-8.3708,-7.8361,0.0,0.0,-5.9588,-5.2654,-4.9462,-4.8231,0.0,0.0,0.0,0.0,0.0,-7.4322,-7.7053,-7.9939,-8.1093,-8.1093,-8.1093,-8.1093,-8.1093,-8.1093,-8.1093,-8.1093,-8.1093,-8.1093,-8.1093,-8.1093,-8.1093,-8.1093,-8.1093,-8.1093,-8.1093,-8.1093,-7.9823,-7.8477,-7.8477,-7.7246,-7.6015,-7.6015,-7.6015,-7.5745,-7.4899,-7.3899,-7.1975,-6.7859,-6.5089,0.0,0.0,0.0,0.0,0.0,0.0,0.0,0.0,0.0,0.0,0.0,0.0,0.0,0.0,0.0,0.0,-5.001,-5.3356,0.0,0.0,0.0,0.0,-7.136,0.0,-7.4245,0.0,-7.5899,-7.6361,-7.7053,-7.8054,-7.8861,-7.9592,-8.0631,-8.1093,-8.1093,-8.1093,-8.1093,-8.1093,-8.1093,-8.1093,-8.1093,-8.1093,-8.1093,-8.1093,0.0,0.0,0.0,0.0,0.0,0.0,0.0,-8.9748,-9.2941,-9.4134,-9.4364,-9.4749,-9.5595,-9.6057,-9.6288,-9.6288,-9.5441,-9.4518,-9.3749,-9.2864,-9.2018,-9.1248,-8.9594,-8.8671,-8.8556,-8.5132,-8.04,0.0,0.0,-6.2743,-5.528,-5.2664,-5.2664,0.0,0.0,0.0,0.0,-7.2937,-7.6399,-7.9554,-8.0669,-8.1093,-8.1093,-8.1093,-8.1093,-8.1093,-8.1093,-8.1093,-8.1093,-8.1093,-8.1093,-8.1093,-8.1093,-8.1093,-8.1093,-8.1093,-8.1093,-8.1093,-8.1093,-7.9823,-7.8477,-7.8477,-7.7246,-7.6015,-7.6015,-7.6015,-7.5745,-7.4899,-7.3437,-7.1245,-6.7744,-6.7475,-6.6513,0.0,0.0,0.0,0.0,0.0,0.0,0.0,0.0,0.0,0.0,0.0,0.0,0.0,0.0,0.0,0.0,-5.3241,0.0,-6.1908,0.0,-6.6898,-6.8744,-7.1898,0.0,-7.4822,-7.563,-7.6053,-7.6169,-7.7746,-7.8515,-7.8707,-8.0362,-8.1093,-8.1093,-8.1093,-8.1093,-8.1093,-8.1093,-8.1093,-8.1093,-8.1093,-8.1093,-8.1093,0.0,0.0,0.0,0.0,0.0,0.0,0.0,-9.2133,-9.3826,-9.5557,-9.5326,-9.5326,-9.6211,-9.6288,-9.6288,-9.6288,-9.548,-9.4634,-9.3749,-9.2941,-9.2095,-9.1248,-8.9594,-8.8709,-8.8709,-8.5863,-8.1939,0.0,0.0,0.0,0.0,0.0,0.0,0.0,0.0,-6.8167,-7.2168,-7.5053,-7.763,-7.99,-8.0746,-8.14,-8.1785,-8.1285,-8.14,-8.1747,-8.1285,-8.1093,-8.1093,-8.1093,-8.1093,-8.1093,-8.1093,-8.1093,-8.1093,-8.1093,-8.1093,-8.1093,-8.1093,-7.9823,-7.8477,-7.8477,-7.7246,-7.6015,-7.6015,-7.6015,-7.563,-7.4245,-7.2629,-7.1014,-6.9629,-6.8013,-6.6667,0.0,0.0,0.0,0.0,0.0,0.0,0.0,0.0,0.0,0.0,0.0,0.0,0.0,0.0,0.0,0.0,0.0,0.0,-5.8934,0.0,-6.6705,-6.8385,-7.1769,-7.4168,-7.5476,-7.5822,-7.6015,-7.6053,-7.7746,-7.9054,-8.0092,-8.0785,-8.1093,-8.1093,-8.1093,-8.1093,-8.1093,-8.1093,-8.1093,-8.1093,-8.1093,-8.1093,-8.1093,-8.0208,0.0,-8.0246,0.0,-8.5555,-8.6901,-9.2787,-9.3903,-9.4634,-9.6095,-9.5749,-9.5634,-9.6249,-9.6288,-9.6288,-9.6288,-9.5749,-9.4903,-9.3749,-9.3172,-9.2249,-9.0902,-8.944,0.0,-8.8325,-8.6286,-8.3516,-7.9992,-7.5091,0.0,0.0,0.0,0.0,0.0,-6.8859,-7.2014,-7.513,-7.7438,-7.9361,-8.0977,-8.1593,-8.217,-8.2631,-8.2054,-8.217,-8.2554,-8.1747,-8.1439,-8.14,-8.117,-8.1093,-8.1093,-8.1093,-8.1093,-8.1093,-8.1093,-8.1093,-8.1093,-8.1093,-8.0015,-7.8823,-7.8554,-7.7438,-7.6322,-7.6053,-7.6015,-7.5515,-7.386,-7.2129,-7.0898,-7.0898,-6.8552,-6.6859,-6.7552,0.0,0.0,0.0,0.0,0.0,0.0,0.0,-5.2779,0.0,0.0,0.0,0.0,0.0,0.0,0.0,0.0,0.0,0.0,0.0,0.0,0.0,-7.1769,-7.4207,-7.563,-7.5861,-7.6015,-7.6053,-7.7746,-7.9438,-8.1093,-8.1093,-8.1093,-8.1093,-8.1093,-8.1093,-8.1093,-8.1093,-8.1093,-8.1093,-8.1093,-8.1093,-8.1093,-8.4324,-8.4824,-8.5863,-8.9248,-9.0517,-9.1672,-9.3441,-9.4441,-9.5288,-9.6172,-9.6288,-9.6288,-9.6288,-9.6288,-9.6288,-9.6288,-9.6288,-9.5557,-9.3787,-9.3672,-9.2556,0.0,0.0,-8.8286,-8.744,-8.6555,-8.5247,-8.3516,0.0,0.0,-7.3283,0.0,-6.9167,-7.0937,-7.3476,-7.6053,-7.8554,-8.0323,-8.2016,-8.3555,-8.3555,-8.3555,-8.3555,-8.3555,-8.3555,-8.3478,-8.2593,-8.2285,-8.217,-8.1362,-8.1093,-8.1093,-8.1093,-8.1093,-8.1093,-8.1093,-8.1093,-8.1093,-8.1093,-8.0477,-7.9592,-7.8707,-7.79,-7.7053,-7.6207,-7.6015,-7.5515,-7.386,-7.2129,-7.0898,-7.0898,-6.9513,-6.7821,-6.6205,0.0,0.0,0.0,0.0,0.0,0.0,-5.5,-5.1923,-5.1885,0.0,0.0,0.0,0.0,0.0,0.0,0.0,0.0,-6.187,-6.4551,0.0,-6.8385,-7.1769,-7.3899,-7.4745,-7.5592,-7.6015,-7.6053,-7.7746,-7.9438,-8.1093,-8.1093,-8.1093,-8.1093,-8.1093,-8.1093,-8.1093,-8.1093,-8.1093,-8.1093,-8.1093,-8.1093,-8.1093,-8.5555,-8.5709,-8.6247,-8.7902,-8.9363,-9.0902,-9.2633,-9.4095,-9.5095,-9.5365,-9.5942,-9.5865,-9.4672,-9.5595,-9.6288,0.0,-9.5749,-9.4672,0.0,-9.2326,-9.1133,-8.9171,-8.8286,-8.7671,-8.7401,-8.6555,-8.5555,-8.4478,0.0,0.0,0.0,-7.4707,-7.5668,-7.79,-7.9285,-8.0669,-8.2016,-8.2554,-8.3093,-8.3593,-8.3593,-8.3939,-8.4439,-8.3824,-8.3978,-8.4362,-8.3478,-8.2785,-8.2247,-8.2016,-8.1554,-8.1093,-8.1093,-8.1093,-8.1093,-8.1093,-8.1093,-8.1093,-8.1093,-8.0477,-7.9592,-7.8707,-7.79,-7.7053,-7.6207,-7.513,-7.413,-7.363,-7.2129,-7.0898,-7.0898,-6.9552,-6.8231,-6.7705,-6.6667,0.0,0.0,0.0,0.0,0.0,0.0,-5.4934,0.0,-5.3433,0.0,0.0,0.0,0.0,0.0,0.0,0.0,0.0,-6.4205,0.0,-6.9283,-7.2091,-7.4207,-7.5592,-7.5861,-7.6592,-7.7707,-7.8246,-7.9438,-8.1093,-8.1093,-8.1093,-8.1093,-8.1093,-8.1093,-8.1093,-8.1093,-8.1093,-8.1093,-8.1093,-8.1093,-8.1093,-8.6094,-8.6094,-8.6363,-8.7248,-8.8556,-9.0017,-9.1748,-9.3172,-9.4172,-9.448,-9.498,-9.4903,-9.3826,-9.4672,0.0,-9.5788,-9.5018,-9.3941,-9.2595,-9.1364,-8.9979,-8.8286,-8.7671,-8.7248,-8.6901,0.0,0.0,-8.5363,-8.2901,-8.09,-7.9361,-7.9554,-8.0516,-8.2054,-8.2554,-8.3247,-8.4093,-8.4093,-8.4247,-8.4555,-8.4555,-8.4863,-8.5286,-8.4747,-8.4863,-8.5247,-8.4401,-8.3747,-8.317,-8.2516,-8.1977,-8.1516,-8.1208,-8.1093,-8.1093,-8.1093,-8.1093,-8.1093,-8.1093,-8.0708,-8.0092,-7.9208,-7.8361,-7.7438,-7.6284,-7.4938,-7.386,-7.3553,-7.236,-7.1283,-7.0975,-6.9552,-6.8385,-6.8385,-6.6974,-6.559,-6.4705,0.0,0.0,0.0,0.0,0.0,0.0,-5.6665,0.0,0.0,0.0,0.0,0.0,0.0,0.0,-6.155,-6.582,0.0,-7.1129,-7.2706,-7.4361,-7.6015,-7.6322,-7.7169,-7.8515,-7.8823,-7.9746,-8.1093,-8.1093,-8.1093,-8.1093,-8.1093,-8.1093,-8.1093,-8.1093,-8.1093,-8.1093,-8.1093,-8.1093,-8.1093,-8.6094,-8.6094,0.0,0.0,-8.8132,0.0,-9.0864,-9.1941,-9.2826,-9.3518,-9.3672,-9.3672,-9.3518,-9.3633,-9.398,-9.4749,0.0,0.0,0.0,-9.071,-8.9017,-8.7363,-8.7325,-8.694,-8.6132,-8.6094,-8.6094,-8.6094,-8.5363,-8.4978,-8.4978,-8.4132,-8.3747,-8.3747,-8.3747,-8.4209,-8.4978,-8.4978,-8.544,-8.6094,-8.6094,-8.6094,-8.6094,-8.6094,-8.6094,-8.6017,-8.5247,-8.4939,-8.467,-8.3016,-8.2439,-8.2247,-8.1516,-8.1246,-8.117,-8.1131,-8.1093,-8.1093,-8.1093,-8.1093,-8.09,-8.0015,-7.9092,-7.7977,-7.6361,-7.5322,-7.4476,-7.3668,-7.2822,-7.1937,-7.1052,-6.9552,-6.8385,-6.8385,-6.6936,-6.5513,-6.4628,0.0,0.0,0.0,0.0,0.0,0.0,-5.9319,-6.0435,0.0,0.0,0.0,0.0,0.0,-6.2089,-6.6936,-6.8859,-7.0975,-7.3462,-7.3553,-7.4399,-7.6015,-7.6861,-7.7707,-7.8515,-7.94,-8.0285,-8.1093,-8.1093,-8.1093,-8.1093,-8.1093,-8.1093,-8.1093,-8.1093,-8.1093,-8.1093,-8.1093,-8.1093,-8.1093,0.0,0.0,-8.617,-8.6363,-8.8209,-8.9748,-9.0171,-9.2018,-9.3249,-9.2826,-9.3326,-9.321,-9.1941,-9.2941,-9.3518,-9.3133,-9.2287,-9.1441,-9.0556,-8.894,-8.7517,-8.644,-8.6401,-8.6324,-8.6094,-8.6094,-8.6094,-8.6094,-8.5901,-8.5824,-8.5824,-8.5593,-8.5517,-8.5517,-8.5517,-8.5632,-8.5824,-8.5824,-8.594,-8.6094,-8.6094,-8.6094,-8.6094,-8.6094,-8.6094,-8.6094,-8.5901,-8.544,-8.4863,-8.4439,-8.3824,-8.3247,-8.3054,-8.2554,-8.19,-8.1285,-8.1093,-8.1093,-8.1093,-8.1093,-8.09,-8.0015,-7.8669,-7.7323,-7.6245,-7.5322,-7.4476,-7.3668,-7.2822,-7.1937,-7.1052,-6.9552,-6.8385,-6.8385,-6.6436,-6.4589,-6.3743,-6.3281,0.0,0.0,-6.1589,-6.1627,-6.0319,-6.2127,-6.2743,0.0,0.0,0.0,0.0,0.0,-6.4512,-6.7013,-6.9398,-7.1552,-7.3462,-7.413,-7.4938,-7.6015,-7.6861,-7.7707,-7.8515,-7.94,-8.0285,-8.1093,-8.1093,-8.1093,-8.1093,-8.1093,-8.1093,-8.1093,-8.1093,-8.1093,-8.1093,-8.1093,-8.1093,-8.1093,-8.6094,-8.6094,-8.6094,-8.6094,-8.7555,-8.8902,-8.9286,-9.0825,-9.1941,-9.1902,-9.2287,-9.221,-9.1287,-9.2018,-9.2364,-9.1941,-9.1133,-9.0402,-8.994,-8.7979,-8.6594,-8.6132,-8.6094,-8.6094,-8.6094,-8.6094,-8.6094,-8.6094,-8.6094,-8.6094,-8.6094,-8.6094,-8.6094,-8.6094,-8.6094,-8.6094,-8.6094,-8.6094,-8.6094,-8.6094,-8.6094,-8.6094,-8.6094,-8.6094,-8.6094,-8.6094,-8.6094,-8.5824,-8.5401,-8.5016,-8.4593,-8.4132,-8.3708,-8.3285,-8.2824,-8.2362,-8.1708,-8.1093,-8.1093,-8.1093,-8.09,-8.0015,-7.8823,-7.763,-7.6784,-7.5938,-7.5053,-7.4207,-7.3399,-7.2514,-7.1629,-6.9821,-6.8282,-6.7859,-6.6359,-6.4743,-6.3462,-6.3628,0.0,-6.2666,-6.3358,-6.3858,-6.3705,-6.4936,-6.5166,-6.3782,0.0,0.0,-6.5013,-6.6244,-6.7359,-6.8244,-7.036,-7.2322,-7.4053,-7.4899,-7.5745,-7.6592,-7.7438,-7.8284,-7.9131,-8.0015,-8.0669,-8.1093,-8.1093,-8.1093,-8.1093,-8.1093,-8.1093,-8.1093,-8.1093,-8.1093,-8.1093,-8.1093,-8.1093,-8.1093,-8.6094,-8.6094,-8.6094,-8.6094,-8.694,-8.7863,-8.8594,-8.9479,-9.0364,-9.1095,-9.121,-9.121,-9.121,-9.121,-9.121,-9.121,-9.0287,-8.971,-8.971,-8.744,-8.6094,-8.6094,-8.6094,-8.6094,-8.6094,-8.6094,-8.6094,-8.6094,-8.6094,-8.6094,-8.6094,-8.6094,-8.6094,-8.6094,-8.6094,-8.6094,-8.6094,-8.6094,-8.6094,-8.6094,-8.6094,-8.6094,-8.6094,-8.6094,-8.6094,-8.6094,-8.6094,-8.6094,-8.6017,-8.5324,-8.5093,-8.4939,-8.4209,-8.3901,-8.3785,-8.3785,-8.2708,-8.1439,-8.1323,-8.1208,-8.09,-8.0015,-7.9246,-7.8438,-7.7515,-7.6746,-7.5899,-7.4899,-7.4168,-7.3399,-7.236,-7.0244,-6.8282,-6.7244,-6.632,-6.5128,-6.3551,0.0,-6.4666,-6.4782,-6.4897,-6.559,-6.7128,-6.7282,-6.7359,-6.7475,-6.8052,0.0,0.0,-6.9013,-6.9937,-7.0052,-7.1591,-7.3206,-7.4899,-7.563,-7.6438,-7.7323,-7.813,-7.8977,-7.9823,-8.0708,-8.1093,-8.1093,-8.1093,-8.1093,-8.1093,-8.1093,-8.1093,-8.1093,-8.1093,-8.1093,-8.1093,-8.1093,-8.1093,-8.1093,-8.6094,-8.6094,-8.6094,-8.6094,-8.744,-8.8517,-8.8671,-9.0017,-9.1056,-9.1171,-9.121,-9.121,-9.121,-9.121,-9.121,-9.121,-8.9787,-8.8902,-8.8902,-8.7132,-8.6094,-8.6094,-8.6094,-8.6094,-8.6094,-8.6094,-8.6094,-8.6094,-8.6094,-8.6094,-8.6094,-8.6094,-8.6094,-8.6094,-8.6094,-8.6094,-8.6094,-8.6094,-8.6094,-8.6094,-8.6094,-8.6094,-8.6094,-8.6094,-8.6094,-8.6094,-8.6094,-8.6094,-8.6094,-8.5978,-8.5901,-8.5901,-8.5747,-8.5247,-8.4709,-8.4709,-8.3978,-8.3054,-8.2324,-8.1631,-8.09,-8.0015,-7.9708,-7.9208,-7.763,-7.7207,-7.663,-7.5014,-7.4591,-7.4053,-7.2476,-7.0706,-6.8975,-6.7359,-6.582,-6.4436,-6.3435,0.0,-6.4859,-6.559,-6.6282,-6.709,-6.809,-6.8205,-6.8513,-6.9244,-6.8744,-6.8667,-6.9244,-7.0206,-7.1052,-7.1783,-7.2783,-7.4091,-7.5784,-7.5938,-7.6438,-7.7323,-7.813,-7.8977,-7.9823,-8.0708,-8.1093,-8.1093,-8.1093,-8.1093,-8.1093,-8.1093,-8.1093,-8.1093,-8.1093,-8.1093,-8.1093,-8.1093,-8.1093,-8.1093,-8.6094,-8.6094,-8.6094,-8.6094,-8.7286,-8.8325,-8.8632,-9.0133,-9.121,-9.121,-9.121,-9.121,-9.121,-9.121,-9.121,-9.121,-8.9671,-8.8709,-8.8709,-8.7055,-8.6094,-8.6094,-8.6094,-8.6094,-8.6094,-8.6094,-8.6094,-8.6094,-8.6094,-8.6094,-8.6094,-8.6094,-8.6094,-8.6094,-8.6094,-8.6094,-8.6094,-8.6094,-8.6094,-8.6094,-8.6094,-8.6094,-8.6094,-8.6094,-8.6094,-8.6094,-8.6094,-8.6094,-8.6094,-8.6094,-8.6094,-8.6094,-8.6094,-8.5863,-8.5555,-8.5555,-8.4286,-8.2824,-8.2401,-8.1708,-8.1016,-8.0592,-8.0169,-7.9592,-7.8823,-7.7938,-7.7053,-7.6284,-7.5361,-7.4476,-7.3707,-7.1783,-7.009,-6.9283,-6.7359,0.0,0.0,-6.5705,-6.609,-6.6513,-6.7282,-6.8129,-6.9013,-6.909,-6.9283,-6.9667,-7.0167,-7.0437,-7.036,-7.1591,-7.2668,-7.3514,-7.4399,-7.5207,-7.5976,-7.6015,-7.6669,-7.7938,-7.8323,-7.9208,-8.0516,-8.0939,-8.1093,-8.1093,-8.1093,-8.1093,-8.1093,-8.1093,-8.1093,-8.1093,-8.1093,-8.1093,-8.1093,-8.1093,-8.1093,-8.1093,-8.6094,-8.6094,-8.617,-8.6363,-8.7286,-8.8248,-8.8863,-9.0248,-9.121,-9.121,-9.121,-9.121,-9.121,-9.121,-9.121,-9.121,-8.9825,-8.8902,-8.8709,-8.7248,-8.6324,-8.6094,-8.6094,-8.6094,-8.6094,-8.6094,-8.6094,-8.6094,-8.6094,-8.6094,-8.6094,-8.6094,-8.6094,-8.6094,-8.6094,-8.6094,-8.6094,-8.6094,-8.6094,-8.6094,-8.6094,-8.6094,-8.6094,-8.6094,-8.6094,-8.6094,-8.6094,-8.6094,-8.6094,-8.6094,-8.6094,-8.6094,-8.6094,-8.6094,-8.6094,-8.6094,-8.4593,-8.2824,-8.2401,-8.1708,-8.1093,-8.1093,-8.0592,-8.0054,-7.9862,-7.8784,-7.7784,-7.7361,-7.6245,-7.5168,-7.4784,-7.2937,-7.1321,-7.0706,0.0,0.0,0.0,-6.7282,-6.7475,-6.7667,-6.8282,-6.9052,-6.9898,-7.0167,-7.0283,-7.0283,-7.1668,-7.2206,-7.1552,-7.2937,-7.4168,-7.4976,-7.5668,-7.6015,-7.6015,-7.6207,-7.7053,-7.8477,-7.8707,-7.9592,-8.1093,-8.1093,-8.1093,-8.1093,-8.1093,-8.1093,-8.1093,-8.1093,-8.1093,-8.1093,-8.1093,-8.1093,-8.1093,-8.1093,-8.1093,-8.1093,-8.6094,-8.6094,-8.6363,-8.7171,-8.8017,-8.8902,-8.971,-9.0594,-9.121,-9.121,-9.121,-9.121,-9.121,-9.121,-9.121,-9.121,-9.0364,-8.9517,-8.8748,-8.7825,-8.694,-8.6132,-8.6094,-8.6094,-8.6094,-8.6094,-8.6094,-8.6094,-8.6094,-8.6094,-8.6094,-8.6094,-8.6094,-8.6094,-8.6094,-8.6094,-8.6094,-8.6094,-8.6094,-8.6094,-8.6094,-8.6094,-8.6094,-8.6094,-8.6094,-8.6094,-8.6094,-8.6094,-8.6094,-8.6094,-8.6094,-8.6094,-8.6094,-8.6094,-8.6094,-8.6094,-8.544,-8.4362,-8.2747,-8.1708,-8.1093,-8.1093,-8.1054,-8.0785,-7.9977,-7.9708,-7.9169,-7.763,-7.7207,-7.663,-7.5014,-7.3937,-7.2552,-7.0167,0.0,0.0,-6.7321,-6.7782,-6.859,-6.9398,-6.959,-6.9937,-7.0744,-7.1552,-7.2014,-7.2014,-7.2899,-7.3399,-7.3322,-7.413,-7.5014,-7.5861,-7.5976,-7.6015,-7.6015,-7.6784,-7.763,-7.8515,-7.9323,-8.0208,-8.1093,-8.1093,-8.1093,-8.1093,-8.1093,-8.1093,-8.1093,-8.1093,-8.1093,-8.1093,-8.1093,-8.1093,-8.1093,-8.1093,-8.1093,-8.1093,-8.6094,-8.6094,-8.6209,-8.6555,-8.8055,-8.9171,-8.9171,-9.0325,-9.121,-9.121,-9.121,-9.121,-9.121,-9.121,-9.121,-9.121,-8.994,-8.9017,-8.8709,-8.7363,-8.644,-8.6094,-8.6094,-8.6094,-8.6094,-8.6094,-8.6094,-8.6094,-8.6094,-8.6094,-8.6094,-8.6094,-8.6094,-8.6094,-8.6094,-8.6094,-8.6094,-8.6094,-8.6094,-8.6094,-8.6094,-8.6094,-8.6094,-8.6094,-8.6094,-8.6094,-8.6094,-8.6094,-8.6094,-8.6094,-8.6094,-8.6094,-8.6094,-8.6094,-8.6094,-8.6094,-8.5517,-8.4747,-8.4093,-8.2901,-8.1708,-8.1208,-8.1093,-8.1016,-8.0669,-8.0208,-7.9631,-7.8977,-7.8015,-7.7092,-7.6438,-7.5168,-7.4091,-7.3668,0.0,-7.1206,-7.1091,-7.0898,-7.086,-7.1206,-7.1745,-7.2168,-7.2476,-7.2822,-7.3014,-7.3014,-7.3783,-7.4245,-7.4245,-7.5053,-7.5668,-7.5976,-7.6015,-7.6015,-7.6015,-7.6861,-7.7707,-7.8515,-7.9361,-8.0246,-8.1093,-8.1093,-8.1093,-8.1093,-8.1093,-8.1093,-8.1093,-8.1093,-8.1093,-8.1093,-8.1093,-8.1093,-8.1093,-8.1093,-8.1093,-8.1093,-8.6094,-8.6094,-8.6209,-8.6478,-8.7786,-8.8825,-8.8709,-8.9671,-9.0402,-9.0402,-9.0402,-9.0402,-9.0402,-9.0402,-9.0402,-9.0402,-8.9363,-8.8556,-8.8286,-8.6901,-8.6094,-8.6094,-8.6094,-8.6094,-8.6094,-8.6094,-8.6094,-8.6094,-8.6094,-8.6094,-8.6094,-8.6094,-8.6094,-8.6094,-8.6094,-8.6094,-8.6094,-8.6094,-8.6094,-8.6094,-8.6094,-8.6094,-8.6094,-8.6094,-8.6094,-8.6094,-8.6094,-8.6094,-8.6094,-8.6094,-8.6094,-8.6094,-8.6094,-8.6094,-8.6094,-8.6094,-8.5709,-8.5209,-8.4978,-8.4016,-8.2862,-8.1747,-8.1285,-8.1093,-8.1093,-8.0631,-8.0131,-7.9862,-7.89,-7.79,-7.74,-7.6322,-7.5515,-7.5592,-7.413,-7.3091,-7.3437,-7.2976,-7.2591,-7.2591,-7.3129,-7.3514,-7.3514,-7.3745,-7.3899,-7.3899,-7.463,-7.513,-7.513,-7.5668,-7.6015,-7.6015,-7.6015,-7.613,-7.6399,-7.7246,-7.8092,-7.89,-7.9785,-8.0516,-8.1093,-8.1093,-8.1093,-8.1093,-8.1093,-8.1093,-8.1093,-8.1093,-8.1093,-8.1093,-8.1093,-8.1093,-8.1093,-8.1093,-8.1093,-8.1093,-8.6094,-8.6094,-8.6363,-8.7248,-8.7401,-8.7671,-8.8556,-8.8709,-8.8709,-8.8709,-8.8709,-8.8709,-8.8709,-8.8709,-8.8709,-8.8709,-8.8671,-8.8325,-8.744,-8.6594,-8.6094,-8.6094,-8.6094,-8.6094,-8.6094,-8.6094,-8.6094,-8.6094,-8.6094,-8.6094,-8.6094,-8.6094,-8.6094,-8.6094,-8.6094,-8.6094,-8.6094,-8.6094,-8.6094,-8.6094,-8.6094,-8.6094,-8.6094,-8.6094,-8.6094,-8.6094,-8.6094,-8.6094,-8.6094,-8.6094,-8.6094,-8.6094,-8.6094,-8.6094,-8.6094,-8.6094,-8.6094,-8.594,-8.5132,-8.4901,-8.4478,-8.2747,-8.1708,-8.1093,-8.1093,-8.1093,-8.0862,-7.9977,-7.9823,-7.9285,-7.763,-7.7323,-7.6746,-7.5014,-7.4707,-7.4437,-7.363,-7.3514,-7.3514,-7.3514,-7.3514,-7.3514,-7.3514,-7.4245,-7.4707,-7.4707,-7.5515,-7.6015,-7.6015,-7.6015,-7.6015,-7.6015,-7.6015,-7.6438,-7.7323,-7.8092,-7.8938,-7.9823,-8.0669,-8.1093,-8.1093,-8.1093,-8.1093,-8.1093,-8.1093,-8.1093,-8.1093,-8.1093,-8.1093,-8.1093,-8.1093,-8.1093,-8.1093,-8.1093,-8.1093,-8.1093,-8.6094,-8.6094,-8.617,-8.644,-8.6978,-8.7478,-8.7748,-8.8286,-8.8709,-8.8709,-8.8709,-8.8709,-8.8709,-8.8709,-8.8709,-8.8709,-8.8132,-8.7401,-8.6555,-8.6247,-8.6094,-8.6094,-8.6094,-8.6094,-8.6094,-8.6094,-8.6094,-8.6094,-8.6094,-8.6094,-8.6094,-8.6094,-8.6094,-8.6094,-8.6094,-8.6094,-8.6094,-8.6094,-8.6094,-8.6094,-8.6094,-8.6094,-8.6094,-8.6094,-8.6094,-8.6094,-8.6094,-8.6094,-8.6094,-8.6094,-8.6094,-8.6094,-8.6094,-8.6094,-8.6094,-8.6094,-8.6094,-8.6055,-8.5824,-8.5324,-8.4632,-8.3478,-8.2554,-8.1939,-8.1939,-8.1516,-8.1016,-8.0785,-8.0246,-7.9669,-7.9169,-7.8554,-7.7784,-7.6707,-7.6515,-7.6245,-7.5361,-7.5245,-7.5245,-7.5245,-7.5245,-7.5245,-7.5245,-7.5476,-7.563,-7.563,-7.5861,-7.6015,-7.6015,-7.6015,-7.6284,-7.6899,-7.6899,-7.7592,-7.9054,-7.8669,-7.8938,-7.9823,-8.0669,-8.1093,-8.1093,-8.1093,-8.1093,-8.1093,-8.1093,-8.1093,-8.1093,-8.1093,-8.1093,-8.1093,-8.1093,-8.1093,-8.1093,-8.1093,-8.1093,-8.1093,-8.6094,-8.6094,-8.6094,-8.6094,-8.6555,-8.6901,-8.6901,-8.7325,-8.7671,-8.7671,-8.7671,-8.7671,-8.7671,-8.7671,-8.7671,-8.7671,-8.7171,-8.6671,-8.6132,-8.6215,-8.6268,-8.6268,-8.6335,-8.6264,-8.6094,-8.6215,-8.6215,-8.6094,-8.6094,-8.6094,-8.6094,-8.6094,-8.6094,-8.6094,-8.6094,-8.6094,-8.6094,-8.6094,-8.6094,-8.6094,-8.6094,-8.6094,-8.6094,-8.6094,-8.6094,-8.6094,-8.6094,-8.6094,-8.6094,-8.6094,-8.6094,-8.6094,-8.6094,-8.6094,-8.6094,-8.6094,-8.6094,-8.6094,-8.6094,-8.5747,-8.5247,-8.4709,-8.367,-8.2708,-8.2362,-8.19,-8.1477,-8.117,-8.0669,-8.0208,-7.9862,-7.9361,-7.8746,-7.79,-7.7746,-7.7476,-7.663,-7.6515,-7.6399,-7.6053,-7.6015,-7.6015,-7.6015,-7.6015,-7.6015,-7.6015,-7.6015,-7.6015,-7.6015,-7.6322,-7.6746,-7.7284,-7.7592,-7.8438,-7.9785,-7.9285,-7.9438,-8.0323,-8.0862,-8.1093,-8.1093,-8.1093,-8.1093,-8.1093,-8.1093,-8.1093,-8.1093,-8.1093,-8.1093,-8.1093,-8.1093,-8.1093,-8.1093,-8.1093,-8.1093,-8.1093,-8.6094,-8.6094,-8.6094,-8.6094,-8.6094,-8.6094,-8.6094,-8.6094,-8.6094,-8.6094,-8.6094,-8.6094,-8.6094,-8.6094,-8.6094,-8.6094,-8.6094,-8.611,-8.6143,-8.6373,-8.6492,-8.6517,-8.6719,-8.662,-8.6184,-8.6376,-8.6401,-8.6143,-8.611,-8.6094,-8.6094,-8.6094,-8.6094,-8.6094,-8.6094,-8.6094,-8.6094,-8.6094,-8.6094,-8.6094,-8.6094,-8.6094,-8.6094,-8.6094,-8.6094,-8.6094,-8.6094,-8.6094,-8.6094,-8.6094,-8.6094,-8.6094,-8.6094,-8.6094,-8.6094,-8.6094,-8.6094,-8.6094,-8.6094,-8.6094,-8.6094,-8.6094,-8.4939,-8.3593,-8.2747,-8.2401,-8.2093,-8.1362,-8.1131,-8.0862,-8.0054,-7.9939,-7.9631,-7.8746,-7.8631,-7.8323,-7.7515,-7.74,-7.7092,-7.6322,-7.6207,-7.6207,-7.613,-7.6053,-7.6015,-7.6092,-7.613,-7.613,-7.6207,-7.6976,-7.7438,-7.7515,-7.8207,-7.9015,-7.99,-7.9939,-8.0323,-8.1093,-8.1093,-8.1093,-8.1093,-8.1093,-8.1093,-8.1093,-8.1093,-8.1093,-8.1093,-8.1093,-8.1093,-8.1093,-8.1093,-8.1093,-8.1093,-8.1093,-8.1093,-8.1093,-8.6094,-8.6094,-8.6094,-8.6094,-8.6094,-8.6094,-8.6094,-8.6094,-8.6094,-8.6094,-8.6094,-8.6094,-8.6094,-8.6094,-8.6094,-8.6094,-8.6094,-8.62,-8.6389,-8.6481,-8.6549,-8.6729,-8.6943,-8.6897,-8.6661,-8.6537,-8.6481,-8.6403,-8.6215,-8.6094,-8.6094,-8.6094,-8.6094,-8.6094,-8.6094,-8.6094,-8.6094,-8.6094,-8.6094,-8.6094,-8.6094,-8.6094,-8.6094,-8.6094,-8.6094,-8.6094,-8.6094,-8.6094,-8.6094,-8.6094,-8.6094,-8.6094,-8.6094,-8.6094,-8.6094,-8.6094,-8.6094,-8.6094,-8.6094,-8.6094,-8.6094,-8.6094,-8.5824,-8.5324,-8.4516,-8.3285,-8.2247,-8.2093,-8.1554,-8.1054,-8.0862,-8.0823,-8.0516,-7.9669,-7.9515,-7.9208,-7.8361,-7.8246,-7.8169,-7.7977,-7.7938,-7.7707,-7.7092,-7.6399,-7.6284,-7.6976,-7.7015,-7.7284,-7.79,-7.813,-7.8554,-7.9246,-7.9438,-7.9939,-8.0823,-8.0823,-8.09,-8.1093,-8.1093,-8.1093,-8.1093,-8.1093,-8.1093,-8.1093,-8.1093,-8.1093,-8.1093,-8.1093,-8.1093,-8.1093,-8.1093,-8.1093,-8.1093,-8.1093,-8.1093,-8.1093,-8.6094,-8.6094,-8.6094,-8.6094,-8.6094,-8.6094,-8.6094,-8.6094,-8.6094,-8.6094,-8.6094,-8.6094,-8.6094,-8.6094,-8.6094,-8.6094,-8.6246,-8.636,-8.6506,-8.6671,-8.681,-8.6949,-8.7163,-8.717,-8.6962,-8.6756,-8.6594,-8.6519,-8.6223,-8.6094,-8.6094,-8.6094,-8.6094,-8.6094,-8.6094,-8.6094,-8.6094,-8.6094,-8.6094,-8.6094,-8.6094,-8.6094,-8.6094,-8.6094,-8.6094,-8.6094,-8.6094,-8.6094,-8.6094,-8.6094,-8.6094,-8.6094,-8.6094,-8.6094,-8.6094,-8.6094,-8.6094,-8.6094,-8.6094,-8.6094,-8.6094,-8.6094,-8.6094,-8.5901,-8.5093,-8.4209,-8.3285,-8.2477,-8.1977,-8.1554,-8.117,-8.1093,-8.0939,-8.0477,-8.0439,-8.0131,-7.9246,-7.9131,-7.8977,-7.8554,-7.8477,-7.8323,-7.79,-7.7438,-7.7361,-7.7823,-7.7861,-7.8054,-7.8477,-7.89,-7.9323,-7.9785,-8.0208,-8.0631,-8.1093,-8.1093,-8.1093,-8.1093,-8.1093,-8.1093,-8.1093,-8.1093,-8.1093,-8.1093,-8.1093,-8.1093,-8.1093,-8.1093,-8.1093,-8.1093,-8.1093,-8.1093,-8.1093,-8.1093,-8.1093,-8.1093,-8.6094,-8.6094,-8.6094,-8.6094,-8.6094,-8.6094,-8.6094,-8.6094,-8.6094,-8.6094,-8.6094,-8.6094,-8.6094,-8.6094,-8.6094,-8.6094,-8.6288,-8.6481,-8.6553,-8.681,-8.7019,-8.7104,-8.7277,-8.7275,-8.7039,-8.6833,-8.6651,-8.6519,-8.6223,-8.6094,-8.6094,-8.6094,-8.6094,-8.6094,-8.6094,-8.6094,-8.6094,-8.6094,-8.6094,-8.6094,-8.6094,-8.6094,-8.6094,-8.6094,-8.6094,-8.6094,-8.6094,-8.6094,-8.6094,-8.6094,-8.6094,-8.6094,-8.6094,-8.6094,-8.6094,-8.6094,-8.6094,-8.6094,-8.6094,-8.6094,-8.6094,-8.6094,-8.6094,-8.594,-8.5247,-8.5016,-8.4478,-8.3054,-8.2631,-8.2285,-8.1477,-8.1323,-8.1246,-8.1131,-8.1093,-8.0862,-8.0131,-8.0015,-7.9746,-7.9015,-7.8823,-7.8707,-7.8707,-7.8592,-7.8554,-7.8707,-7.8707,-7.8784,-7.8938,-7.9631,-8.0015,-8.0015,-8.0708,-8.1093,-8.1093,-8.1093,-8.1093,-8.1093,-8.1093,-8.1093,-8.1093,-8.1093,-8.1093,-8.1093,-8.1093,-8.1093,-8.1093,-8.1093,-8.1093,-8.1093,-8.1093,-8.1093,-8.1093,-8.1093,-8.1093,-8.1093,-8.6094,-8.6094,-8.6094,-8.6094,-8.6094,-8.6094,-8.6094,-8.6094,-8.6094,-8.6094,-8.6094,-8.6094,-8.6094,-8.6094,-8.6094,-8.6094,-8.6143,-8.6321,-8.6738,-8.6669,-8.6738,-8.7096,-8.6968,-8.6887,-8.6818,-8.6659,-8.6529,-8.6519,-8.6223,-8.6094,-8.6094,-8.6094,-8.6094,-8.6094,-8.6094,-8.6094,-8.6094,-8.6094,-8.6094,-8.6094,-8.6094,-8.6094,-8.6094,-8.6094,-8.6094,-8.6094,-8.6094,-8.6094,-8.6094,-8.6094,-8.6094,-8.6094,-8.6094,-8.6094,-8.6094,-8.6094,-8.6094,-8.6094,-8.6094,-8.6094,-8.6094,-8.6094,-8.6094,-8.6055,-8.5978,-8.5401,-8.4824,-8.4593,-8.3939,-8.317,-8.2285,-8.2131,-8.19,-8.1208,-8.1093,-8.1054,-8.0939,-8.0939,-8.0862,-8.0746,-8.0092,-7.9631,-7.9631,-7.8938,-7.8823,-7.9592,-7.9631,-7.9939,-8.0708,-8.0862,-8.0939,-8.0939,-8.1054,-8.1093,-8.1093,-8.1093,-8.1093,-8.1093,-8.1093,-8.1093,-8.1093,-8.1093,-8.1093,-8.1093,-8.1093,-8.1093,-8.1093,-8.1093,-8.1093,-8.1093,-8.1093,-8.1093,-8.1093,-8.1093,-8.1093,-8.1093,-8.6094,-8.6094,-8.6094,-8.6094,-8.6094,-8.6094,-8.6094,-8.6094,-8.6094,-8.6094,-8.6094,-8.6094,-8.6094,-8.6094,-8.6094,-8.6094,-8.6238,-8.6416,-8.6627,-8.663,-8.6756,-8.6904,-8.6864,-8.6756,-8.6648,-8.6553,-8.6416,-8.6298,-8.6153,-8.6094,-8.6094,-8.6094,-8.6184,-8.6317,-8.6317,-8.6389,-8.6478,-8.6376,-8.6317,-8.6303,-8.6153,-8.6094,-8.6094,-8.6094,-8.6094,-8.6094,-8.6094,-8.6094,-8.6094,-8.6094,-8.6094,-8.6094,-8.6094,-8.6094,-8.6094,-8.6094,-8.6094,-8.6094,-8.6094,-8.6094,-8.6094,-8.6094,-8.6094,-8.6094,-8.6094,-8.5824,-8.544,-8.4978,-8.4593,-8.4055,-8.317,-8.2631,-8.217,-8.1823,-8.14,-8.1093,-8.1093,-8.1093,-8.1093,-8.1093,-8.0746,-8.0516,-8.0516,-8.0169,-8.0092,-8.0516,-8.0516,-8.0708,-8.1093,-8.1093,-8.1093,-8.1093,-8.1093,-8.1093,-8.1093,-8.1093,-8.1093,-8.1093,-8.1093,-8.1093,-8.1093,-8.1093,-8.1093,-8.1093,-8.1093,-8.1093,-8.1093,-8.1093,-8.1093,-8.1093,-8.1093,-8.1093,-8.1093,-8.1093,-8.1093,-8.1093]},{"header":{"parameterUnit":"m.s-1","parameterCategory":1,"la1":30.6,"la2":28.766,"lo1":-90.7593,"lo2":-88.6598,"dy":0.0162,"dx":0.0183,"nx":116,"ny":114,"refTime":"2024-05-27T06:00:00:Z","depth":0,"parameterNumber":3,"parameterNumberName":"V-component_of_WINDS"},"data":[0.0,0.0,0.0,0.0,0.0,0.0,0.0,0.0,0.0,0.0,0.0,0.0,0.0,0.0,0.0,0.0,0.0,0.0,0.0,0.0,0.0,0.0,0.0,0.0,0.0,0.0,0.0,0.0,0.0,0.0,0.0,0.0,0.0,0.0,0.0,0.0,0.0,0.0,0.0,0.0,0.0,0.0,0.0,0.0,0.0,0.0,0.0,0.0,0.0,0.0,0.0,0.0,0.0,0.0,0.0,0.0,0.0,0.0,0.0,0.0,0.0,0.0,0.0,0.0,0.0,0.0,0.0,0.0,0.0,0.0,0.0,0.0,0.0,0.0,0.0,0.0,0.0,0.0,0.0,0.0,0.0,0.0,0.0,0.0,0.0,0.0,0.0,0.0,0.0,0.0,0.0,0.0,0.0,0.0,0.0,0.0,0.0,0.0,0.0,0.0,0.0,0.0,0.0,0.0,0.0,0.0,0.0,0.0,0.0,0.0,0.0,0.0,0.0,0.0,0.0,0.0,0.0,0.0,0.0,0.0,0.0,0.0,0.0,0.0,0.0,0.0,0.0,0.0,0.0,0.0,0.0,0.0,0.0,0.0,0.0,0.0,0.0,0.0,0.0,0.0,0.0,0.0,0.0,0.0,0.0,0.0,0.0,0.0,0.0,0.0,0.0,0.0,0.0,0.0,0.0,0.0,0.0,0.0,0.0,0.0,0.0,0.0,0.0,0.0,0.0,0.0,0.0,0.0,0.0,0.0,0.0,0.0,0.0,0.0,0.0,0.0,0.0,0.0,0.0,0.0,0.0,0.0,0.0,0.0,0.0,0.0,0.0,0.0,0.0,0.0,0.0,0.0,0.0,0.0,0.0,0.0,0.0,0.0,0.0,0.0,0.0,0.0,0.0,0.0,0.0,0.0,0.0,0.0,0.0,0.0,0.0,0.0,0.0,0.0,0.0,0.0,0.0,0.0,0.0,0.0,0.0,0.0,0.0,0.0,0.0,0.0,0.0,0.0,0.0,0.0,0.0,0.0,0.0,0.0,0.0,0.0,0.0,0.0,0.0,0.0,0.0,0.0,0.0,0.0,0.0,0.0,0.0,0.0,0.0,0.0,0.0,0.0,0.0,0.0,0.0,0.0,0.0,0.0,0.0,0.0,0.0,0.0,0.0,0.0,0.0,0.0,0.0,0.0,0.0,0.0,0.0,0.0,0.0,0.0,0.0,0.0,0.0,0.0,0.0,0.0,0.0,0.0,0.0,0.0,0.0,0.0,0.0,0.0,0.0,0.0,0.0,0.0,0.0,0.0,0.0,0.0,0.0,0.0,0.0,0.0,0.0,0.0,0.0,0.0,0.0,0.0,0.0,0.0,0.0,0.0,0.0,0.0,0.0,0.0,0.0,0.0,0.0,0.0,0.0,0.0,0.0,0.0,0.0,0.0,0.0,0.0,0.0,0.0,0.0,0.0,0.0,0.0,0.0,0.0,0.0,0.0,0.0,0.0,0.0,0.0,0.0,0.0,0.0,0.0,0.0,0.0,0.0,0.0,0.0,0.0,0.0,0.0,0.0,0.0,0.0,0.0,0.0,0.0,0.0,0.0,0.0,0.0,0.0,0.0,0.0,0.0,0.0,0.0,0.0,0.0,0.0,0.0,0.0,0.0,0.0,0.0,0.0,0.0,0.0,0.0,0.0,0.0,0.0,0.0,0.0,0.0,0.0,0.0,0.0,0.0,0.0,0.0,0.0,0.0,0.0,0.0,0.0,0.0,0.0,0.0,0.0,0.0,0.0,0.0,0.0,0.0,0.0,0.0,0.0,0.0,0.0,0.0,0.0,0.0,0.0,0.0,0.0,0.0,0.0,0.0,0.0,0.0,0.0,0.0,0.0,0.0,0.0,0.0,0.0,0.0,0.0,0.0,0.0,0.0,0.0,0.0,0.0,0.0,0.0,0.0,0.0,0.0,0.0,0.0,0.0,0.0,0.0,0.0,0.0,0.0,0.0,0.0,0.0,0.0,0.0,0.0,0.0,0.0,0.0,0.0,0.0,0.0,0.0,0.0,0.0,0.0,0.0,0.0,0.0,0.0,0.0,0.0,0.0,0.0,0.0,0.0,0.0,0.0,0.0,0.0,0.0,0.0,0.0,0.0,0.0,0.0,0.0,0.0,0.0,0.0,0.0,0.0,0.0,0.0,0.0,0.0,0.0,0.0,0.0,0.0,0.0,0.0,0.0,0.0,0.0,0.0,0.0,0.0,0.0,0.0,0.0,0.0,0.0,0.0,0.0,0.0,0.0,0.0,0.0,0.0,0.0,0.0,0.0,0.0,0.0,0.0,0.0,0.0,0.0,0.0,0.0,0.0,0.0,0.0,0.0,0.0,0.0,0.0,0.0,0.0,0.0,0.0,0.0,0.0,0.0,0.0,0.0,0.0,0.0,0.0,0.0,0.0,0.0,0.0,0.0,0.0,0.0,0.0,0.0,0.0,0.0,0.0,0.0,0.0,0.0,0.0,0.0,0.0,0.0,0.0,0.0,0.0,0.0,0.0,0.0,0.0,0.0,0.0,0.0,0.0,0.0,0.0,0.0,0.0,0.0,0.0,0.0,0.0,0.0,0.0,0.0,0.0,0.0,0.0,0.0,0.0,0.0,0.0,0.0,0.0,0.0,0.0,0.0,0.0,0.0,0.0,0.0,0.0,0.0,0.0,0.0,0.0,0.0,0.0,0.0,0.0,0.0,0.0,0.0,0.0,0.0,0.0,0.0,0.0,0.0,0.0,0.0,0.0,0.0,0.0,0.0,0.0,0.0,0.0,0.0,0.0,0.0,0.0,0.0,0.0,0.0,0.0,0.0,0.0,0.0,0.0,0.0,0.0,0.0,0.0,0.0,0.0,0.0,0.0,0.0,0.0,0.0,0.0,0.0,0.0,0.0,0.0,0.0,0.0,0.0,0.0,0.0,0.0,0.0,0.0,0.0,0.0,0.0,0.0,0.0,0.0,0.0,0.0,0.0,0.0,0.0,0.0,0.0,0.0,0.0,0.0,0.0,0.0,0.0,0.0,0.0,0.0,0.0,0.0,0.0,0.0,0.0,0.0,0.0,0.0,0.0,0.0,0.0,0.0,0.0,0.0,0.0,0.0,0.0,0.0,0.0,0.0,0.0,0.0,0.0,0.0,0.0,0.0,0.0,0.0,0.0,0.0,0.0,0.0,0.0,0.0,0.0,0.0,0.0,0.0,0.0,0.0,0.0,0.0,0.0,0.0,0.0,0.0,0.0,0.0,0.0,0.0,0.0,0.0,0.0,0.0,0.0,0.0,0.0,0.0,0.0,0.0,0.0,0.0,0.0,0.0,0.0,0.0,0.0,0.0,0.0,0.0,0.0,0.0,0.0,0.0,0.0,0.0,0.0,0.0,0.0,0.0,0.0,0.0,0.0,0.0,0.0,0.0,0.0,0.0,0.0,0.0,0.0,0.0,0.0,0.0,0.0,0.0,0.0,0.0,0.0,0.0,0.0,0.0,0.0,0.0,0.0,0.0,0.0,0.0,0.0,0.0,0.0,0.0,0.0,0.0,0.0,0.0,0.0,0.0,0.0,0.0,0.0,0.0,0.0,0.0,0.0,0.0,0.0,0.0,0.0,0.0,0.0,0.0,0.0,0.0,0.0,0.0,0.0,0.0,0.0,0.0,0.0,0.0,0.0,0.0,0.0,0.0,0.0,0.0,0.0,0.0,0.0,0.0,0.0,0.0,0.0,0.0,0.0,0.0,0.0,0.0,0.0,0.0,0.0,0.0,0.0,0.0,0.0,0.0,0.0,0.0,0.0,0.0,0.0,0.0,0.0,0.0,0.0,0.0,0.0,0.0,0.0,0.0,0.0,0.0,0.0,0.0,0.0,0.0,0.0,0.0,0.0,0.0,0.0,0.0,0.0,0.0,0.0,0.0,0.0,0.0,0.0,0.0,0.0,0.0,0.0,0.0,0.0,0.0,0.0,0.0,0.0,0.0,0.0,0.0,0.0,0.0,0.0,0.0,0.0,0.0,0.0,0.0,0.0,0.0,0.0,0.0,0.0,0.0,0.0,0.0,0.0,0.0,0.0,0.0,0.0,0.0,0.0,0.0,0.0,0.0,0.0,0.0,0.0,0.0,0.0,0.0,0.0,0.0,0.0,0.0,0.0,0.0,0.0,0.0,0.0,0.0,0.0,0.0,0.0,0.0,0.0,0.0,0.0,0.0,0.0,0.0,0.0,0.0,0.0,0.0,0.0,0.0,0.0,0.0,0.0,0.0,0.0,0.0,0.0,0.0,0.0,0.0,0.0,0.0,0.0,0.0,0.0,0.0,0.0,0.0,0.0,0.0,0.0,0.0,0.0,0.0,0.0,0.0,0.0,0.0,0.0,0.0,0.0,0.0,0.0,0.0,0.0,0.0,0.0,0.0,0.0,0.0,0.0,0.0,0.0,0.0,0.0,0.0,0.0,0.0,0.0,0.0,0.0,0.0,0.0,0.0,0.0,0.0,0.0,0.0,0.0,0.0,0.0,0.0,0.0,0.0,0.0,0.0,0.0,0.0,0.0,0.0,0.0,0.0,0.0,0.0,0.0,0.0,0.0,0.0,0.0,0.0,0.0,0.0,0.0,0.0,0.0,0.0,0.0,0.0,0.0,0.0,0.0,0.0,0.0,0.0,0.0,0.0,0.0,0.0,0.0,0.0,0.0,0.0,0.0,0.0,0.0,0.0,0.0,0.0,0.0,0.0,0.0,0.0,0.0,0.0,0.0,0.0,0.0,0.0,0.0,0.0,0.0,0.0,0.0,0.0,0.0,0.0,0.0,0.0,0.0,0.0,0.0,0.0,0.0,0.0,0.0,0.0,0.0,0.0,0.0,0.0,0.0,0.0,0.0,0.0,0.0,0.0,0.0,0.0,0.0,0.0,0.0,0.0,0.0,0.0,0.0,0.0,0.0,0.0,0.0,0.0,0.0,0.0,0.0,0.0,0.0,0.0,0.0,0.0,0.0,0.0,0.0,0.0,0.0,0.0,0.0,0.0,0.0,0.0,0.0,0.0,0.0,0.0,0.0,0.0,0.0,0.0,0.0,0.0,0.0,0.0,0.0,0.0,0.0,0.0,0.0,0.0,0.0,0.0,0.0,0.0,0.0,0.0,0.0,0.0,0.0,0.0,0.0,0.0,0.0,0.0,0.0,0.0,0.0,0.0,0.0,0.0,0.0,0.0,0.0,0.0,0.0,0.0,0.0,0.0,0.0,0.0,0.0,0.0,0.0,0.0,0.0,0.0,0.0,0.0,0.0,0.0,0.0,0.0,0.0,0.0,0.0,0.0,0.0,0.0,0.0,0.0,0.0,0.0,0.0,0.0,0.0,0.0,0.0,0.0,0.0,0.0,0.0,0.0,0.0,0.0,0.0,0.0,0.0,0.0,0.0,0.0,0.0,0.0,0.0,0.0,0.0,0.0,0.0,0.0,0.0,0.0,0.0,0.0,0.0,0.0,0.0,0.0,0.0,0.0,0.0,0.0,0.0,0.0,0.0,0.0,0.0,0.0,0.0,0.0,0.0,0.0,0.0,0.0,0.0,0.0,0.0,0.0,0.0,0.0,0.0,0.0,0.0,0.0,0.0,0.0,0.0,0.0,0.0,0.0,0.0,0.0,0.0,0.0,0.0,0.0,0.0,0.0,0.0,0.0,0.0,0.0,0.0,0.0,0.0,0.0,0.0,0.0,0.0,0.0,0.0,0.0,0.0,0.0,0.0,0.0,0.0,0.0,0.0,0.0,0.0,0.0,0.0,0.0,0.0,0.0,0.0,0.0,0.0,0.0,0.0,0.0,0.0,0.0,0.0,0.0,0.0,0.0,0.0,0.0,0.0,0.0,0.0,0.0,0.0,0.0,0.0,0.0,0.0,0.0,0.0,0.0,0.0,0.0,0.0,0.0,0.0,0.0,0.0,0.0,0.0,0.0,0.0,0.0,0.0,0.0,0.0,0.0,0.0,0.0,0.0,0.0,0.0,0.0,0.0,0.0,0.0,0.0,0.0,0.0,0.0,0.0,0.0,0.0,0.0,0.0,0.0,0.0,0.0,0.0,0.0,0.0,-2.2062,0.0,0.0,0.0,0.0,0.0,0.0,0.0,0.0,0.0,0.0,0.0,0.0,0.0,0.0,0.0,0.0,0.0,0.0,0.0,0.0,0.0,0.0,0.0,0.0,-1.0768,-1.1383,-1.1775,-1.1984,-1.2181,-1.2315,0.0,0.0,0.0,0.0,0.0,-1.1389,-1.157,-1.1784,-1.2064,-1.2799,-1.3587,-1.4416,-1.4108,-1.336,-1.2241,0.0,0.0,0.0,0.0,0.0,0.0,0.0,0.0,0.0,0.0,0.0,0.0,0.0,0.0,0.0,0.0,0.0,0.0,0.0,0.0,0.0,0.0,0.0,0.0,0.0,0.0,0.0,0.0,0.0,0.0,0.0,0.0,0.0,0.0,0.0,0.0,0.0,0.0,0.0,0.0,0.0,0.0,0.0,0.0,0.0,0.0,0.0,0.0,0.0,0.0,0.0,0.0,0.0,0.0,0.0,0.0,0.0,0.0,0.0,0.0,0.0,0.0,0.0,0.0,0.0,0.0,0.0,0.0,0.0,0.0,0.0,-2.4386,0.0,0.0,0.0,0.0,0.0,0.0,0.0,0.0,0.0,0.0,0.0,0.0,0.0,0.0,0.0,0.0,0.0,0.0,0.0,0.0,0.0,-0.9833,-1.0221,-1.0976,-1.1784,-1.2478,-1.2492,-1.2559,-1.2851,-1.2583,0.0,0.0,0.0,-1.185,-1.1663,-1.1944,-1.2449,-1.3092,-1.4258,-1.5618,-1.7248,-1.7301,-1.6286,-1.4416,-1.3948,0.0,0.0,0.0,0.0,0.0,0.0,0.0,0.0,0.0,0.0,0.0,0.0,0.0,0.0,0.0,0.0,0.0,0.0,0.0,0.0,0.0,0.0,0.0,0.0,0.0,0.0,0.0,0.0,0.0,0.0,0.0,0.0,0.0,0.0,0.0,0.0,0.0,0.0,0.0,0.0,0.0,0.0,0.0,0.0,0.0,0.0,0.0,0.0,0.0,0.0,0.0,0.0,0.0,0.0,0.0,0.0,0.0,0.0,0.0,0.0,0.0,0.0,0.0,0.0,-2.9624,-3.0234,-3.0124,-3.0567,-3.1195,-2.9257,-2.789,-2.7048,0.0,0.0,0.0,0.0,0.0,0.0,0.0,0.0,0.0,0.0,0.0,0.0,0.0,0.0,0.0,0.0,0.0,0.0,0.0,0.0,-0.9993,-1.0782,-1.1436,-1.2265,-1.3333,-1.324,-1.3106,-1.3146,-1.2904,0.0,0.0,-1.2251,-1.2345,-1.261,-1.2879,-1.344,-1.4282,-1.6446,-1.8143,-1.9399,-1.9653,-1.9541,-1.9212,-1.6901,-1.5866,-1.5645,0.0,0.0,0.0,0.0,0.0,0.0,0.0,0.0,0.0,0.0,0.0,0.0,0.0,0.0,0.0,0.0,0.0,0.0,0.0,0.0,0.0,0.0,0.0,0.0,0.0,0.0,0.0,0.0,0.0,0.0,0.0,0.0,0.0,0.0,0.0,0.0,0.0,0.0,0.0,0.0,0.0,-1.7876,-1.9185,0.0,0.0,0.0,0.0,0.0,0.0,0.0,0.0,0.0,0.0,0.0,0.0,0.0,0.0,-2.6854,-2.8511,-2.9379,-2.9472,-3.1437,-3.2394,-3.2232,-3.2489,-3.2568,-3.2746,-3.2123,0.0,-2.99,-2.851,0.0,0.0,0.0,0.0,0.0,0.0,0.0,0.0,0.0,0.0,0.0,0.0,0.0,0.0,0.0,0.0,0.0,0.0,0.0,0.0,0.0,-1.2502,-1.352,-1.4536,-1.4963,-1.4897,-1.4242,-1.3908,-1.3387,-1.2623,-1.2385,-1.2518,-1.2999,-1.3467,-1.479,-1.6994,-1.9011,-2.0521,-2.1523,-2.1657,-2.1804,-2.1911,-2.0401,-1.8905,-1.7422,-1.5979,0.0,0.0,0.0,0.0,0.0,0.0,0.0,0.0,0.0,0.0,0.0,0.0,0.0,0.0,0.0,0.0,0.0,0.0,0.0,0.0,0.0,0.0,0.0,0.0,0.0,0.0,0.0,0.0,0.0,0.0,0.0,0.0,0.0,0.0,0.0,0.0,0.0,0.0,0.0,-1.7301,-1.9158,-1.9519,-1.98,-1.9639,0.0,0.0,0.0,0.0,0.0,0.0,0.0,0.0,0.0,-2.7014,-2.7949,-2.8938,-2.998,-3.1249,-3.1984,-3.2158,-3.3066,-3.3507,-3.3547,-3.3681,-3.3734,-3.3721,-3.3427,-3.2938,-3.2117,-3.0881,-2.9434,-2.7841,0.0,0.0,0.0,0.0,0.0,-2.5669,0.0,0.0,0.0,0.0,0.0,0.0,0.0,0.0,0.0,0.0,0.0,0.0,-1.2184,-1.344,-1.4643,-1.5752,-1.6366,-1.6313,-1.541,-1.4816,-1.4055,-1.3065,-1.2612,-1.2705,-1.3307,-1.4563,-1.6647,-1.9599,-2.1216,-2.2418,-2.3207,-2.3287,-2.3434,-2.3634,-2.3113,-2.1617,-1.9399,-1.7983,-1.638,-1.4585,0.0,0.0,0.0,0.0,0.0,0.0,0.0,0.0,0.0,0.0,0.0,0.0,0.0,0.0,0.0,0.0,0.0,0.0,0.0,0.0,0.0,0.0,0.0,0.0,0.0,0.0,0.0,0.0,0.0,0.0,0.0,0.0,0.0,0.0,0.0,0.0,0.0,-1.8931,-2.0414,-2.0341,-2.143,-2.1657,0.0,0.0,0.0,0.0,0.0,0.0,-2.6026,-2.7068,-2.8243,-2.9579,-3.0688,-3.1677,-3.2545,-3.3293,-3.3774,-3.4002,-3.4082,-3.4229,-3.4429,-3.4429,-3.4429,-3.4416,-3.4122,-3.3814,-3.3447,-3.2343,-3.0659,-2.8843,-2.8639,-2.7462,-2.5972,-2.6841,-2.7575,-2.8525,0.0,0.0,0.0,0.0,0.0,0.0,0.0,0.0,0.0,0.0,0.0,-1.161,-1.332,-1.4079,-1.519,-1.6965,-1.6847,-1.6567,-1.6281,-1.515,-1.4199,-1.3586,-1.3079,-1.3038,-1.3573,-1.6673,-1.9305,-2.148,-2.2645,-2.3541,-2.4142,-2.4422,-2.4556,-2.4556,-2.4249,-2.3407,-2.2084,-2.008,-1.8691,-1.7543,-1.5017,0.0,0.0,0.0,0.0,0.0,0.0,0.0,0.0,0.0,0.0,0.0,0.0,0.0,0.0,0.0,0.0,0.0,0.0,0.0,0.0,0.0,0.0,0.0,0.0,0.0,0.0,0.0,0.0,0.0,0.0,0.0,0.0,0.0,0.0,0.0,0.0,0.0,0.0,-2.2727,-2.4222,0.0,0.0,0.0,0.0,-2.4863,-2.6239,-2.7589,-2.8778,-3.0207,-3.1396,-3.2415,-3.324,-3.3734,-3.3801,-3.4122,-3.4282,-3.4295,-3.4589,-3.4723,-3.4736,-3.4736,-3.4736,-3.4723,-3.4429,-3.4135,-3.3748,-3.2294,-3.1289,-3.0541,-2.9427,-2.8596,-2.8087,-2.814,-2.8315,-2.8556,0.0,0.0,0.0,0.0,0.0,-0.8804,-0.8804,-0.9031,-0.9324,-0.9646,-1.1136,-1.2623,-1.3801,-1.5631,-1.7181,-1.8196,-1.8704,-1.8611,-1.7756,-1.6406,-1.5551,-1.5351,-1.4271,-1.4603,-1.6714,-1.9011,-2.0909,-2.2459,-2.3407,-2.4088,-2.4489,-2.4596,-2.4636,-2.4636,-2.4529,-2.4142,-2.346,-2.1764,-2.0214,-1.8731,-1.6871,-1.4995,0.0,0.0,0.0,0.0,0.0,0.0,0.0,0.0,0.0,0.0,0.0,0.0,0.0,0.0,0.0,0.0,0.0,0.0,0.0,0.0,0.0,0.0,0.0,0.0,0.0,0.0,0.0,0.0,0.0,0.0,0.0,0.0,0.0,0.0,0.0,0.0,0.0,-2.4529,-2.6132,0.0,0.0,-2.6092,-2.6894,-2.7575,-2.8818,-3.0047,-3.1236,-3.2144,-3.2866,-3.34,-3.4082,-3.4456,-3.4456,-3.4736,-3.4883,-3.4883,-3.499,-3.5044,-3.5044,-3.5044,-3.5044,-3.503,-3.4723,-3.4549,-3.4362,-3.3253,-3.2559,-3.2118,-3.1316,-3.0768,-3.0394,-3.0194,-3.0074,-3.002,0.0,0.0,0.0,0.0,-0.8804,-0.8804,-0.8804,-0.9138,-0.9577,-1.0194,-1.1891,-1.3574,-1.483,-1.6887,-1.845,-1.9158,-1.9746,-1.9679,-1.8704,-1.7248,-1.6326,-1.6126,-1.5378,-1.6313,-1.9158,-2.0655,-2.2031,-2.3313,-2.4008,-2.4449,-2.4636,-2.4636,-2.4636,-2.4636,-2.4636,-2.4529,-2.4275,-2.3193,-2.183,-2.0267,-1.8733,-1.7099,-1.5404,0.0,0.0,0.0,0.0,0.0,0.0,0.0,0.0,0.0,0.0,0.0,0.0,0.0,0.0,0.0,0.0,0.0,0.0,0.0,0.0,0.0,0.0,0.0,0.0,0.0,0.0,0.0,0.0,0.0,0.0,0.0,0.0,0.0,0.0,0.0,-2.5598,-2.5785,-2.7722,-2.8577,-2.7402,-2.835,-2.9325,-3.002,-3.1076,-3.2024,-3.2799,-3.3494,-3.3961,-3.4175,-3.475,-3.5057,-3.5057,-3.5351,-3.5444,-3.5338,-3.5338,-3.5284,-3.5191,-3.5191,-3.5191,-3.5191,-3.499,-3.4843,-3.4696,-3.3895,-3.34,-3.3066,-3.2372,-3.1984,-3.177,-3.137,-3.0982,-3.0635,0.0,0.0,0.0,-0.8804,-0.8804,-0.8804,-0.8804,-0.9312,-1.01,-1.1229,-1.2694,-1.4412,-1.6473,-1.7796,-1.8878,-1.9733,-1.98,-1.9546,-1.8958,-1.7528,-1.646,-1.5864,-1.65,-1.8063,-2.0681,-2.159,-2.2752,-2.4222,-2.4502,-2.4636,-2.4636,-2.4636,-2.4636,-2.4636,-2.4636,-2.4636,-2.4549,-2.4342,-2.3541,-2.2325,-2.0575,-1.9332,-1.8277,0.0,0.0,0.0,0.0,0.0,0.0,0.0,0.0,0.0,0.0,0.0,0.0,0.0,0.0,0.0,0.0,0.0,0.0,0.0,0.0,0.0,0.0,0.0,0.0,0.0,0.0,0.0,0.0,0.0,0.0,0.0,0.0,0.0,-2.3407,-2.5184,-2.6493,-2.652,-2.9072,-3.0381,-2.9245,-3.0688,-3.1824,-3.2118,-3.2946,-3.344,-3.3454,-3.4282,-3.4763,-3.4776,-3.5324,-3.5631,-3.5631,-3.5925,-3.5925,-3.5645,-3.5631,-3.5485,-3.5204,-3.5204,-3.5191,-3.5191,-3.5191,-3.5044,-3.4736,-3.4148,-3.3721,-3.3374,-3.2452,-3.2104,-3.2038,-3.1436,-3.0862,-3.0314,0.0,0.0,-0.8804,-0.8804,-0.8804,-0.8804,-0.8804,-0.9312,-1.0033,-1.0982,-1.3146,-1.5057,-1.6259,-1.821,-1.9533,-1.9773,-1.98,-1.9546,-1.8958,-1.7528,-1.682,-1.7088,-1.8891,-2.0641,-2.2231,-2.2926,-2.3688,-2.4516,-2.4596,-2.4636,-2.4636,-2.4636,-2.4636,-2.4636,-2.4636,-2.4636,-2.4636,-2.4556,-2.4209,-2.3581,-2.2017,-2.0601,-1.9279,0.0,0.0,0.0,0.0,0.0,0.0,0.0,0.0,0.0,0.0,0.0,0.0,0.0,0.0,0.0,0.0,0.0,0.0,0.0,0.0,0.0,0.0,0.0,0.0,0.0,0.0,0.0,0.0,0.0,0.0,0.0,0.0,-2.4983,-2.5197,-2.7188,-2.8871,-2.9513,-3.0862,-3.161,-3.1289,-3.1891,-3.2519,-3.3013,-3.328,-3.3708,-3.4362,-3.4629,-3.4857,-3.507,-3.5431,-3.5631,-3.5631,-3.5925,-3.6032,-3.5952,-3.5738,-3.5591,-3.5498,-3.5297,-3.5191,-3.5191,-3.5191,-3.5151,-3.503,-3.4442,-3.4028,-3.3654,-3.2545,-3.2104,-3.2038,-3.1436,-3.0862,-3.0314,0.0,-0.8804,-0.8804,-0.8804,-0.8804,-0.8804,-0.8804,-0.9312,-1.0127,-1.1383,-1.3574,-1.5477,-1.6737,-1.8597,-1.98,-1.98,-1.98,-1.9492,-1.8784,-1.7822,-1.7756,-1.8824,-2.0428,-2.1911,-2.3289,-2.3714,-2.4182,-2.4636,-2.4636,-2.4636,-2.4636,-2.4636,-2.4636,-2.4636,-2.4636,-2.4636,-2.4636,-2.4636,-2.4476,-2.4115,-2.3126,-2.2071,-2.0922,-1.9506,-1.8531,-1.7796,-1.6794,-1.6313,-1.6067,-1.5303,0.0,0.0,0.0,0.0,0.0,0.0,0.0,0.0,0.0,0.0,0.0,0.0,0.0,0.0,0.0,0.0,0.0,0.0,0.0,0.0,0.0,0.0,0.0,0.0,-2.5077,-2.7001,-2.7535,-2.8911,-3.0127,-3.0889,-3.1637,-3.2144,-3.2278,-3.2559,-3.2973,-3.3561,-3.3721,-3.4082,-3.4723,-3.4883,-3.5084,-3.5364,-3.5658,-3.5872,-3.5992,-3.6286,-3.638,-3.6259,-3.6086,-3.5872,-3.5618,-3.5458,-3.5311,0.0,-3.5191,-3.5191,-3.5137,-3.4429,-3.3961,0.0,0.0,0.0,0.0,0.0,-3.0929,-3.0501,0.0,-0.8804,-0.8804,-0.8804,-0.8804,-0.8804,-0.8804,-0.9312,-1.0345,-1.2078,-1.3896,-1.5665,-1.7341,-1.8865,-1.9733,-1.9706,-1.9706,-1.9372,-1.8597,-1.8317,-1.8971,-2.0695,-2.1467,-2.2472,-2.3794,-2.4102,-2.4382,-2.4636,-2.4636,-2.4636,-2.4636,-2.4636,-2.4636,-2.4636,-2.4636,-2.4636,-2.4636,-2.4636,-2.4449,-2.4128,-2.3875,-2.3407,-2.2753,-2.1056,-2.0414,-2.0227,-1.9092,-1.821,-1.7554,-1.6938,0.0,0.0,0.0,0.0,0.0,0.0,0.0,0.0,0.0,0.0,0.0,0.0,0.0,0.0,0.0,0.0,0.0,0.0,0.0,0.0,0.0,0.0,0.0,0.0,-2.7068,-2.9058,-2.994,-3.0327,-3.0715,-3.1263,-3.181,-3.2265,-3.2572,-3.2893,-3.332,-3.3895,-3.4202,-3.4496,-3.479,0.0,0.0,0.0,0.0,-3.6246,-3.65,-3.6794,-3.6794,-3.654,-3.6513,-3.6219,-3.5672,-3.5645,-3.5471,-3.5191,-3.5164,-3.5151,-3.5084,-3.4269,-3.3708,-3.3307,-3.2679,-3.2291,-3.1984,-3.1436,-3.1036,0.0,0.0,-0.8804,-0.8804,-0.8804,-0.8804,-0.8804,-0.8804,-0.9312,-1.0345,-1.2078,-1.3896,-1.5584,-1.7125,-1.8613,-1.9359,-1.9118,-1.9092,-1.9025,-1.8851,-1.9011,-1.9786,-2.1387,-2.2405,-2.334,-2.4102,-2.4409,-2.4583,-2.4636,-2.4636,-2.4636,-2.4636,-2.4636,-2.4636,-2.4636,-2.4636,-2.4636,-2.4636,-2.4636,-2.4329,-2.3848,-2.3794,-2.3407,-2.2847,-2.1951,-2.1496,-2.1176,-2.0227,-2.0094,-2.0214,-1.9399,-1.8851,-1.8439,-1.7582,-1.6406,0.0,0.0,0.0,0.0,0.0,0.0,0.0,0.0,0.0,0.0,0.0,0.0,0.0,0.0,0.0,0.0,0.0,0.0,0.0,-2.6146,-2.823,-2.9967,-3.0849,-3.1236,-3.1543,-3.1891,-3.2238,-3.2572,-3.2866,-3.3387,-3.3855,-3.4202,-3.4509,-3.4803,-3.5097,-3.5391,0.0,-3.5631,-3.6139,-3.6433,-3.65,-3.6794,-3.6901,-3.6861,0.0,0.0,-3.5979,-3.5738,-3.5471,-3.5177,-3.495,-3.4843,-3.4817,-3.4402,-3.3774,-3.2986,-3.2158,-3.1797,-3.1717,-3.1356,-3.1036,-3.0755,-0.8804,-0.8804,-0.8804,-0.8804,-0.8804,-0.8804,-0.8804,-0.9312,-1.0207,-1.1677,-1.3293,-1.4803,-1.6126,-1.7246,-1.7596,-1.6908,-1.697,-1.7637,-1.9092,-1.9693,-2.0748,-2.2365,-2.33,-2.3968,-2.4409,-2.4556,-2.4636,-2.4636,-2.4636,-2.4636,-2.4636,-2.4636,-2.4636,-2.4636,-2.4636,-2.4636,-2.4636,-2.4636,-2.4302,-2.3768,-2.3768,-2.3407,-2.2901,-2.2539,-2.2245,-2.1911,-2.1323,-2.1109,-2.1015,-2.0428,-1.9947,-1.9506,-1.9052,-1.7996,-1.669,0.0,0.0,0.0,0.0,0.0,0.0,0.0,0.0,0.0,0.0,0.0,0.0,0.0,0.0,-2.1563,0.0,0.0,-2.6266,-2.7896,-2.9392,-3.0555,-3.1142,-3.1476,-3.1717,-3.1864,-3.2278,-3.2599,-3.2746,-3.344,-3.4002,-3.4295,-3.4603,-3.4897,-3.5177,-3.5471,-3.5698,-3.5845,-3.6273,-3.658,-3.6727,-3.6861,-3.6941,-3.6941,-3.6794,-3.65,-3.6072,-3.5912,-3.5538,-3.4977,-3.483,-3.4683,-3.4496,-3.3895,-3.3293,-3.2692,-3.1957,-3.1664,-3.165,-3.1503,-3.1169,-3.0768,-0.8804,-0.8804,-0.8804,-0.8804,-0.8804,-0.8804,-0.8804,-0.9312,-1.0087,-1.1162,-1.2601,-1.3919,-1.503,-1.5712,-1.5809,-1.5008,-1.5145,-1.6436,-1.9194,-2.0355,-2.1617,-2.334,-2.3968,-2.4396,-2.4636,-2.4636,-2.4636,-2.4636,-2.4636,-2.4636,-2.4636,-2.4636,-2.4636,-2.4636,-2.4636,-2.4636,-2.4636,-2.4636,-2.4302,-2.3768,-2.3768,-2.3407,-2.2928,-2.2928,-2.2672,-2.2378,-2.2084,-2.1577,-2.0989,-2.0762,-2.0321,-1.988,-1.988,-1.9239,-1.8235,-1.7328,-1.6767,0.0,0.0,0.0,0.0,0.0,0.0,0.0,0.0,0.0,-2.0882,-2.1991,-2.2832,-2.3901,-2.5692,-2.6747,-2.7843,-2.9406,-3.0341,-3.0982,-3.1276,-3.1517,-3.1664,-3.1664,-3.2185,-3.267,-3.2625,-3.344,-3.4068,-3.4295,-3.4643,-3.495,-3.5191,-3.5525,-3.5819,-3.6059,-3.6393,-3.6687,-3.6941,-3.6941,-3.6941,-3.6941,-3.6941,-3.6647,-3.6072,-3.6072,-3.5631,-3.4843,-3.4723,-3.4469,-3.4082,-3.324,-3.2759,-3.2589,-3.1904,-3.1664,-3.1664,-3.1664,-3.1303,-3.0795,0.0,-0.8804,-0.8804,-0.8804,-0.8804,-0.8804,-0.8804,-0.9312,-1.0007,-1.0929,-1.2331,-1.3507,-1.4162,-1.499,-1.5451,-1.5345,-1.5457,-1.665,-1.9208,-2.0743,-2.2204,-2.3661,-2.4275,-2.4609,-2.4636,-2.4636,-2.4636,-2.4636,-2.4636,-2.4636,-2.4636,-2.4636,-2.4636,-2.4636,-2.4636,-2.4636,-2.4636,-2.4636,-2.4302,-2.3768,-2.3768,-2.3407,-2.2928,-2.2928,-2.2672,-2.2378,-2.2084,-2.1443,-2.0722,-2.0681,-2.0454,-2.0187,-2.0187,-2.0033,-1.976,-1.8624,-1.7755,-1.7005,-1.6526,-1.6941,-1.7862,-1.9439,-1.9746,-2.0535,0.0,0.0,-2.3875,-2.5785,-2.6466,-2.6947,-2.7792,-2.8577,-2.9419,-3.014,-3.0782,-3.1276,-3.1583,-3.165,-3.1664,-3.1664,-3.2185,-3.2652,-3.2906,-3.3748,-3.4282,-3.4322,-3.483,-3.5164,-3.5191,-3.5725,-3.6046,-3.6072,-3.6607,-3.6901,-3.6941,-3.6941,-3.6941,-3.6941,-3.6941,-3.6647,-3.6072,-3.6072,-3.5738,-3.5124,-3.4589,-3.4042,-3.3467,-3.2853,-3.267,-3.2589,-3.1904,-3.1664,-3.1664,-3.1664,-3.1303,-3.0795,0.0,-0.8513,-0.8672,-0.8235,-0.8513,-0.8871,-0.9004,-0.9419,-0.997,-1.068,-1.1583,-1.2331,-1.2746,-1.2255,-1.22,-1.3079,-1.3506,-1.5182,-1.8675,-2.0609,-2.2284,-2.3701,-2.4329,-2.4636,-2.4636,-2.4636,-2.4636,-2.4636,-2.4636,-2.4636,-2.4636,-2.4636,-2.4636,-2.4636,-2.4636,-2.4636,-2.4636,-2.4636,-2.4302,-2.3768,-2.3768,-2.3407,-2.2914,-2.2672,-2.2205,-2.1643,-2.1523,-2.1015,0.0,-2.0027,-1.9826,-1.976,-1.992,-1.9746,-1.9345,-1.8677,-1.8343,-1.8384,-1.9279,-1.9586,-2.0027,0.0,-2.2579,-2.35,-2.493,-2.5411,-2.5879,-2.7081,-2.7709,-2.823,-2.8818,-2.9513,-3.0127,0.0,-3.1102,-3.153,-3.165,-3.1517,-3.1343,-3.1183,-3.153,-3.2024,-3.2666,-3.3374,-3.3935,-3.4295,-3.471,-3.5017,-3.5191,-3.5752,-3.6072,-3.6072,-3.6647,-3.6941,-3.6941,-3.6941,-3.6941,-3.6941,-3.6941,-3.6727,-3.6326,-3.6326,-3.5819,-3.4897,-3.4122,-3.3547,-3.3133,-3.2719,-3.2438,-3.2251,-3.1837,-3.1664,-3.1664,-3.1664,-3.1303,-3.0795,0.0,-0.8289,-0.8526,-0.7622,-0.8066,-0.8694,-0.9122,-0.9566,-0.9953,-1.0412,-1.0942,-1.1307,-1.1352,-0.986,-0.9438,-1.0797,-1.1402,-1.3483,-1.7546,-1.9724,-2.1674,-2.3581,-2.4209,-2.4556,-2.4636,-2.4636,-2.4636,-2.4636,-2.4636,-2.4636,-2.4636,-2.4636,-2.4636,-2.4636,-2.4636,-2.4636,-2.4636,-2.4636,-2.4342,-2.3888,-2.3808,-2.3407,-2.2874,-2.2352,-2.1435,-2.0354,-2.0354,-2.0016,-1.9474,-1.8547,-1.8516,-1.8891,-1.9025,-1.8945,-1.8798,-1.8744,-1.8998,-1.9546,-2.0748,-2.1323,0.0,-2.3233,-2.473,-2.5865,-2.5812,-2.6587,-2.7455,-2.7963,-2.8417,-2.8858,-2.9285,-2.9847,-3.0327,-3.0621,-3.1169,-3.157,-3.1664,-3.1343,-3.1062,-3.0929,-3.0955,-3.1303,-3.2104,-3.2853,-3.3507,-3.4028,-3.4496,-3.4897,-3.5177,-3.5752,-3.6072,-3.6072,-3.6647,-3.6941,-3.6941,-3.6941,-3.6941,-3.6941,-3.6941,-3.6754,-3.638,-3.6139,-3.5471,-3.4482,-3.3828,-3.3374,-3.3066,-3.2692,-3.2425,-3.2185,-3.181,-3.1664,-3.1664,-3.1664,-3.1303,-3.0795,0.0,0.0,-0.8404,-0.714,-0.7481,-0.8221,-0.9066,-0.9697,-1.0083,-1.0097,-1.0648,-1.0735,-1.0031,-0.8697,-0.8237,-0.9273,-0.9785,-1.1801,-1.5923,-1.7801,-2.0153,-2.319,-2.3901,-2.4342,-2.4549,-2.4636,-2.4636,-2.4636,-2.4636,-2.4636,-2.4636,-2.4636,-2.4636,-2.4636,-2.4636,-2.4636,-2.4636,-2.4636,-2.4462,-2.4168,-2.3888,-2.3407,-2.2834,-2.1976,-2.0245,-1.8386,-1.8386,-1.826,-1.7807,-1.5927,-1.6336,-1.7595,-1.7367,-1.7876,0.0,-1.9172,-1.9746,-2.0147,-1.992,0.0,-2.3033,-2.3955,-2.5491,-2.6934,-2.7495,-2.8096,-2.8644,-2.8938,-2.9018,-2.9032,-2.9045,-2.9539,-3.002,-3.0327,-3.0862,-3.1343,-3.1623,-3.1169,-3.0902,-3.1183,-3.0728,-3.0621,0.0,-3.2318,-3.312,-3.3414,-3.4269,-3.4897,-3.5177,-3.5752,-3.6072,-3.6072,-3.6647,-3.6941,-3.6941,-3.6941,-3.6941,-3.6941,-3.6941,-3.6647,-3.6059,-3.5204,-3.4482,-3.3908,-3.3881,-3.3694,-3.336,-3.2786,-3.2545,-3.2576,-3.1891,-3.1664,-3.1664,-3.1664,-3.1303,-3.0795,0.0,0.0,0.0,-0.8144,-0.8287,-0.8598,-0.8907,-0.9114,-0.9587,-1.0584,-1.0459,0.0,0.0,0.0,0.0,0.0,-0.9112,-1.0788,-1.3735,-1.5364,-1.7518,-2.0454,-2.142,-2.2574,-2.4062,-2.4249,-2.4449,-2.4636,-2.4636,-2.4636,-2.4636,-2.4636,-2.4636,-2.4636,-2.4636,-2.4636,-2.4636,-2.4636,-2.4356,-2.3888,-2.3594,-2.3113,-2.235,-2.0532,-1.8913,-1.7277,0.0,-1.4293,-1.4573,-1.3722,-1.4387,-1.5581,-1.5803,-1.6536,-1.7502,-1.849,-1.9332,-2.0267,-2.1737,0.0,-2.4636,-2.5919,-2.7121,-2.8056,-2.8257,-2.8604,-2.8804,-2.8511,-2.8283,-2.8096,-2.7896,-2.8337,-2.8898,-2.9406,-3.0301,-3.1102,-3.1597,-3.1503,-3.1196,-3.0715,-3.0648,0.0,0.0,0.0,0.0,-3.3347,-3.3708,-3.4255,-3.5151,-3.5752,-3.6072,-3.6072,-3.6647,-3.6941,-3.6941,-3.6941,-3.6941,-3.6941,-3.6754,-3.634,-3.5752,-3.507,-3.4549,-3.4148,-3.3748,-3.34,-3.3093,-3.2706,-3.2425,-3.2211,-3.1824,-3.1664,-3.1664,-3.1664,-3.1303,-3.0795,0.0,0.0,0.0,0.0,0.0,0.0,0.0,0.0,0.0,0.0,0.0,0.0,0.0,0.0,0.0,0.0,0.0,-0.9367,-1.1694,-1.2983,-1.4887,-1.7649,-1.8522,-1.9654,-2.1107,-2.1876,-2.2471,-2.295,-2.3496,-2.4008,-2.4329,-2.4329,-2.4329,-2.4329,-2.4329,-2.4329,-2.4315,-2.4209,-2.3955,-2.3554,-2.2327,-2.1551,-2.0811,-1.825,-1.6338,0.0,-1.2112,-1.1331,-1.1629,-1.1758,-1.2962,-1.4472,-1.5084,-1.6369,-1.7849,-1.8824,-1.988,-2.1229,-2.35,-2.481,-2.5905,-2.7375,-2.8257,-2.8764,-2.8764,-2.8831,-2.8711,-2.811,-2.7575,-2.7108,-2.672,-2.6947,-2.7535,-2.8551,-2.9526,-3.0515,-3.153,-3.1396,-3.1022,-3.0568,-3.0488,0.0,0.0,0.0,0.0,-3.2719,-3.3293,-3.3961,-3.483,-3.5645,-3.6072,-3.6072,-3.6647,-3.6941,-3.6941,-3.6941,-3.6901,-3.6794,-3.638,-3.5885,-3.5297,-3.4723,-3.4282,-3.3975,-3.3587,-3.3307,-3.3106,-3.2706,-3.2438,-3.2225,-3.1824,-3.1664,-3.1664,-3.1664,-3.1303,-3.0795,0.0,0.0,0.0,0.0,0.0,0.0,0.0,0.0,0.0,0.0,0.0,0.0,0.0,0.0,0.0,0.0,0.0,0.0,-0.9902,-1.074,-1.2297,-1.488,-1.5451,-1.5885,-1.6255,-1.775,-1.9027,-1.9922,-2.1419,-2.2671,-2.3594,-2.3594,-2.3594,-2.3594,-2.3594,-2.3594,-2.3567,-2.3217,-2.3014,-2.2812,-2.0058,-1.8782,-1.8187,-1.5134,-1.2807,-1.0964,-1.0219,-0.9579,-0.9221,-1.0143,-1.214,0.0,0.0,0.0,-1.9559,-2.016,-2.139,-2.2993,-2.5024,-2.6039,-2.6867,-2.8297,-2.8858,-2.9058,-2.9032,-2.8778,-2.8377,-2.7696,-2.6854,-2.6039,0.0,0.0,-2.6012,-2.7832,-2.8617,-2.97,-3.145,-3.0996,-3.0568,0.0,0.0,0.0,0.0,0.0,0.0,-3.1623,0.0,-3.3988,-3.4322,-3.5431,-3.6059,-3.6072,-3.662,-3.6941,-3.6941,-3.6941,-3.6754,-3.6473,-3.5885,-3.5297,-3.4696,-3.4148,-3.3708,-3.3414,-3.3414,-3.3414,-3.3374,-3.2786,-3.2643,-3.2589,-3.1904,-3.1664,-3.1664,-3.1664,-3.1303,-3.0808,0.0,0.0,0.0,0.0,0.0,0.0,0.0,0.0,0.0,0.0,0.0,0.0,0.0,0.0,0.0,0.0,0.0,0.0,-0.7679,-0.8353,-0.9718,-1.2037,-1.2805,-1.3947,-1.5649,-1.631,-1.7295,-1.8763,-1.9149,-1.994,-2.1136,-2.1136,-2.1136,-2.1136,-2.1136,-2.1136,-2.1059,-2.0017,-1.9411,-1.905,-1.7196,-1.6231,-1.566,-1.3403,-1.1882,-1.078,-0.9291,-0.8956,-0.9423,0.0,0.0,0.0,0.0,-1.9323,-2.0548,0.0,0.0,-2.4703,-2.6106,-2.7402,-2.8511,-2.9112,-2.9312,-2.9259,-2.8818,-2.831,-2.7522,-2.6052,-2.4877,-2.3794,0.0,0.0,0.0,-2.6372,-2.8297,0.0,-3.177,-3.1984,0.0,-3.1784,0.0,-3.1396,-3.1036,-3.1076,0.0,0.0,-3.2625,-3.3627,-3.4603,-3.5351,-3.5845,-3.6059,-3.6433,-3.6727,-3.6941,-3.6727,-3.6353,-3.5845,-3.5485,-3.4883,-3.4108,-3.3961,-3.3708,-3.3414,-3.3414,-3.3414,-3.3374,-3.2786,-3.2643,-3.2589,-3.1904,-3.1664,-3.1664,-3.1664,-3.1436,-3.1089,0.0,0.0,0.0,0.0,0.0,0.0,0.0,0.0,0.0,0.0,0.0,0.0,0.0,0.0,0.0,0.0,0.0,0.0,0.0,-0.7253,-0.8077,-0.9437,-0.9911,-1.078,-1.2007,-1.2953,-1.4035,-1.5333,-1.6658,-1.7904,-1.8992,-1.9542,-1.9853,-1.9853,-1.9853,-1.9853,-1.978,-1.8317,-1.7624,0.0,0.0,-1.3565,-1.3128,-1.1059,-0.9935,-0.9393,-0.8414,-0.963,0.0,0.0,0.0,-1.8644,-2.0111,-2.1216,-2.2285,-2.3594,0.0,-2.6132,-2.7442,-2.8497,-2.9299,-2.9606,-2.9379,-2.8845,-2.7856,-2.6974,-2.5825,-2.3928,-2.2699,0.0,0.0,0.0,0.0,0.0,0.0,0.0,-3.1637,-3.2051,-3.2144,0.0,-3.2211,0.0,-3.165,-3.1837,-3.2064,0.0,-3.2692,-3.3334,-3.4122,-3.4977,-3.5511,-3.5685,-3.6099,-3.6393,-3.654,-3.6273,-3.5899,-3.5431,-3.5017,-3.4482,-3.3881,-3.3748,-3.3574,-3.3414,0.0,-3.3414,-3.3374,-3.2786,-3.2643,-3.2589,-3.1904,-3.1664,-3.1664,-3.1664,-3.1476,-3.1183,0.0,0.0,0.0,0.0,0.0,0.0,0.0,0.0,0.0,0.0,0.0,0.0,0.0,0.0,0.0,0.0,0.0,0.0,0.0,0.0,-0.719,-0.7412,-0.7516,-0.7611,-0.7631,-0.9146,-1.0373,-1.1282,-1.3998,-1.5849,-1.6963,-1.814,-1.8778,-1.8891,-1.8891,-1.8835,-1.8595,-1.7016,-1.6233,-1.576,-1.2257,-1.087,-1.0661,0.0,-0.7894,-0.7807,-0.8,0.0,0.0,0.0,-1.984,-2.0895,-2.2044,-2.3193,-2.4396,-2.5785,-2.66,-2.7362,-2.8724,-2.9312,-2.9593,-2.9806,-2.9165,-2.8096,-2.6613,-2.5304,-2.3821,-2.175,0.0,-1.9893,-1.9573,-2.0347,-2.1911,-2.4543,0.0,-2.8631,-3.1289,-3.1704,-3.1851,-3.2185,-3.2478,-3.2559,-3.2305,-3.2706,-3.2986,-3.3026,-3.3,-3.312,-3.3454,-3.4496,-3.5097,-3.5137,-3.5672,-3.5979,-3.6019,-3.5685,-3.5391,-3.5137,-3.4549,-3.4108,-3.3814,-3.3534,-3.3414,-3.3414,0.0,0.0,-3.3374,-3.2786,-3.2643,-3.2589,-3.1904,-3.1664,-3.1664,-3.1664,-3.1503,-3.1236,0.0,0.0,0.0,0.0,0.0,0.0,0.0,0.0,0.0,0.0,-0.6668,-0.6627,0.0,0.0,0.0,0.0,0.0,0.0,0.0,0.0,0.0,-0.7405,-0.7516,-0.7651,-0.7773,-0.8189,-0.9011,0.0,0.0,-1.2234,-1.4512,-1.4761,-1.5432,-1.6446,-1.6446,-1.5828,-1.4761,-1.3368,-1.2194,-1.1075,-0.9291,-0.8549,-0.8542,-0.8165,0.0,0.0,0.0,0.0,0.0,0.0,-2.0144,-2.3313,-2.4249,-2.5184,-2.6132,-2.7108,-2.7829,-2.8457,-2.9205,-2.9619,-2.9793,-2.9606,-2.8698,-2.7468,-2.5999,-2.4369,0.0,0.0,-1.9399,-1.8624,-1.8063,-1.9492,-2.1537,-2.3968,0.0,0.0,0.0,0.0,-3.2225,0.0,0.0,0.0,0.0,0.0,0.0,0.0,0.0,0.0,-3.3774,-3.4229,-3.4589,-3.483,-3.5164,-3.5471,-3.5698,-3.5177,-3.4897,-3.483,-3.4242,-3.3801,-3.3494,-3.344,-3.3414,-3.3414,0.0,0.0,-3.3374,-3.2786,-3.2643,-3.2589,-3.1904,-3.1664,-3.1664,-3.1664,-3.1637,-3.1517,0.0,0.0,0.0,0.0,0.0,0.0,0.0,-0.6532,-0.6953,-0.7339,-0.7461,-0.7366,-0.6973,-0.6865,-0.6817,0.0,0.0,0.0,0.0,0.0,0.0,0.0,-0.7563,-0.7631,-0.7699,0.0,0.0,0.0,0.0,0.0,0.0,0.0,0.0,0.0,0.0,0.0,0.0,-1.2474,-1.117,0.0,0.0,0.0,0.0,0.0,0.0,0.0,0.0,0.0,0.0,0.0,-1.9764,-2.35,-2.4703,-2.5785,-2.6814,-2.7869,-2.8377,-2.8764,-2.9513,-2.9806,-2.9847,-2.9553,-2.847,-2.6881,-2.4649,0.0,0.0,0.0,-1.7635,-1.7248,-1.7005,0.0,0.0,0.0,0.0,0.0,0.0,0.0,0.0,0.0,0.0,0.0,0.0,0.0,0.0,0.0,0.0,0.0,-3.3627,-3.3935,-3.4229,-3.4523,-3.467,-3.4803,-3.495,-3.4523,-3.4309,-3.4309,-3.3855,-3.3561,-3.3414,-3.3414,-3.3414,-3.3414,-3.3414,0.0,-3.3374,-3.2786,-3.2643,-3.2589,-3.1904,-3.1664,-3.1664,-3.1664,-3.1664,-3.161,0.0,0.0,0.0,0.0,0.0,0.0,0.0,-0.6932,-0.7375,-0.7936,-0.8214,-0.8126,-0.7449,-0.72,-0.7051,0.0,0.0,0.0,0.0,0.0,0.0,0.0,0.0,0.0,0.0,0.0,0.0,0.0,0.0,0.0,0.0,0.0,0.0,0.0,0.0,0.0,0.0,0.0,0.0,0.0,0.0,0.0,0.0,0.0,0.0,0.0,0.0,0.0,0.0,0.0,-1.8661,-2.2271,-2.3688,-2.5237,-2.676,-2.7896,-2.831,-2.8617,-2.9566,-2.9873,-2.9833,-2.9472,-2.823,-2.6319,-2.342,-2.1537,0.0,0.0,-1.6219,-1.6192,-1.6308,0.0,0.0,0.0,0.0,0.0,0.0,0.0,0.0,0.0,0.0,0.0,0.0,0.0,0.0,0.0,0.0,0.0,0.0,-3.3654,-3.3895,-3.4122,-3.4122,-3.4162,-3.4229,-3.3935,-3.3828,-3.3881,-3.3561,-3.3414,-3.3414,-3.3414,-3.3414,-3.3414,0.0,0.0,0.0,-3.2786,-3.2643,-3.2589,-3.1904,-3.1664,-3.1664,-3.1664,-3.1664,-3.1623,0.0,0.0,0.0,0.0,0.0,0.0,0.0,-0.7183,-0.7814,-0.8533,-0.8655,-0.8587,-0.8384,-0.7984,-0.7624,0.0,0.0,0.0,0.0,0.0,0.0,0.0,0.0,0.0,0.0,0.0,0.0,0.0,0.0,0.0,0.0,0.0,0.0,0.0,0.0,0.0,0.0,0.0,0.0,0.0,0.0,0.0,0.0,0.0,0.0,0.0,0.0,0.0,0.0,0.0,0.0,-1.9492,-2.0695,-2.318,-2.5812,-2.672,0.0,0.0,-2.9205,-2.9713,-2.978,-2.9219,-2.7762,-2.5772,-2.3073,0.0,0.0,-1.6764,-1.6059,-1.5952,-1.6219,-1.6871,0.0,0.0,0.0,-2.3781,0.0,0.0,0.0,0.0,0.0,0.0,0.0,0.0,0.0,0.0,0.0,0.0,0.0,-3.344,-3.3467,-3.3494,-3.3494,-3.3627,-3.3921,-3.3614,-3.3601,-3.3881,-3.3561,-3.3414,-3.3414,-3.3414,-3.3414,-3.3414,0.0,0.0,0.0,-3.2786,-3.2643,-3.2589,-3.1904,-3.1664,-3.1664,-3.1664,-3.1664,-3.1583,0.0,0.0,0.0,0.0,0.0,0.0,-0.6815,-0.7125,-0.7658,-0.8587,-0.8791,-0.8825,-0.8764,-0.8513,-0.8126,-0.7556,0.0,0.0,0.0,0.0,0.0,0.0,0.0,0.0,0.0,0.0,0.0,0.0,0.0,0.0,0.0,0.0,0.0,0.0,0.0,0.0,0.0,0.0,0.0,0.0,0.0,0.0,0.0,0.0,0.0,0.0,0.0,0.0,0.0,0.0,0.0,0.0,-1.8295,-1.9616,0.0,0.0,-2.6306,-2.7241,-2.8791,-2.9553,-2.9409,-2.7473,-2.6671,-2.5254,-2.1052,0.0,-1.8731,-1.6473,-1.5912,-1.5824,-1.5979,-1.6339,-1.7168,-1.8824,-1.9639,-2.1229,-2.4596,0.0,0.0,0.0,0.0,0.0,0.0,0.0,0.0,0.0,0.0,0.0,0.0,-3.3414,-3.3414,-3.3414,-3.3414,-3.3467,-3.3601,-3.3467,-3.3467,-3.3601,-3.3467,-3.3414,-3.3414,-3.3414,-3.3414,-3.3414,0.0,0.0,0.0,-3.2786,-3.2643,-3.2589,-3.1904,-3.1664,-3.1664,-3.1664,-3.1664,-3.1637,0.0,0.0,0.0,0.0,0.0,-0.6229,-0.693,-0.7146,-0.7604,-0.8526,-0.8777,-0.8831,-0.8878,-0.8723,-0.8384,-0.7902,-0.7699,0.0,0.0,0.0,0.0,0.0,0.0,0.0,0.0,0.0,0.0,0.0,0.0,0.0,0.0,0.0,0.0,0.0,0.0,0.0,0.0,0.0,0.0,0.0,0.0,0.0,0.0,0.0,0.0,0.0,0.0,0.0,0.0,0.0,0.0,0.0,0.0,0.0,0.0,0.0,-2.4455,-2.5897,-2.6449,-2.7571,-2.7839,-2.4981,-2.4673,-2.3947,0.0,-1.8803,-1.8584,-1.6299,-1.5784,-1.5784,-1.5784,-1.6072,-1.6607,-1.7622,-1.833,-1.9786,-2.2766,0.0,0.0,0.0,0.0,0.0,0.0,0.0,0.0,0.0,0.0,0.0,0.0,-3.3414,-3.3414,-3.3414,-3.3414,-3.3414,-3.3414,-3.3414,-3.3414,-3.3414,-3.3414,-3.3414,-3.3414,-3.3414,-3.3414,0.0,0.0,0.0,0.0,-3.2786,-3.2643,-3.2589,-3.1904,-3.1664,-3.1664,-3.1664,-3.1664,-3.1664,0.0,0.0,0.0,0.0,0.0,0.0,-0.6795,-0.7305,-0.7807,-0.8404,-0.8615,-0.8771,-0.8865,-0.854,-0.8381,-0.8459,-0.7936,0.0,0.0,0.0,0.0,0.0,0.0,0.0,0.0,0.0,-0.8336,-0.8479,-0.8628,-0.8703,0.0,0.0,0.0,0.0,0.0,0.0,0.0,0.0,0.0,0.0,0.0,0.0,0.0,0.0,0.0,0.0,0.0,0.0,0.0,0.0,0.0,0.0,0.0,0.0,0.0,0.0,-2.1647,-2.3761,-2.1622,-2.3035,-2.4517,-2.1873,-2.1616,-2.1383,0.0,-1.8505,-1.8343,-1.6211,-1.5784,-1.5784,-1.5784,-1.6072,-1.6522,-1.7112,-1.8452,-2.0234,-2.2606,0.0,0.0,0.0,0.0,0.0,0.0,0.0,0.0,0.0,0.0,0.0,0.0,0.0,-3.3414,-3.3414,-3.3414,-3.3414,-3.3414,-3.3414,-3.3414,-3.3414,-3.3414,-3.3414,-3.3414,-3.3414,0.0,0.0,0.0,0.0,0.0,-3.2786,-3.2643,-3.2589,-3.1904,-3.1664,-3.1664,-3.1664,-3.1664,-3.1623,0.0,0.0,0.0,0.0,0.0,0.0,0.0,-0.6959,-0.7272,-0.8072,-0.817,-0.8332,-0.8743,-0.856,-0.8431,-0.8479,-0.8126,0.0,0.0,0.0,0.0,0.0,0.0,0.0,0.0,-0.8187,-0.8445,-0.8798,-0.894,-0.9069,-0.9221,-1.1428,0.0,0.0,0.0,0.0,0.0,0.0,0.0,0.0,0.0,0.0,0.0,0.0,0.0,0.0,0.0,0.0,0.0,0.0,0.0,0.0,0.0,0.0,0.0,-1.5603,-1.9138,0.0,-2.2057,-2.3367,-2.3993,-2.0789,-2.11,-2.1302,-1.7479,-1.7637,-1.809,-1.6171,-1.5784,-1.5784,-1.5784,-1.5912,-1.6567,-1.8425,-1.9122,0.0,0.0,0.0,0.0,0.0,0.0,0.0,0.0,0.0,0.0,0.0,0.0,0.0,0.0,0.0,-3.3414,-3.3414,-3.3414,-3.3414,-3.3414,-3.3414,-3.3414,-3.3414,-3.3414,-3.3414,-3.3414,-3.3414,0.0,0.0,0.0,0.0,0.0,-3.2706,-3.2425,-3.2198,-3.1824,-3.1664,-3.1664,-3.1664,-3.1664,-3.1623,0.0,0.0,0.0,0.0,0.0,0.0,0.0,-0.6776,-0.7007,-0.757,-0.78,-0.8106,-0.8499,-0.8404,-0.8357,-0.8472,-0.8214,0.0,0.0,0.0,0.0,0.0,0.0,0.0,-0.8126,-0.8275,-0.8601,-0.9103,-0.9252,-0.9429,-0.9692,-1.1278,-1.2081,-1.2152,0.0,0.0,0.0,0.0,0.0,0.0,0.0,0.0,0.0,0.0,0.0,0.0,0.0,0.0,0.0,0.0,0.0,0.0,0.0,0.0,0.0,0.0,-1.6777,-1.9871,0.0,-2.0951,-2.1709,-1.8699,-1.9215,-1.9631,-1.6442,-1.6894,-1.7569,-1.6126,-1.5784,-1.5784,-1.5784,-1.5925,-1.6513,-1.8103,-1.8931,0.0,0.0,0.0,0.0,0.0,0.0,0.0,0.0,0.0,0.0,0.0,0.0,0.0,0.0,0.0,-3.3414,-3.3414,-3.3414,-3.3414,-3.3414,-3.3414,-3.3414,-3.3414,-3.3414,-3.3414,-3.3414,0.0,0.0,0.0,0.0,0.0,0.0,-3.2545,-3.2265,-3.2078,-3.1784,-3.1664,-3.1664,-3.1664,-3.1664,-3.1623,0.0,0.0,0.0,0.0,0.0,0.0,0.0,-0.6722,-0.6923,-0.7078,-0.7522,-0.7909,-0.8208,-0.8119,-0.8103,-0.8425,0.0,0.0,0.0,0.0,0.0,0.0,0.0,0.0,-0.832,-0.8418,-0.8791,-0.9395,-0.9557,-0.9802,-1.0163,-1.0135,-1.059,-1.127,-0.9949,-0.9724,0.0,0.0,0.0,0.0,0.0,0.0,0.0,0.0,0.0,0.0,0.0,0.0,0.0,0.0,0.0,0.0,0.0,0.0,0.0,0.0,0.0,0.0,0.0,-1.6868,0.0,-1.6148,-1.6412,-1.6891,-1.5716,-1.6332,0.0,-1.6005,-1.5784,-1.5798,-1.5912,-1.6126,-1.646,-1.6941,-1.8424,0.0,0.0,0.0,0.0,0.0,0.0,0.0,0.0,0.0,0.0,0.0,0.0,0.0,0.0,0.0,0.0,-3.3414,-3.3414,-3.3414,-3.3414,-3.3414,-3.3414,-3.3414,-3.3414,-3.3414,-3.3414,0.0,0.0,0.0,0.0,0.0,0.0,-3.2332,-3.2091,-3.2051,-3.177,-3.1664,-3.1664,-3.1664,-3.1664,-3.1623,0.0,0.0,0.0,0.0,0.0,0.0,0.0,0.0,0.0,0.0,-0.7434,-0.7719,-0.7902,-0.7991,-0.8015,0.0,0.0,0.0,0.0,0.0,0.0,0.0,0.0,0.0,-0.832,-0.8526,-0.8954,-0.9557,-0.9815,-1.0154,-1.0555,-1.1456,-1.2401,-1.341,-1.1574,-1.0177,0.0,0.0,0.0,0.0,0.0,0.0,0.0,0.0,0.0,0.0,0.0,0.0,0.0,0.0,0.0,0.0,0.0,0.0,0.0,0.0,-1.5742,-1.6407,-1.6068,0.0,-1.7626,-1.6431,-1.6646,-1.6996,0.0,-1.6491,-1.662,-1.5917,-1.5784,-1.6032,-1.6764,-1.6714,-1.7368,-1.9693,0.0,0.0,0.0,0.0,0.0,0.0,0.0,0.0,0.0,0.0,0.0,0.0,0.0,0.0,0.0,0.0,0.0,-3.3414,-3.3414,-3.3414,-3.3414,-3.3414,-3.3414,-3.3414,-3.3414,-3.3414,-3.3414,0.0,0.0,0.0,0.0,0.0,-3.2291,-3.2158,-3.1971,-3.1757,-3.169,-3.1664,-3.1664,-3.1664,-3.1664,-3.1597,0.0,0.0,0.0,0.0,0.0,0.0,0.0,0.0,0.0,0.0,0.0,-0.7651,-0.7794,-0.7901,0.0,0.0,0.0,0.0,0.0,0.0,0.0,0.0,0.0,-0.814,-0.8364,-0.8594,-0.9035,-0.9707,-0.9937,-1.0276,-1.0717,-1.1323,-1.1846,-1.2197,-1.0936,-0.9746,0.0,0.0,0.0,0.0,0.0,0.0,0.0,0.0,0.0,0.0,0.0,-0.9213,0.0,-0.8996,-0.9198,-0.9345,0.0,0.0,0.0,0.0,-1.5447,-1.6072,-1.6072,-1.6914,-1.7675,-1.7208,-1.7221,-1.7313,-1.6941,-1.658,-1.6206,-1.5851,-1.5784,-1.6059,-1.6807,-1.7034,0.0,0.0,0.0,0.0,0.0,0.0,0.0,0.0,0.0,0.0,0.0,0.0,0.0,0.0,0.0,0.0,0.0,0.0,0.0,0.0,-3.3347,-3.3414,-3.3414,-3.3414,-3.3414,-3.3414,-3.328,-3.3213,-3.3213,0.0,0.0,0.0,0.0,0.0,-3.2091,-3.1957,-3.181,-3.1664,-3.1664,-3.1664,-3.1664,-3.1664,-3.1583,-3.1396,0.0,0.0,0.0,0.0,0.0,0.0,0.0,0.0,0.0,0.0,0.0,0.0,0.0,0.0,0.0,0.0,0.0,0.0,0.0,0.0,0.0,0.0,-0.7988,-0.8201,-0.854,-0.8655,-0.9083,-0.9856,-1.0012,-1.0317,-1.0758,-1.0758,-1.0493,-0.993,-0.9662,-0.9314,-0.8885,0.0,0.0,0.0,0.0,0.0,0.0,0.0,0.0,0.0,0.0,0.0,0.0,-0.8632,-0.9461,-1.0399,-1.0373,0.0,0.0,0.0,0.0,0.0,-1.5992,-1.6818,-1.7723,-1.7742,-1.7675,-1.7555,-1.7475,-1.6673,-1.5917,-1.5917,-1.5992,0.0,0.0,-1.7555,0.0,0.0,0.0,0.0,0.0,0.0,0.0,0.0,0.0,0.0,0.0,0.0,0.0,0.0,0.0,0.0,0.0,0.0,0.0,0.0,-3.3146,-3.328,-3.328,-3.332,-3.332,-3.328,-3.3026,-3.2919,-3.2906,-3.2652,0.0,0.0,0.0,0.0,-3.2011,-3.177,-3.1664,-3.1664,-3.1664,-3.1664,-3.1664,-3.1623,-3.1436,-3.1183,0.0,0.0,0.0,0.0,0.0,0.0,0.0,0.0,0.0,0.0,0.0,0.0,0.0,0.0,0.0,0.0,0.0,0.0,0.0,0.0,0.0,-0.7988,-0.7988,-0.8251,-0.8804,-0.8764,-0.9137,-0.995,-1.0168,-1.0473,-1.0847,-1.0847,-1.0469,-0.9842,-1.0763,-1.0311,-0.8885,-0.8885,0.0,0.0,0.0,0.0,0.0,0.0,0.0,0.0,0.0,0.0,0.0,-0.9772,-1.0071,-1.0348,-1.012,0.0,0.0,0.0,0.0,0.0,-1.679,-1.6684,-1.643,-1.6559,-1.7074,-1.7448,-1.6954,-1.67,-1.6567,0.0,0.0,0.0,0.0,-1.9239,0.0,0.0,0.0,0.0,0.0,0.0,0.0,0.0,0.0,0.0,0.0,0.0,0.0,0.0,0.0,0.0,0.0,0.0,0.0,0.0,0.0,-3.2679,-3.2679,-3.2919,-3.2919,-3.2679,-3.2639,-3.271,-3.271,-3.267,-3.2412,0.0,0.0,-3.1957,-3.173,-3.169,-3.1664,-3.1664,-3.1664,-3.1664,-3.1637,-3.1383,-3.1263,-3.1156,0.0,0.0,0.0,0.0,0.0,0.0,0.0,0.0,0.0,0.0,0.0,0.0,0.0,0.0,0.0,0.0,0.0,0.0,0.0,0.0,-0.8235,-0.8397,-0.8404,-0.8514,-0.8878,-0.9028,-0.951,-1.0412,-1.0568,-1.0833,-1.1179,-1.0853,-1.0385,-0.9808,-1.0208,-0.983,-0.8885,-0.8885,-0.8885,0.0,0.0,0.0,0.0,0.0,0.0,0.0,0.0,0.0,0.0,0.0,-0.9716,-1.0484,-1.0196,0.0,0.0,0.0,0.0,0.0,-1.5466,-1.617,-1.6696,-1.5931,-1.6729,-1.7716,-1.7399,-1.695,-1.6527,-1.6434,0.0,0.0,0.0,0.0,0.0,0.0,0.0,0.0,0.0,0.0,0.0,0.0,0.0,0.0,0.0,0.0,0.0,0.0,0.0,0.0,0.0,0.0,0.0,0.0,0.0,0.0,-3.2305,-3.2438,-3.2519,-3.2643,-3.2385,-3.2305,-3.2305,-3.2144,-3.1998,-3.1864,0.0,-3.1797,-3.1664,-3.1664,-3.1664,-3.165,-3.149,-3.1423,-3.137,-3.0929,-3.0755,-3.0702,0.0,0.0,0.0,0.0,0.0,0.0,0.0,0.0,0.0,0.0,0.0,0.0,0.0,0.0,0.0,0.0,0.0,0.0,0.0,-0.8187,-0.837,-0.8601,-0.8743,-0.8933,-0.9134,-0.9354,-0.9876,-1.0772,-1.0928,-1.1131,-1.1382,-1.0812,-1.029,-0.9808,-0.951,-0.9218,-0.8885,-0.8885,-0.8885,0.0,0.0,0.0,0.0,0.0,0.0,0.0,0.0,0.0,0.0,0.0,0.0,0.0,0.0,0.0,0.0,-1.2451,-1.3625,-1.5294,-1.4887,-1.5896,-1.6807,-1.5876,-1.6645,-1.7483,-1.7267,-1.6658,-1.6085,-1.6014,-1.5986,0.0,0.0,0.0,0.0,0.0,0.0,0.0,0.0,0.0,0.0,0.0,0.0,0.0,0.0,0.0,0.0,0.0,0.0,0.0,0.0,0.0,0.0,0.0,0.0,0.0,-3.1998,-3.1998,-3.2118,-3.2442,-3.2104,-3.1998,-3.1998,-3.177,-3.1664,-3.1664,-3.1664,-3.1664,-3.1664,-3.1597,-3.157,-3.153,-3.1236,-3.1076,-3.0969,-3.0528,-3.0314,-3.0221,0.0,0.0,0.0,0.0,0.0,0.0,0.0,0.0,0.0,0.0,0.0,0.0,0.0,0.0,0.0,0.0,0.0,0.0,0.0,-0.8187,-0.8333,-0.8354,-0.8879,-0.9388,-0.9896,-0.972,-1.0032,-1.0867,-1.1077,-1.1233,-1.1382,-1.0921,-1.0392,-0.9808,-0.951,-0.9218,-0.8885,-0.8885,-0.8885,-0.8871,-0.8771,0.0,0.0,0.0,0.0,0.0,0.0,0.0,0.0,0.0,0.0,0.0,0.0,0.0,-1.2741,-1.2608,-1.3362,-1.47,-1.6756,-1.6357,-1.562,-1.6773,-1.6855,-1.6349,-1.5523,-1.5125,-1.5051,-1.5433,-1.5769,-1.6596,0.0,0.0,0.0,0.0,0.0,0.0,0.0,0.0,0.0,0.0,0.0,0.0,0.0,0.0,0.0,0.0,0.0,0.0,0.0,0.0,0.0,0.0,0.0,0.0,-3.1704,-3.1704,-3.1717,-3.173,-3.1704,-3.1704,-3.1704,-3.1677,-3.1664,-3.1664,-3.1664,-3.1664,-3.165,-3.137,-3.1263,-3.1236,-3.0942,-3.0662,-3.0421,-3.0381,-3.0181,-2.994,0.0,0.0,0.0,0.0,0.0,0.0,0.0,0.0,0.0,0.0,0.0,0.0,0.0,0.0,0.0,0.0,0.0,0.0,0.0,-0.8187,-0.8397,-0.8676,-0.8988,-0.9388,-0.9897,-1.0073,-1.0602,-1.1426,-1.1552,-1.1511,-1.1382,-1.0833,-1.031,-0.9808,-0.951,-0.9266,-0.9062,-0.8974,-0.8988,-0.9055,-0.8913,0.0,0.0,0.0,0.0,0.0,0.0,0.0,0.0,0.0,-0.8998,-0.9094,-0.8394,-0.9677,-1.1385,-1.1056,-1.2472,-1.4295,-1.5084,-1.5288,-1.5288,-1.5056,-1.4638,-1.4343,-1.4629,-1.485,-1.5051,-1.5285,-1.544,-1.6601,0.0,0.0,0.0,0.0,0.0,0.0,0.0,0.0,0.0,0.0,0.0,0.0,0.0,0.0,0.0,0.0,0.0,0.0,0.0,0.0,0.0,0.0,0.0,0.0,0.0,-3.149,-3.149,-3.1664,-3.1664,-3.1664,-3.1664,-3.1664,-3.1664,-3.1664,-3.1476,-3.1396,-3.137,-3.1076,-3.0955,-3.0929,-3.0635,-3.0341,-3.0087,-3.0087,-3.0007,-2.9913,0.0,0.0,0.0,0.0,0.0,0.0,0.0,0.0,0.0,0.0,0.0,0.0,0.0,0.0,0.0,0.0,0.0,0.0,-0.7988,-0.8187,-0.8411,-0.8716,-0.9001,-0.934,-0.9747,-1.0243,-1.0819,-1.1477,-1.1619,-1.1538,-1.124,-1.0731,-1.0276,-0.9876,-1.0103,-1.0192,-1.0074,-0.9805,-0.9783,-0.992,-0.971,-0.9923,0.0,0.0,0.0,0.0,0.0,0.0,0.0,0.0,-0.8563,-0.8374,-0.8664,-0.9579,-1.0637,-1.1262,-1.2907,-1.4589,-1.496,-1.5692,-1.6,-1.4391,-1.3861,-1.3713,-1.3786,-1.405,-1.4391,-1.4715,-1.5726,-1.7673,-2.1569,0.0,0.0,0.0,0.0,0.0,0.0,0.0,0.0,0.0,0.0,0.0,0.0,0.0,0.0,0.0,0.0,0.0,0.0,0.0,0.0,0.0,0.0,0.0,0.0,-3.1196,-3.1196,-3.1396,-3.1396,-3.149,-3.1664,-3.157,-3.153,-3.1517,-3.1223,-3.1089,-3.1062,-3.0768,-3.0595,-3.0501,-3.0301,-3.01,-2.9913,-2.9913,-2.9913,-2.9913,0.0,0.0,0.0,0.0,0.0,0.0,0.0,0.0,0.0,0.0,0.0,0.0,0.0,0.0,0.0,0.0,0.0,0.0,-0.7988,-0.818,-0.832,-0.8327,-0.8893,-0.9293,-0.9598,-1.0181,-1.0561,-1.0724,-1.1165,-1.1233,-1.0873,-1.0629,-1.0331,-1.0032,-1.1391,-1.1988,-1.1963,-1.1646,-1.1492,-1.1475,-1.1241,-1.0828,-1.0439,0.0,0.0,0.0,0.0,0.0,0.0,0.0,-0.9203,-0.8292,-0.9919,-1.0314,-1.0813,-1.3706,-1.496,-1.5743,-1.7186,-1.8023,-1.7848,-1.5251,-1.5028,-1.4969,-1.2939,-1.2508,-1.2766,-1.3661,-1.6617,-1.9966,-2.3191,-2.543,0.0,0.0,0.0,0.0,0.0,0.0,0.0,0.0,0.0,0.0,0.0,0.0,0.0,0.0,0.0,0.0,0.0,0.0,0.0,0.0,0.0,0.0,0.0,-3.0795,-3.0795,-3.0795,-3.0795,-3.1102,-3.165,-3.1356,-3.1223,-3.1209,-3.0915,-3.0795,-3.0768,-3.0474,-3.0181,-2.9913,-2.9913,-2.9913,-2.9913,-2.9913,-2.9913,-2.9913,0.0,0.0,0.0,0.0,0.0,0.0,0.0,0.0,0.0,0.0,0.0,0.0,0.0,0.0,0.0,0.0,0.0,0.0,-0.7988,-0.8029,-0.8201,-0.8411,-0.8689,-0.8933,-0.9074,-0.9517,-1.0093,-1.0813,-1.0907,-1.0819,-1.0622,-1.0324,-1.0011,-0.9944,-1.1463,-1.198,-1.1718,-1.2655,-1.2376,-1.1475,-1.2534,-1.1991,-1.0746,0.0,0.0,0.0,0.0,0.0,0.0,0.0,0.0,0.0,-0.972,-1.0672,-1.1675,-1.3546,-1.473,-1.557,-1.6467,-1.6005,-1.5181,-1.4696,-1.3993,-1.3311,-1.3065,-1.3139,-1.4013,-1.6481,-1.7667,-1.9428,-2.3664,0.0,0.0,0.0,0.0,0.0,0.0,0.0,0.0,0.0,0.0,0.0,0.0,0.0,0.0,0.0,0.0,0.0,0.0,0.0,0.0,0.0,0.0,0.0,0.0,0.0,-3.0595,-3.0795,-3.0581,-3.0688,-3.1049,-3.0955,-3.0929,-3.0902,-3.0621,-3.0488,-3.0461,-3.0167,-2.9993,-2.9913,-2.9913,-2.9913,-2.9913,-2.9913,-2.9913,-2.9913,0.0,0.0,0.0,0.0,0.0,0.0,0.0,0.0,0.0,0.0,-0.7988,-0.7988,0.0,0.0,0.0,0.0,0.0,0.0,-0.7988,-0.7988,-0.8147,-0.8384,-0.854,-0.8777,-0.911,-0.9408,-0.9808,-1.0324,-1.0297,-1.0263,-1.0222,-1.0044,-1.0397,-1.1041,-1.202,-1.2639,-1.2903,-1.2964,-1.2786,-1.2478,-1.3351,-1.3222,-1.2636,0.0,0.0,0.0,0.0,0.0,0.0,0.0,0.0,0.0,-1.0089,-1.0768,-1.1376,-1.3364,-1.4321,-1.4874,-1.5514,-1.5189,-1.4664,-1.4669,-1.4043,-1.3476,-1.3617,0.0,0.0,0.0,-2.0266,-2.1838,-2.5844,0.0,0.0,0.0,0.0,0.0,0.0,0.0,0.0,0.0,0.0,0.0,0.0,0.0,0.0,0.0,0.0,0.0,0.0,0.0,0.0,0.0,0.0,0.0,0.0,0.0,0.0,-3.0448,-3.0274,-3.0274,-3.0448,-3.0568,-3.0621,-3.0608,-3.0314,-3.0181,-3.0167,-2.9993,-2.9913,-2.9913,-2.9913,-2.9913,-2.9913,-2.9913,-2.9913,-2.9913,0.0,0.0,0.0,0.0,0.0,0.0,0.0,0.0,0.0,0.0,-0.7988,-0.7988,0.0,0.0,0.0,0.0,0.0,0.0,0.0,-0.7988,-0.8113,-0.8333,-0.8452,-0.8804,-0.9367,-0.9618,-0.9612,-0.934,-0.951,-0.9652,-0.9781,-1.0074,-1.1153,-1.2884,-1.3054,-1.3779,-1.4811,-1.2949,-1.2763,-1.378,-1.383,-1.4212,-1.468,-1.3614,0.0,0.0,0.0,0.0,0.0,0.0,0.0,0.0,-1.079,-1.0801,-1.0506,-1.3379,-1.3995,-1.3877,-1.466,-1.5224,-1.5441,-1.4851,-1.4773,0.0,-1.4663,-1.6526,-1.9026,-2.176,0.0,0.0,0.0,0.0,0.0,0.0,0.0,0.0,0.0,0.0,0.0,0.0,0.0,0.0,0.0,0.0,0.0,0.0,0.0,0.0,0.0,0.0,0.0,0.0,0.0,0.0,0.0,0.0,0.0,0.0,-2.9913,-2.9913,-2.9927,-3.0194,-3.0314,-3.0301,-3.0034,-2.9913,-2.9913,-2.9913,-2.9913,-2.9913,-2.9913,-2.9913,-2.9913,-2.9913,-2.9913,-2.9913,0.0,0.0,0.0,0.0,0.0,0.0,0.0,0.0,0.0,0.0,0.0,0.0,0.0,0.0,0.0,0.0,0.0,0.0,0.0,-0.7988,-0.816,-0.8425,-0.8859,-0.918,-0.9374,-0.9211,-0.904,-0.9035,-0.93,-0.9449,-0.9541,-1.1108,-1.2187,-1.2732,-1.401,-1.442,-1.4218,-1.3492,-1.2488,-1.1627,-1.3932,-1.2888,-1.0189,-1.2181,-1.1341,0.0,0.0,0.0,0.0,0.0,0.0,0.0,-1.1016,-1.1371,-1.1438,-1.4509,-1.4625,-1.3902,-1.4963,-1.4399,0.0,0.0,-1.4331,-1.4793,-1.68,-1.7751,-1.9026,-2.176,0.0,0.0,0.0,0.0,0.0,0.0,0.0,0.0,0.0,0.0,0.0,0.0,0.0,0.0,0.0,0.0,0.0,0.0,0.0,0.0,0.0,0.0,0.0,0.0,0.0,0.0,-2.9913,-2.9913,-2.9913,0.0,-2.9913,-2.9913,-2.9913,-2.998,-3.0007,-3.0007,-2.994,-2.9913,-2.9913,-2.9913,-2.9913,-2.9913,-2.9913,-2.9913,-2.9913,-2.9913,-2.9913,-2.9913,0.0,0.0,0.0,0.0,0.0,0.0,0.0,0.0,0.0,0.0,0.0,0.0,0.0,0.0,0.0,0.0,0.0,0.0,0.0,-0.7988,-0.815,-0.8574,-0.9009,-0.9214,-0.9171,-0.8966,-0.8811,-0.8723,-0.8947,-0.9617,-1.0647,-1.1862,-1.3004,-1.4054,-1.4023,-1.3699,-1.3078,-1.1948,-1.1233,-1.1054,-1.2575,-1.224,-1.088,-1.1615,-1.0792,-0.9201,-0.8292,0.0,0.0,0.0,0.0,0.0,0.0,0.0,-1.0708,-1.3149,-1.3496,-1.3172,-1.3664,0.0,0.0,-1.3814,0.0,-1.4381,-1.5918,-1.7121,0.0,0.0,0.0,0.0,0.0,0.0,0.0,0.0,0.0,0.0,0.0,0.0,0.0,0.0,0.0,0.0,0.0,0.0,0.0,0.0,0.0,0.0,0.0,0.0,0.0,0.0,0.0,0.0,-2.9913,-2.9913,-2.9913,-2.9913,-2.9913,-2.9913,-2.9913,-2.9913,-2.9913,-2.9913,-2.9913,-2.9913,-2.9913,-2.9913,-2.9913,-2.9913,-2.9913,-2.9913,-2.9913,-2.9913,-2.9913,-2.9913,0.0,0.0,0.0,0.0,0.0,0.0,0.0,0.0,0.0,0.0,0.0,0.0,0.0,0.0,0.0,0.0,0.0,0.0,0.0,-0.8015,-0.8269,-0.8689,-0.8947,-0.9042,-0.8981,-0.8844,-0.875,-0.852,-0.8621,-1.0059,-1.2718,-1.2803,-1.3845,-1.5633,-1.4279,-1.3116,-1.2037,-1.0473,-1.0109,-1.0581,-1.1054,-1.1674,-1.2281,-1.1144,-1.0408,-0.9754,-0.8407,-0.7928,-0.7948,-0.7948,0.0,0.0,0.0,0.0,-0.9396,-1.1385,-1.2033,-1.2049,-1.2082,0.0,-1.3057,-1.3325,-1.36,0.0,-1.4717,0.0,0.0,0.0,0.0,0.0,0.0,0.0,0.0,0.0,0.0,0.0,0.0,0.0,0.0,0.0,0.0,0.0,0.0,0.0,0.0,0.0,0.0,0.0,0.0,0.0,0.0,0.0,0.0,-2.9913,-2.9913,-2.9913,-2.9913,-2.9913,-2.9913,-2.9913,-2.9913,-2.9913,-2.9913,-2.9913,-2.9913,-2.9913,-2.9913,-2.9913,-2.9913,-2.9913,-2.9913,-2.9913,-2.9913,-2.9913,-2.9913,-2.9913,0.0,0.0,0.0,0.0,0.0,0.0,0.0,0.0,0.0,0.0,-0.7988,-0.7988,-0.7988,-0.7988,0.0,0.0,0.0,0.0,-0.7988,0.0,0.0,-0.8696,-0.875,-0.8879,-0.9173,-0.8743,-0.8587,-0.8682,-0.8567,-1.0954,-1.5554,-1.492,-1.5054,-1.5739,-1.6359,-1.4896,-1.2051,-1.2121,-1.069,-0.8628,-1.0897,-1.055,-0.8807,-0.9608,-0.9187,-0.8091,-0.776,-0.774,-0.7841,-0.7841,-0.788,0.0,0.0,0.0,0.0,0.0,-1.1883,-1.0766,0.0,0.0,-1.2035,0.0,-1.3526,-1.4393,0.0,0.0,0.0,0.0,0.0,0.0,0.0,0.0,0.0,0.0,0.0,0.0,0.0,0.0,0.0,0.0,0.0,0.0,0.0,0.0,0.0,0.0,0.0,0.0,0.0,0.0,-2.9913,-2.9913,-2.9913,0.0,-2.9913,-2.9913,-2.9913,-2.9913,-2.9913,-2.9913,-2.9913,-2.9913,-2.9913,-2.9913,-2.9913,-2.9913,-2.9913,-2.9913,-2.9913,-2.9913,-2.9913,-2.9913,-2.9913,-2.9913,-2.9913,-2.9913,0.0,0.0,0.0,0.0,0.0,0.0,0.0,0.0,0.0,0.0,0.0,-0.7988,-0.7988,-0.7988,0.0,0.0,0.0,0.0,-0.7988,-0.8187,0.0,-0.8574,-0.8581,-0.8642,-0.8825,-0.8559,-0.8397,-0.8465,-0.8397,-1.0335,-1.4142,-1.5176,-1.6655,-1.8474,-1.8249,-1.6469,-1.3538,-1.3052,-1.1388,-0.9213,-1.0386,-0.9959,-0.8654,-0.8669,-0.8564,-0.837,-0.7801,-0.7638,-0.7706,-0.7787,-0.7855,-0.8007,0.0,0.0,0.0,0.0,0.0,-1.2932,-1.3184,-1.2363,-1.1721,0.0,0.0,0.0,0.0,0.0,0.0,0.0,0.0,0.0,0.0,0.0,0.0,0.0,0.0,0.0,0.0,0.0,0.0,0.0,0.0,0.0,0.0,0.0,0.0,0.0,0.0,0.0,0.0,-2.9913,-2.9913,-2.9913,-2.9913,0.0,-2.9913,-2.9913,-2.9913,-2.9913,-2.9913,-2.9913,-2.9913,-2.9913,-2.9913,-2.9913,-2.9913,-2.9913,-2.9913,-2.9913,-2.9913,-2.9913,-2.9913,-2.9913,-2.9913,-2.9913,-2.9913,-2.9913,0.0,0.0,0.0,0.0,0.0,0.0,0.0,0.0,0.0,0.0,0.0,-0.7988,-0.7988,0.0,0.0,0.0,0.0,0.0,-0.7988,0.0,0.0,0.0,-0.8391,-0.8391,-0.8425,-0.8289,-0.8235,-0.832,-0.832,-0.9919,-1.3011,-1.4784,-1.7532,-2.115,-2.0179,-1.796,-1.4906,-1.4548,-1.2912,-1.0552,-1.0755,-1.0134,-0.9152,-0.8574,-0.873,-0.9103,-0.8208,-0.7909,-0.7929,-0.7841,-0.7834,-0.791,0.0,0.0,0.0,0.0,0.0,0.0,0.0,0.0,-1.1084,0.0,0.0,0.0,0.0,0.0,0.0,0.0,0.0,0.0,0.0,0.0,0.0,0.0,0.0,0.0,0.0,0.0,0.0,0.0,0.0,0.0,0.0,0.0,0.0,0.0,0.0,0.0,-2.97,-2.97,-2.9726,-2.9806,-2.9806,-2.9847,-2.9913,-2.9913,-2.9913,-2.9913,-2.9913,-2.9913,-2.9913,-2.9913,-2.9913,-2.9913,-2.9913,-2.9913,-2.9913,-2.9913,-2.9913,-2.9913,-2.9913,-2.9913,-2.9913,-2.9913,-2.9913,-2.9913,0.0,0.0,0.0,0.0,0.0,0.0,0.0,0.0,0.0,0.0,0.0,-0.7988,-0.7988,-0.7988,-0.7988,-0.7988,-0.7988,0.0,0.0,0.0,0.0,0.0,0.0,0.0,-0.8327,-0.8133,-0.8126,-0.832,-0.832,-1.0204,-1.3926,-1.4065,-1.7046,-2.2419,-2.2256,-1.9601,-1.5335,-1.7358,-1.5864,-1.2137,-1.269,-1.1449,-0.9268,-0.9734,-0.9958,-0.9937,-0.8974,-0.8743,-0.871,-0.8052,-0.7909,-0.8146,-0.9107,-0.8657,-0.8396,0.0,0.0,0.0,0.0,-1.0795,0.0,0.0,0.0,0.0,0.0,0.0,0.0,0.0,0.0,0.0,0.0,0.0,0.0,0.0,0.0,0.0,0.0,0.0,0.0,0.0,0.0,0.0,0.0,0.0,0.0,0.0,0.0,0.0,-2.9085,-2.9085,-2.9219,-2.9499,-2.9499,-2.9633,-2.9913,-2.9913,-2.9913,-2.9913,-2.9913,-2.9913,-2.9913,-2.9913,-2.9913,-2.9913,-2.9913,-2.9913,-2.9913,-2.9913,-2.9913,-2.9913,-2.9913,-2.9913,-2.9913,-2.9913,-2.9913,-2.9913,0.0,0.0,0.0,0.0,0.0,0.0,0.0,0.0,0.0,0.0,0.0,0.0,0.0,-0.7988,-0.7988,-0.7988,-0.7988,0.0,0.0,0.0,0.0,0.0,0.0,0.0,-0.8119,-0.8015,-0.8015,-0.8126,-0.8126,-0.9086,-1.1065,-1.2738,-1.4429,-1.6148,-1.9163,-2.0141,-1.9522,-1.879,-1.6446,-1.3174,-1.3515,-1.2209,-1.0154,-1.0017,-1.0344,-1.0649,-0.9747,-0.9273,-0.9203,-0.9823,-0.9784,-0.9572,-1.0578,-1.0854,-1.0969,-1.1778,-1.0959,-0.992,0.0,0.0,0.0,0.0,0.0,0.0,0.0,0.0,0.0,0.0,0.0,0.0,0.0,0.0,0.0,0.0,0.0,0.0,0.0,0.0,0.0,0.0,0.0,0.0,0.0,0.0,0.0,0.0,0.0,0.0,-2.9045,-2.9045,-2.9085,-2.9192,-2.9205,-2.9339,-2.9633,-2.9633,-2.9726,-2.9913,-2.9913,-2.9913,-2.9913,-2.9913,-2.9913,-2.9913,-2.9913,-2.9913,-2.9913,-2.9913,-2.9913,-2.9913,-2.9913,-2.9913,-2.9913,-2.9913,-2.9913,-2.9913,0.0,0.0,0.0,0.0,0.0,0.0,0.0,0.0,-0.7988,-0.7988,0.0,0.0,0.0,0.0,-0.7988,-0.7988,-0.7988,-0.7988,-0.7988,-0.7988,0.0,0.0,0.0,0.0,-0.7988,-0.7988,-0.7988,-0.7988,-0.8092,-0.8526,-0.9371,-1.1185,-1.2356,-1.3033,-1.5724,-1.8044,-1.9862,-1.824,-1.6063,-1.3654,-1.3597,-1.2384,-1.0744,-1.0948,-1.124,-1.1457,-1.0806,-1.0283,-1.0046,-1.0724,-1.0554,-1.0208,-1.1409,-1.2078,-1.2089,-1.0521,-0.9619,-0.9217,-0.9507,0.0,0.0,0.0,0.0,0.0,0.0,0.0,0.0,0.0,0.0,0.0,0.0,0.0,0.0,0.0,0.0,0.0,0.0,0.0,0.0,0.0,0.0,0.0,0.0,0.0,0.0,0.0,0.0,0.0,-2.8738,-2.8738,-2.8791,-2.8898,-2.8991,-2.9138,-2.9325,-2.9339,-2.9486,-2.9766,-2.9766,-2.982,-2.9913,-2.9913,-2.9913,-2.9913,-2.9913,-2.9913,-2.9913,-2.9913,-2.9913,-2.9913,-2.9913,-2.9913,-2.9913,-2.9913,-2.9913,-2.9913,0.0,0.0,0.0,0.0,0.0,0.0,0.0,0.0,-0.7988,-0.7988,0.0,0.0,0.0,0.0,0.0,-0.8015,-0.8015,-0.8008,-0.7995,-0.7988,-0.7988,-0.7988,0.0,0.0,-0.7988,-0.7988,-0.7988,-0.7988,-0.8187,-0.8613,-0.9187,-0.9286,-1.0967,-1.3799,-1.2509,-1.3335,-1.5724,-1.5659,-1.4788,-1.3465,-1.3038,-1.2044,-1.0928,-1.2386,-1.2684,-1.2305,-1.2149,-1.1809,-1.1321,-1.0654,-1.0087,-0.9966,-1.1531,-1.2015,-1.1385,-0.7783,-0.7765,-0.8903,0.0,0.0,0.0,0.0,0.0,0.0,0.0,0.0,0.0,0.0,0.0,0.0,0.0,0.0,0.0,0.0,0.0,0.0,0.0,0.0,0.0,0.0,0.0,0.0,0.0,0.0,0.0,0.0,0.0,-2.8221,-2.8221,-2.8221,-2.8283,-2.8577,-2.8871,-2.9018,-2.9032,-2.9032,-2.9179,-2.9472,-2.9472,-2.9619,-2.9887,-2.99,-2.99,-2.99,-2.9913,-2.9913,-2.9913,-2.9913,-2.9913,-2.9913,-2.9913,-2.9913,-2.9913,-2.9913,-2.9913,-2.9913,0.0,0.0,0.0,0.0,0.0,-0.7988,-0.7988,-0.7988,-0.7988,0.0,0.0,0.0,-0.8113,-0.8357,-0.8567,-0.8629,-0.8587,-0.8431,-0.8221,-0.8099,-0.7988,-0.7988,-0.7988,-0.7988,-0.7988,-0.7988,-0.7988,-0.7988,-0.8029,-0.8248,-0.8572,-0.8777,-0.942,-1.0295,-1.0252,-1.0599,-1.1339,-1.3394,-1.393,-1.3297,-1.2934,-1.2361,-1.1898,-1.2318,-1.2732,-1.3071,-1.2922,-1.2644,-1.2443,0.0,-1.2635,-1.1838,-1.1799,-1.1627,-1.0904,-0.8624,-0.7937,-0.7925,-0.7731,0.0,0.0,0.0,0.0,0.0,0.0,0.0,0.0,0.0,0.0,0.0,0.0,0.0,0.0,0.0,0.0,0.0,0.0,0.0,0.0,0.0,0.0,0.0,0.0,0.0,0.0,0.0,0.0,-2.8221,-2.8221,-2.8221,-2.8261,-2.827,-2.835,-2.8497,-2.8724,-2.8724,-2.8871,-2.9165,-2.9165,-2.9205,-2.9285,-2.9513,-2.9606,-2.9619,-2.982,-2.9913,-2.9913,-2.9913,-2.9913,-2.9913,-2.9913,-2.9913,-2.9913,-2.9913,-2.9913,-2.9913,0.0,0.0,-0.8008,-0.8126,-0.8187,-0.8248,-0.8258,-0.8269,-0.8248,0.0,0.0,0.0,-0.8316,-0.8832,-0.9083,-0.8866,-0.8764,-0.8587,-0.834,-0.8126,-0.7988,-0.7988,-0.7988,-0.8022,-0.8133,-0.8022,-0.8022,-0.8133,-0.8022,-0.8035,-0.818,-0.835,-0.8426,-0.8521,-0.8771,-0.8913,-0.9147,-1.0607,-1.1473,-1.1937,-1.2319,-1.2292,-1.2162,-1.2725,-1.3091,0.0,0.0,0.0,-1.3063,-1.3742,-1.3409,-1.2548,-1.1684,-1.1125,-1.0525,-0.9171,-0.839,-0.7889,-0.7522,-0.8032,-0.8788,0.0,0.0,0.0,0.0,0.0,0.0,0.0,0.0,0.0,0.0,0.0,0.0,0.0,0.0,0.0,0.0,0.0,0.0,0.0,0.0,0.0,0.0,0.0,0.0,0.0,-2.7682,-2.7829,-2.7949,-2.8154,-2.8221,-2.8221,-2.8221,-2.8315,-2.8417,-2.8417,-2.8564,-2.8858,-2.8858,-2.8925,-2.9045,-2.9219,-2.9366,-2.9499,-2.9659,-2.9806,-2.9913,-2.9913,-2.9913,-2.9913,-2.9913,-2.9913,-2.9913,-2.9913,-2.9913,-2.9913,0.0,0.0,-0.8092,-0.8262,-0.8397,-0.8547,-0.873,-0.8628,-0.8594,0.0,-0.8574,-0.8554,-0.8893,-0.9476,-0.9591,-0.896,-0.8818,-0.8642,-0.8364,-0.8153,-0.7988,-0.7988,-0.7988,-0.8106,-0.8241,-0.8113,-0.8106,-0.8248,-0.8106,-0.7988,-0.7988,-0.7988,-0.7982,-0.7961,-0.7875,-0.8031,-0.8391,-0.8085,-0.8771,-1.0092,-1.1375,-1.1898,0.0,0.0,-1.3573,-1.337,-1.3885,-1.3824,-1.3485,-1.3403,-1.3184,-1.2669,-1.1649,-1.1003,-1.0449,-0.9779,-0.9137,-0.8513,-0.8079,-0.8901,-0.9693,-0.8895,0.0,0.0,-0.998,-1.0302,0.0,0.0,0.0,0.0,0.0,0.0,0.0,0.0,0.0,0.0,0.0,0.0,0.0,0.0,0.0,0.0,0.0,0.0,0.0,-2.7215,-2.7241,-2.7375,-2.7642,-2.7896,-2.814,-2.8181,-2.8181,-2.8194,-2.8221,-2.8221,-2.8283,-2.8564,-2.8564,-2.8684,-2.8938,-2.8978,-2.9138,-2.9392,-2.9419,-2.9593,-2.9873,-2.9873,-2.9887,-2.9913,-2.9913,-2.9913,-2.9913,-2.9913,-2.9913,-2.9913,0.0,-0.7988,-0.8076,-0.8391,-0.8465,-0.8615,-0.9064,-0.894,-0.8947,-0.9218,-0.9306,-0.9598,-1.0256,-1.0071,-0.9984,-1.0134,-0.9483,-0.8994,-0.8818,-0.8271,-0.7988,-0.7988,-0.7988,-0.8002,-0.8035,-0.8008,-0.8002,-0.8085,-0.8002,-0.7988,-0.7988,-0.7988,-0.7928,-0.7855,-0.7828,-0.7862,-0.7984,-0.8621,0.0,-1.0017,-1.0473,0.0,-1.2779,-1.3159,-1.3627,-1.4082,-1.4075,-1.4095,-1.4034,-1.3424,-1.3532,-1.3769,-1.3104,-1.2378,-1.1771,-1.1449,-1.0404,-0.932,-0.9036,-0.9154,-0.923,0.0,0.0,0.0,0.0,-0.8737,0.0,0.0,0.0,0.0,0.0,0.0,0.0,0.0,0.0,0.0,0.0,0.0,0.0,0.0,0.0,0.0,0.0,0.0,-2.6653,-2.6894,-2.7134,-2.7295,-2.7348,-2.7402,-2.7549,-2.7776,-2.7789,-2.7896,-2.8221,-2.8221,-2.8261,-2.8315,-2.8315,-2.8355,-2.8323,-2.8577,-2.8724,-2.8791,-2.9018,-2.9299,-2.9566,-2.9566,-2.9713,-2.9913,-2.9913,-2.9913,-2.9913,-2.9913,-2.9913,-2.9913,-0.7988,-0.7988,-0.811,-0.8533,-0.8662,-0.8886,-0.9408,-0.9367,-0.9435,-0.9876,-1.0195,-1.0412,-1.0493,-1.0561,-1.0487,-1.0181,-0.968,-0.9225,-0.8852,-0.8404,-0.8119,-0.7995,-0.7988,-0.8056,-0.8255,-0.8062,-0.8062,-0.8262,-0.8031,-0.7874,-0.7874,-0.7874,-0.8004,-0.8133,-0.7909,-0.8018,-0.8384,-0.8533,-0.9028,-0.9815,-1.0934,0.0,-1.3119,-1.3566,-1.3973,-1.4292,-1.4211,-1.4238,-1.4177,-1.3342,-1.3338,0.0,0.0,-1.266,-1.2178,0.0,-1.1788,-1.0329,-1.059,0.0,0.0,-0.9117,0.0,0.0,0.0,0.0,0.0,0.0,0.0,0.0,0.0,0.0,0.0,0.0,0.0,0.0,0.0,0.0,0.0,0.0,0.0,0.0,0.0,0.0,-2.3502,-2.4736,-2.608,-2.6894,-2.7041,-2.7188,-2.7335,-2.7482,-2.7629,-2.7762,-2.7923,-2.8154,-2.8221,-2.8221,-2.8221,-2.8221,-2.8234,-2.831,-2.8457,-2.8617,-2.8764,-2.8991,-2.9272,-2.9419,-2.9566,-2.9713,-2.986,-2.9913,-2.9913,-2.9913,-2.9913,-2.9913,-0.7982,-0.7988,-0.8123,-0.8594,-0.8818,-0.9074,-0.9693,-0.9707,-0.9876,-1.05,-1.0995,-1.1145,-1.0751,-1.1111,-1.1131,-1.0521,-1.0073,-0.9632,-0.9171,-0.8676,-0.8343,-0.8164,-0.8049,-0.8194,-0.852,-0.8208,-0.8153,-0.8397,-0.8004,-0.7814,-0.7814,-0.7814,-0.8004,-0.8343,-0.8092,-0.8323,-0.8817,-0.8474,0.0,-0.9971,0.0,-1.2589,-1.2881,-1.3749,-1.4082,-1.4102,-1.4245,-1.4299,-1.417,-1.3329,-1.3044,-1.3072,-1.3292,-1.2708,0.0,0.0,0.0,0.0,0.0,0.0,0.0,0.0,0.0,-0.9259,0.0,0.0,0.0,-0.9651,0.0,0.0,0.0,0.0,0.0,0.0,0.0,0.0,0.0,0.0,0.0,0.0,0.0,0.0,0.0,0.0,-2.0373,-2.3122,-2.4648,-2.5779,-2.6627,-2.6881,-2.7068,-2.7175,-2.7402,-2.7589,-2.7696,-2.7936,-2.8167,-2.8221,-2.8221,-2.8221,-2.8221,-2.8221,-2.8283,-2.8524,-2.8524,-2.8684,-2.8978,-2.9219,-2.9352,-2.9432,-2.978,-2.9913,-2.9913,-2.9913,-2.9913,-2.9913,-0.7961,-0.7988,-0.8089,-0.8452,-0.875,-0.904,-0.9564,-0.9727,-1.0059,-1.0732,-1.1396,-1.1877,-1.221,-1.2196,-1.2332,-1.2752,-1.1443,-1.0622,-1.0624,-0.9485,-0.8797,-0.8784,-0.8271,-0.819,-0.8676,-0.8211,-0.8008,-0.8042,-0.7902,-0.7814,-0.7814,-0.7814,-0.7834,-0.7909,-0.8391,-0.8655,-0.8777,0.0,-1.0297,0.0,-1.206,-1.1945,0.0,-1.2813,-1.3302,-1.339,-1.4061,-1.4299,-1.4204,0.0,-1.3349,-1.3485,0.0,-1.3362,-1.2447,-1.3604,0.0,0.0,0.0,0.0,0.0,0.0,-1.0066,0.0,0.0,0.0,-0.905,-0.8716,0.0,0.0,0.0,0.0,0.0,0.0,0.0,0.0,0.0,0.0,0.0,0.0,0.0,0.0,0.0,0.0,0.0,-2.455,-2.3187,-2.3264,-2.5985,-2.6171,-2.6346,-2.6854,-2.6907,-2.7175,-2.7696,-2.7736,-2.7883,-2.8221,-2.8221,-2.8221,-2.8221,-2.8221,-2.8248,-2.8274,-2.8274,-2.8377,-2.8657,-2.8698,-2.8858,-2.9152,-2.97,-2.9913,-2.9913,-2.9913,-2.9913,-2.9913,-0.7961,-0.7988,-0.8083,-0.8431,-0.8587,-0.8886,-0.9517,-1.0324,-1.0948,-1.1172,-1.1796,-1.2257,-1.2366,-1.2481,-1.261,-1.2773,-1.2155,-1.1558,0.0,-1.0222,-0.9598,-0.934,-0.875,-0.856,-0.8838,-0.8404,-0.8174,-0.8174,-0.7848,-0.7685,-0.7685,-0.7685,-0.7963,-0.8426,-0.8818,0.0,-1.0012,0.0,-1.0378,0.0,0.0,0.0,0.0,-1.3085,-1.3824,-1.3871,-1.4183,-1.4299,-1.4211,0.0,-1.3342,0.0,0.0,0.0,0.0,0.0,0.0,0.0,0.0,0.0,0.0,0.0,0.0,0.0,-0.8933,0.0,-0.8716,0.0,0.0,0.0,0.0,0.0,0.0,0.0,0.0,0.0,0.0,0.0,0.0,0.0,0.0,0.0,0.0,0.0,0.0,0.0,0.0,-2.1896,-2.3718,-2.5047,-2.5892,-2.6306,-2.664,-2.6934,-2.7188,-2.7362,-2.7602,-2.7883,-2.7883,-2.7976,-2.8221,-2.8221,-2.8221,-2.8221,-2.8221,-2.8301,-2.835,-2.8537,-2.8684,-2.8831,-2.9245,-2.9513,-2.9686,-2.986,-2.9913,-2.9913,-0.7961,-0.7988,-0.8056,-0.8323,-0.8465,-0.8811,-0.9612,-1.0629,-1.1341,-1.1443,-1.2033,-1.2481,-1.2583,-1.2895,-1.3132,-1.3227,-1.3091,-1.2664,0.0,-1.1124,-1.0521,-1.0114,-0.9367,-0.9049,-0.9239,-0.8682,-0.835,-0.832,-0.7862,-0.7678,-0.7719,-0.7678,-0.8052,-0.8771,-0.9164,-0.9869,-1.0765,0.0,-1.0846,-1.1111,-1.1538,-1.1708,-1.187,-1.3403,-1.4122,-1.4299,-1.4299,-1.4299,-1.4211,-1.3654,-1.339,0.0,-1.303,0.0,0.0,0.0,0.0,0.0,-1.3013,0.0,0.0,0.0,0.0,0.0,0.0,0.0,0.0,0.0,0.0,0.0,0.0,0.0,0.0,-0.854,0.0,0.0,0.0,0.0,0.0,0.0,0.0,0.0,0.0,0.0,0.0,0.0,0.0,0.0,-2.2571,-2.4295,-2.5358,-2.5825,-2.6319,-2.6653,-2.6827,-2.7041,-2.7335,-2.7696,-2.7017,-2.7258,-2.815,-2.7532,-2.7617,-2.8221,-2.8221,-2.8221,-2.8248,-2.839,-2.8484,-2.8511,-2.8804,-2.8696,-2.8367,-2.93,-2.9726,-2.978,-0.7961,-0.7988,-0.7995,-0.8002,-0.8411,-0.9001,-0.9835,-1.0317,-1.0792,-1.1518,-1.2013,-1.2569,-1.3288,-1.3763,-1.4319,-1.5031,0.0,-1.4048,-1.358,0.0,-1.1647,-1.1348,-1.0209,-0.972,-1.0074,-0.915,-0.856,-0.832,-0.7957,-0.7882,-0.7975,-0.7875,-0.7977,-0.8388,-0.9347,-0.9985,-1.0365,-1.1362,-1.2284,-1.3078,-1.3098,-1.3539,-1.4116,0.0,-1.3661,-1.4299,-1.4299,0.0,0.0,-1.3777,-1.362,0.0,0.0,0.0,0.0,0.0,0.0,0.0,0.0,0.0,0.0,-1.0243,0.0,0.0,0.0,0.0,-0.9266,0.0,0.0,0.0,0.0,-0.9289,-0.9091,-0.875,-0.871,0.0,0.0,0.0,0.0,0.0,0.0,0.0,0.0,0.0,0.0,0.0,0.0,0.0,-2.3474,-2.4088,-2.4636,-2.5504,-2.5825,-2.6253,-2.6814,-2.6827,-2.7121,-2.7696,-2.5406,-2.5722,-2.8136,-2.5811,-2.6066,-2.8221,-2.8221,-2.8221,-2.8221,-2.8234,-2.8248,-2.8274,-2.8497,-2.7203,-2.556,-2.8069,-2.9245,-2.9459,-0.816,-0.8194,-0.816,-0.8008,-0.8248,-0.875,-0.9747,-1.0487,-1.1274,0.0,-1.2657,0.0,0.0,-1.4597,-1.495,0.0,0.0,-1.495,-1.4401,-1.3329,0.0,-1.2718,-1.1294,-1.0588,-1.0852,-0.9903,-0.9205,-0.871,-0.8309,-0.814,-0.8187,-0.7929,-0.8024,-0.8452,-0.9395,-1.0209,0.0,0.0,0.0,0.0,0.0,-1.3539,-1.4272,0.0,0.0,-1.4299,-1.4299,-1.4299,0.0,-1.4122,-1.3871,-1.3634,-1.3682,-1.3356,-1.3043,-1.2949,-1.284,0.0,0.0,0.0,-1.2386,-1.0928,0.0,0.0,0.0,0.0,0.0,0.0,0.0,0.0,0.0,-0.911,-0.8913,-0.8608,-0.856,-0.837,0.0,0.0,0.0,0.0,0.0,0.0,0.0,0.0,0.0,0.0,0.0,0.0,0.0,-2.2434,-2.3988,-2.3403,-2.5062,-2.6146,-2.6533,-2.6533,-2.6734,-2.704,-2.4967,-2.452,-2.5457,-2.3306,-2.2858,-2.3555,-2.3555,-2.3555,-2.3727,-2.5203,-2.4935,-2.3738,-2.5396,-2.4551,-2.3032,-2.7432,-2.8111,-2.692,-0.8262,-0.832,-0.8241,-0.814,-0.8425,-0.8981,-0.9917,0.0,0.0,0.0,-1.3207,0.0,-1.4645,0.0,-1.5269,0.0,-1.5676,-1.5472,-1.4706,-1.4129,0.0,-1.3492,-1.2366,0.0,-1.1721,-1.0785,-0.9958,-0.9195,-0.8804,-0.8586,-0.8418,-0.8119,-0.8153,-0.852,-0.9367,-1.0215,-1.107,0.0,-1.2651,0.0,0.0,-1.3783,0.0,0.0,-1.4299,-1.4299,0.0,-1.4299,-1.4299,-1.4299,-1.4109,-1.3899,-1.4095,-1.3783,-1.3363,-1.3397,-1.3275,-1.3057,-1.2745,-1.2847,0.0,-1.1497,-1.1111,0.0,-0.9469,0.0,0.0,0.0,0.0,0.0,0.0,0.0,-0.9049,-0.8906,-0.8655,-0.8275,0.0,0.0,0.0,0.0,0.0,0.0,0.0,0.0,-0.9863,-1.2371,0.0,0.0,0.0,0.0,-2.1825,-2.1984,-2.378,-2.4893,-2.5097,-2.5199,-2.4979,-2.4434,-2.2366,-2.1943,-2.3016,-2.0868,-2.0374,-2.1221,-2.1221,-2.1221,-2.1394,-2.3738,-2.3298,-2.1394,-2.3824,-2.2783,-2.0482,-2.4708,-2.5271,-2.4049,-0.8374,-0.8368,0.0,0.0,-0.894,0.0,0.0,0.0,-1.2454,0.0,-1.3654,-1.4292,-1.4767,-1.5079,-1.5364,-1.5649,-1.5927,-1.5662,-1.4652,-1.4835,0.0,0.0,-1.3403,-1.3085,-1.28,-1.1755,-1.0772,-0.989,-0.9401,-0.9015,-0.8723,-0.8425,-0.835,-0.8506,-0.9259,0.0,-1.0799,-1.2128,-1.3146,-1.3878,-1.4177,-1.4299,-1.4299,-1.4299,0.0,-1.4299,-1.4299,-1.4299,-1.4299,-1.4299,-1.4299,-1.4299,-1.4299,-1.4197,-1.4055,-1.3899,-1.3851,-1.3729,-1.3159,-1.3098,-1.2949,-1.1938,0.0,0.0,0.0,0.0,-1.1029,0.0,0.0,0.0,0.0,0.0,-0.9456,-0.9551,-0.8933,-0.8255,-0.7692,0.0,0.0,0.0,0.0,0.0,0.0,0.0,-0.8954,-1.175,-1.1868,0.0,0.0,0.0,0.0,-2.1009,-2.1866,-2.2405,-2.2516,-2.2772,-2.2048,-2.022,-1.8007,-1.8289,-2.0697,-1.842,-1.8622,-2.0875,-2.0875,-2.0875,-2.1048,-2.3384,-2.2955,-2.1048,-2.347,-2.1566,-1.7938,-2.0183,-2.1135,-2.1251,-0.8628,-0.896,-0.9334,0.0,-0.9659,-0.9998,0.0,0.0,0.0,0.0,-1.4346,-1.5038,-1.5818,-1.6069,-1.6164,-1.6137,-1.6205,0.0,0.0,0.0,0.0,-1.5276,-1.4353,-1.3804,-1.3729,-1.2481,-1.1497,-1.0819,-0.9815,-0.9282,-0.9084,-0.8621,-0.8391,-0.8408,0.0,0.0,-1.0622,-1.1755,-1.2922,-1.4027,-1.4224,-1.4299,0.0,0.0,-1.4299,-1.4299,-1.4299,-1.4299,-1.4299,-1.4299,-1.4299,-1.4299,-1.4299,-1.4272,-1.4211,-1.4055,-1.4014,-1.3953,-1.3688,-1.3566,-1.337,-1.2766,-1.2277,-1.1789,0.0,0.0,0.0,0.0,0.0,0.0,0.0,0.0,0.0,-0.9062,-0.8404,-0.7929,-0.778,0.0,0.0,0.0,0.0,0.0,0.0,0.0,-0.9065,-1.1315,0.0,0.0,0.0,0.0,0.0,-1.6857,-1.886,-2.0114,-2.0438,-2.0681,-2.0505,-1.9998,-1.7861,-1.7305,-1.8046,-1.5894,-1.5359,-1.6034,-1.6034,-1.6034,-1.621,-1.8627,-1.82,-1.6298,-1.8627,-1.7763,-1.5513,-1.7851,-1.9749,-2.0972,-0.892,0.0,0.0,-1.0341,0.0,0.0,-1.1586,0.0,0.0,-1.3926,-1.4713,0.0,-1.5859,-1.6279,-1.649,-1.6408,-1.6347,0.0,-1.5811,0.0,0.0,-1.556,-1.4977,-1.4597,-1.4468,-1.3268,0.0,-1.1362,0.0,-0.953,-0.9049,-0.8601,-0.8343,-0.8354,0.0,-0.9659,0.0,-1.1911,-1.3064,-1.3905,-1.4183,0.0,0.0,-1.4299,-1.4299,-1.4299,-1.4299,-1.4299,-1.4299,-1.4299,-1.4299,-1.4299,-1.4299,-1.4299,-1.4285,-1.4197,-1.417,-1.4136,-1.3987,-1.3831,-1.3648,-1.3329,-1.2949,-1.2528,-1.2081,-1.2101,-1.2155,0.0,0.0,0.0,0.0,0.0,0.0,-0.8784,-0.8214,-0.7889,0.0,0.0,0.0,0.0,0.0,0.0,0.0,0.0,0.0,0.0,0.0,0.0,0.0,0.0,0.0,-1.4888,-1.6664,-1.7738,-1.8074,-1.8291,-1.7954,-1.7065,-1.5948,-1.5462,-1.5616,-1.4528,-1.4095,-1.4299,-1.4299,-1.4299,-1.4476,-1.6809,-1.6378,-1.4476,-1.577,-1.5425,-1.4476,-1.5778,-1.7071,-1.8113,-0.9384,0.0,0.0,0.0,0.0,0.0,0.0,-1.2895,0.0,-1.4156,0.0,-1.5567,-1.5581,-1.6185,-1.6571,-1.6551,0.0,-1.611,-1.5567,-1.5872,-1.5845,-1.5323,-1.5391,-1.5309,-1.5031,-1.398,-1.2868,0.0,-1.0751,-0.9822,-0.8871,-0.8499,-0.834,-0.8347,0.0,0.0,0.0,-1.2325,-1.3342,0.0,-1.4129,-1.4299,-1.4299,-1.4299,-1.4299,-1.4299,-1.4299,-1.4299,-1.4299,-1.4299,-1.4299,-1.4299,-1.4299,-1.4299,-1.4299,-1.4299,-1.4299,-1.4272,-1.4136,-1.3973,-1.381,-1.3688,-1.3526,-1.3295,-1.2908,-1.282,-1.2779,-1.2644,-1.2182,-1.1965,0.0,0.0,0.0,-0.8791,0.0,0.0,0.0,0.0,0.0,0.0,0.0,0.0,0.0,0.0,0.0,0.0,0.0,0.0,0.0,0.0,0.0,0.0,-1.491,0.0,-1.5622,0.0,-1.5113,-1.3403,-1.3403,-1.3546,-1.3732,-1.3831,-1.4,-1.4272,-1.4292,-1.4299,-1.4476,-1.6466,-1.6122,-1.4299,-1.4299,-1.4299,-1.4299,-1.4299,-1.4299,-1.4557,0.0,0.0,0.0,0.0,0.0,-1.2888,-1.3478,-1.4055,-1.4611,-1.5113,-1.5845,-1.6374,-1.6503,-1.6748,-1.6849,-1.672,-1.6571,0.0,0.0,0.0,0.0,-1.5927,-1.5716,-1.5513,-1.5337,-1.419,-1.3125,0.0,-1.09,-0.9822,-0.8878,-0.8601,-0.8384,-0.8347,0.0,0.0,-1.1416,-1.2528,0.0,-1.3831,-1.4163,-1.4299,-1.4299,-1.4299,-1.4299,-1.4299,-1.4299,-1.4299,-1.4299,-1.4299,-1.4299,-1.4299,-1.4299,-1.4299,-1.4299,-1.4299,-1.4299,-1.4292,-1.4265,-1.4055,-1.3752,-1.381,-1.36,-1.3376,-1.3302,-1.3281,-1.3275,-1.3247,-1.2969,-1.2617,-1.2244,0.0,0.0,0.0,0.0,0.0,0.0,0.0,0.0,0.0,0.0,0.0,0.0,0.0,0.0,0.0,0.0,0.0,0.0,0.0,0.0,0.0,0.0,0.0,0.0,0.0,0.0,-1.3403,-1.3403,-1.3492,-1.3668,-1.379,-1.3939,-1.4122,-1.4245,-1.4299,-1.4299,-1.4734,-1.4646,-1.4299,-1.4299,-1.4299,-1.4299,-1.4299,-1.4299,-1.4387,0.0,0.0,0.0,0.0,0.0,0.0,0.0,-1.5113,0.0,-1.5425,-1.5791,-1.6123,-1.6266,-1.67,-1.6951,-1.6876,-1.6653,-1.649,-1.6422,-1.6205,-1.6083,-1.6083,-1.5798,0.0,-1.5411,-1.4468,-1.3458,-1.24,-1.1206,-1.0086,-0.9042,-0.8587,-0.8388,-0.8354,0.0,-1.0202,0.0,0.0,0.0,-1.3654,-1.4116,-1.4299,-1.4299,-1.4299,-1.4299,-1.4299,-1.4299,-1.4299,-1.4299,-1.4299,-1.4299,-1.4299,-1.4299,-1.4299,-1.4299,-1.4299,-1.4299,-1.4299,-1.4299,-1.4075,-1.3838,-1.3838,-1.362,-1.3403,-1.3403,-1.3403,-1.3376,-1.3302,-1.3112,-1.2752,-1.2067,-1.1219,0.0,0.0,0.0,0.0,0.0,0.0,0.0,0.0,0.0,0.0,0.0,0.0,0.0,0.0,0.0,0.0,0.0,0.0,0.0,0.0,0.0,0.0,0.0,0.0,0.0,-1.3403,-1.3403,-1.3485,-1.3634,-1.3777,-1.3926,-1.4082,-1.4231,-1.4299,-1.4299,-1.4299,-1.4299,-1.4299,-1.4299,-1.4299,-1.4299,-1.4299,-1.4299,-1.4299,0.0,-1.2074,0.0,0.0,-1.3743,0.0,-1.5086,-1.5825,-1.6164,-1.575,-1.5798,-1.5934,-1.6076,-1.6625,-1.6978,-1.6978,-1.6727,-1.6558,-1.6524,-1.6273,-1.6117,-1.6083,-1.5798,-1.5581,-1.5459,-1.476,-1.3817,0.0,0.0,-1.0507,-0.9344,-0.8777,-0.8559,0.0,0.0,0.0,0.0,0.0,-1.3105,-1.3587,-1.4095,-1.4299,-1.4299,-1.4299,-1.4299,-1.4299,-1.4299,-1.4299,-1.4299,-1.4299,-1.4299,-1.4299,-1.4299,-1.4299,-1.4299,-1.4299,-1.4299,-1.4299,-1.4299,-1.4075,-1.3838,-1.3838,-1.362,-1.3403,-1.3403,-1.3403,-1.3356,-1.3207,-1.303,-1.2691,-1.1965,-1.1477,0.0,0.0,0.0,0.0,0.0,0.0,0.0,0.0,0.0,0.0,0.0,0.0,0.0,0.0,0.0,0.0,-0.8818,-0.9408,0.0,0.0,0.0,0.0,-1.2583,0.0,-1.3091,0.0,-1.3383,-1.3464,-1.3587,-1.3763,-1.3905,-1.4034,-1.4217,-1.4299,-1.4299,-1.4299,-1.4299,-1.4299,-1.4299,-1.4299,-1.4299,-1.4299,-1.4299,-1.4299,0.0,0.0,0.0,0.0,0.0,0.0,0.0,-1.5825,-1.6388,-1.6598,-1.6639,-1.6707,-1.6856,-1.6937,-1.6978,-1.6978,-1.6829,-1.6666,-1.653,-1.6374,-1.6225,-1.609,-1.5798,-1.5635,-1.5615,-1.5011,-1.4177,0.0,0.0,-1.1063,-0.9747,-0.9286,-0.9286,0.0,0.0,0.0,0.0,-1.2861,-1.3471,-1.4027,-1.4224,-1.4299,-1.4299,-1.4299,-1.4299,-1.4299,-1.4299,-1.4299,-1.4299,-1.4299,-1.4299,-1.4299,-1.4299,-1.4299,-1.4299,-1.4299,-1.4299,-1.4299,-1.4299,-1.4075,-1.3838,-1.3838,-1.362,-1.3403,-1.3403,-1.3403,-1.3356,-1.3207,-1.2949,-1.2562,-1.1945,-1.1898,-1.1728,0.0,0.0,0.0,0.0,0.0,0.0,0.0,0.0,0.0,0.0,0.0,0.0,0.0,0.0,0.0,0.0,-0.9388,0.0,-1.0847,0.0,-1.1796,-1.2121,-1.2678,0.0,-1.3193,-1.3336,-1.341,-1.3431,-1.3709,-1.3844,-1.3878,-1.417,-1.4299,-1.4299,-1.4299,-1.4299,-1.4299,-1.4299,-1.4299,-1.4299,-1.4299,-1.4299,-1.4299,0.0,0.0,0.0,0.0,0.0,0.0,0.0,-1.6246,-1.6544,-1.6849,-1.6809,-1.6809,-1.6965,-1.6978,-1.6978,-1.6978,-1.6836,-1.6686,-1.653,-1.6388,-1.6239,-1.609,-1.5798,-1.5642,-1.5642,-1.514,-1.4448,0.0,0.0,0.0,0.0,0.0,0.0,0.0,0.0,-1.202,-1.2725,-1.3234,-1.3688,-1.4089,-1.4238,-1.4353,-1.4421,-1.4333,-1.4353,-1.4414,-1.4333,-1.4299,-1.4299,-1.4299,-1.4299,-1.4299,-1.4299,-1.4299,-1.4299,-1.4299,-1.4299,-1.4299,-1.4299,-1.4075,-1.3838,-1.3838,-1.362,-1.3403,-1.3403,-1.3403,-1.3336,-1.3091,-1.2807,-1.2522,-1.2277,-1.1993,-1.1755,0.0,0.0,0.0,0.0,0.0,0.0,0.0,0.0,0.0,0.0,0.0,0.0,0.0,0.0,0.0,0.0,0.0,0.0,-1.0392,0.0,-1.1762,-1.2135,-1.2736,-1.3078,-1.3308,-1.337,-1.3403,-1.341,-1.3709,-1.3939,-1.4122,-1.4245,-1.4299,-1.4299,-1.4299,-1.4299,-1.4299,-1.4299,-1.4299,-1.4299,-1.4299,-1.4299,-1.4299,-1.4143,0.0,-1.415,0.0,-1.5086,-1.5323,-1.6361,-1.6558,-1.6686,-1.6944,-1.6883,-1.6863,-1.6971,-1.6978,-1.6978,-1.6978,-1.6883,-1.6734,-1.653,-1.6429,-1.6266,-1.6029,-1.5771,0.0,-1.5574,-1.5215,-1.4726,-1.4015,-1.3241,0.0,0.0,0.0,0.0,0.0,-1.2142,-1.2698,-1.3247,-1.3654,-1.3994,-1.4278,-1.4387,-1.4489,-1.457,-1.4468,-1.4489,-1.4557,-1.4414,-1.436,-1.4353,-1.4312,-1.4299,-1.4299,-1.4299,-1.4299,-1.4299,-1.4299,-1.4299,-1.4299,-1.4299,-1.4109,-1.3899,-1.3851,-1.3654,-1.3458,-1.341,-1.3403,-1.3315,-1.3024,-1.2718,-1.2501,-1.2501,-1.2088,-1.1789,-1.1911,0.0,0.0,0.0,0.0,0.0,0.0,0.0,-0.9306,0.0,0.0,0.0,0.0,0.0,0.0,0.0,0.0,0.0,0.0,0.0,0.0,0.0,-1.2736,-1.3085,-1.3336,-1.3376,-1.3403,-1.341,-1.3709,-1.4007,-1.4299,-1.4299,-1.4299,-1.4299,-1.4299,-1.4299,-1.4299,-1.4299,-1.4299,-1.4299,-1.4299,-1.4299,-1.4299,-1.4869,-1.4957,-1.514,-1.5737,-1.5961,-1.6164,-1.6476,-1.6653,-1.6802,-1.6958,-1.6978,-1.6978,-1.6978,-1.6978,-1.6978,-1.6978,-1.6978,-1.6849,-1.6537,-1.6517,-1.632,0.0,0.0,-1.5567,-1.5418,-1.5262,-1.5031,-1.4726,0.0,0.0,-1.2922,0.0,-1.2196,-1.2508,-1.2956,-1.341,-1.3851,-1.4163,-1.4462,-1.4733,-1.4733,-1.4733,-1.4733,-1.4733,-1.4733,-1.4719,-1.4563,-1.4509,-1.4489,-1.4346,-1.4299,-1.4299,-1.4299,-1.4299,-1.4299,-1.4299,-1.4299,-1.4299,-1.4299,-1.419,-1.4034,-1.3878,-1.3736,-1.3587,-1.3437,-1.3403,-1.3315,-1.3024,-1.2718,-1.2501,-1.2501,-1.2257,-1.1959,-1.1674,0.0,0.0,0.0,0.0,0.0,0.0,-0.976,-0.9214,-0.9207,0.0,0.0,0.0,0.0,0.0,0.0,0.0,0.0,-1.084,-1.1382,0.0,-1.2135,-1.2736,-1.303,-1.318,-1.3329,-1.3403,-1.341,-1.3709,-1.4007,-1.4299,-1.4299,-1.4299,-1.4299,-1.4299,-1.4299,-1.4299,-1.4299,-1.4299,-1.4299,-1.4299,-1.4299,-1.4299,-1.5086,-1.5113,-1.5208,-1.5499,-1.5757,-1.6029,-1.6334,-1.6592,-1.6768,-1.6815,-1.6917,-1.6904,-1.6693,-1.6856,-1.6978,0.0,-1.6883,-1.6693,0.0,-1.6279,-1.6069,-1.5723,-1.5567,-1.5459,-1.5411,-1.5262,-1.5086,-1.4896,0.0,0.0,0.0,-1.3173,-1.3342,-1.3736,-1.398,-1.4224,-1.4462,-1.4557,-1.4652,-1.474,-1.474,-1.4801,-1.4889,-1.478,-1.4808,-1.4875,-1.4719,-1.4597,-1.4502,-1.4462,-1.438,-1.4299,-1.4299,-1.4299,-1.4299,-1.4299,-1.4299,-1.4299,-1.4299,-1.419,-1.4034,-1.3878,-1.3736,-1.3587,-1.3437,-1.3247,-1.3071,-1.2983,-1.2718,-1.2501,-1.2501,-1.2264,-1.2108,-1.1938,-1.1755,0.0,0.0,0.0,0.0,0.0,0.0,-0.9686,0.0,-0.9422,0.0,0.0,0.0,0.0,0.0,0.0,0.0,0.0,-1.1321,0.0,-1.2216,-1.2712,-1.3085,-1.3329,-1.3376,-1.3505,-1.3702,-1.3797,-1.4007,-1.4299,-1.4299,-1.4299,-1.4299,-1.4299,-1.4299,-1.4299,-1.4299,-1.4299,-1.4299,-1.4299,-1.4299,-1.4299,-1.5181,-1.5181,-1.5228,-1.5384,-1.5615,-1.5872,-1.6178,-1.6429,-1.6605,-1.6659,-1.6748,-1.6734,-1.6544,-1.6693,0.0,-1.689,-1.6754,-1.6564,-1.6327,-1.611,-1.5866,-1.5567,-1.5459,-1.5384,-1.5323,0.0,0.0,-1.5052,-1.4618,-1.4265,-1.3994,-1.4027,-1.4197,-1.4468,-1.4557,-1.4679,-1.4828,-1.4828,-1.4855,-1.4909,-1.4909,-1.4964,-1.5038,-1.4943,-1.4964,-1.5031,-1.4882,-1.4767,-1.4665,-1.455,-1.4455,-1.4373,-1.4319,-1.4299,-1.4299,-1.4299,-1.4299,-1.4299,-1.4299,-1.4231,-1.4122,-1.3966,-1.3817,-1.3654,-1.3451,-1.3214,-1.3024,-1.2969,-1.2759,-1.2569,-1.2515,-1.2264,-1.2135,-1.2135,-1.1809,-1.1565,-1.1409,0.0,0.0,0.0,0.0,0.0,0.0,-0.9992,0.0,0.0,0.0,0.0,0.0,0.0,0.0,-1.0853,-1.1606,0.0,-1.2542,-1.282,-1.3112,-1.3403,-1.3458,-1.3607,-1.3844,-1.3899,-1.4061,-1.4299,-1.4299,-1.4299,-1.4299,-1.4299,-1.4299,-1.4299,-1.4299,-1.4299,-1.4299,-1.4299,-1.4299,-1.4299,-1.5181,-1.5181,0.0,0.0,-1.554,0.0,-1.6022,-1.6212,-1.6368,-1.649,-1.6517,-1.6517,-1.649,-1.651,-1.6571,-1.6707,0.0,0.0,0.0,-1.5995,-1.5696,-1.5404,-1.5398,-1.533,-1.5187,-1.5181,-1.5181,-1.5181,-1.5052,-1.4984,-1.4984,-1.4835,-1.4767,-1.4767,-1.4767,-1.4848,-1.4984,-1.4984,-1.5065,-1.5181,-1.5181,-1.5181,-1.5181,-1.5181,-1.5181,-1.5167,-1.5031,-1.4977,-1.493,-1.4638,-1.4536,-1.4502,-1.4373,-1.4326,-1.4312,-1.4306,-1.4299,-1.4299,-1.4299,-1.4299,-1.4265,-1.4109,-1.3946,-1.3749,-1.3464,-1.3281,-1.3132,-1.299,-1.284,-1.2684,-1.2528,-1.2264,-1.2135,-1.2135,-1.1803,-1.1552,-1.1396,0.0,0.0,0.0,0.0,0.0,0.0,-1.046,-1.0656,0.0,0.0,0.0,0.0,0.0,-1.0948,-1.1803,-1.2142,-1.2515,-1.3036,-1.2969,-1.3119,-1.3403,-1.3553,-1.3702,-1.3844,-1.4,-1.4156,-1.4299,-1.4299,-1.4299,-1.4299,-1.4299,-1.4299,-1.4299,-1.4299,-1.4299,-1.4299,-1.4299,-1.4299,-1.4299,0.0,0.0,-1.5194,-1.5228,-1.5554,-1.5825,-1.59,-1.6225,-1.6442,-1.6368,-1.6456,-1.6435,-1.6212,-1.6388,-1.649,-1.6422,-1.6273,-1.6123,-1.5967,-1.5683,-1.5432,-1.5242,-1.5235,-1.5221,-1.5181,-1.5181,-1.5181,-1.5181,-1.5147,-1.5133,-1.5133,-1.5092,-1.5079,-1.5079,-1.5079,-1.5099,-1.5133,-1.5133,-1.5153,-1.5181,-1.5181,-1.5181,-1.5181,-1.5181,-1.5181,-1.5181,-1.5147,-1.5065,-1.4964,-1.4889,-1.478,-1.4679,-1.4645,-1.4557,-1.4441,-1.4333,-1.4299,-1.4299,-1.4299,-1.4299,-1.4265,-1.4109,-1.3871,-1.3634,-1.3444,-1.3281,-1.3132,-1.299,-1.284,-1.2684,-1.2528,-1.2264,-1.2135,-1.2135,-1.1714,-1.1389,-1.124,-1.1158,0.0,0.0,-1.086,-1.0867,-1.0636,-1.0955,-1.1063,0.0,0.0,0.0,0.0,0.0,-1.1375,-1.1816,-1.2237,-1.2617,-1.3036,-1.3071,-1.3214,-1.3403,-1.3553,-1.3702,-1.3844,-1.4,-1.4156,-1.4299,-1.4299,-1.4299,-1.4299,-1.4299,-1.4299,-1.4299,-1.4299,-1.4299,-1.4299,-1.4299,-1.4299,-1.4299,-1.5181,-1.5181,-1.5181,-1.5181,-1.5438,-1.5676,-1.5744,-1.6015,-1.6212,-1.6205,-1.6273,-1.6259,-1.6096,-1.6225,-1.6286,-1.6212,-1.6069,-1.594,-1.5859,-1.5513,-1.5269,-1.5187,-1.5181,-1.5181,-1.5181,-1.5181,-1.5181,-1.5181,-1.5181,-1.5181,-1.5181,-1.5181,-1.5181,-1.5181,-1.5181,-1.5181,-1.5181,-1.5181,-1.5181,-1.5181,-1.5181,-1.5181,-1.5181,-1.5181,-1.5181,-1.5181,-1.5181,-1.5133,-1.5059,-1.4991,-1.4916,-1.4835,-1.476,-1.4685,-1.4604,-1.4523,-1.4407,-1.4299,-1.4299,-1.4299,-1.4265,-1.4109,-1.3899,-1.3688,-1.3539,-1.339,-1.3234,-1.3085,-1.2942,-1.2786,-1.263,-1.2311,-1.204,-1.1965,-1.1701,-1.1416,-1.1261,-1.1219,0.0,-1.105,-1.1172,-1.126,-1.1233,-1.145,-1.1491,-1.1246,0.0,0.0,-1.1463,-1.1681,-1.1877,-1.2033,-1.2406,-1.2752,-1.3057,-1.3207,-1.3356,-1.3505,-1.3654,-1.3804,-1.3953,-1.4109,-1.4224,-1.4299,-1.4299,-1.4299,-1.4299,-1.4299,-1.4299,-1.4299,-1.4299,-1.4299,-1.4299,-1.4299,-1.4299,-1.4299,-1.5181,-1.5181,-1.5181,-1.5181,-1.533,-1.5493,-1.5622,-1.5778,-1.5934,-1.6062,-1.6083,-1.6083,-1.6083,-1.6083,-1.6083,-1.6083,-1.592,-1.5818,-1.5818,-1.5418,-1.5181,-1.5181,-1.5181,-1.5181,-1.5181,-1.5181,-1.5181,-1.5181,-1.5181,-1.5181,-1.5181,-1.5181,-1.5181,-1.5181,-1.5181,-1.5181,-1.5181,-1.5181,-1.5181,-1.5181,-1.5181,-1.5181,-1.5181,-1.5181,-1.5181,-1.5181,-1.5181,-1.5181,-1.5167,-1.5045,-1.5004,-1.4977,-1.4848,-1.4794,-1.4774,-1.4774,-1.4584,-1.436,-1.434,-1.4319,-1.4265,-1.4109,-1.3973,-1.3831,-1.3668,-1.3532,-1.3383,-1.3207,-1.3078,-1.2942,-1.2759,-1.2386,-1.204,-1.1857,-1.1694,-1.1484,-1.1206,0.0,-1.1402,-1.1423,-1.1443,-1.1565,-1.1837,-1.1864,-1.1877,-1.1898,-1.1999,0.0,0.0,-1.2169,-1.2332,-1.2352,-1.2623,-1.2908,-1.3207,-1.3336,-1.3478,-1.3634,-1.3777,-1.3926,-1.4075,-1.4231,-1.4299,-1.4299,-1.4299,-1.4299,-1.4299,-1.4299,-1.4299,-1.4299,-1.4299,-1.4299,-1.4299,-1.4299,-1.4299,-1.4299,-1.5181,-1.5181,-1.5181,-1.5181,-1.5418,-1.5608,-1.5635,-1.5872,-1.6056,-1.6076,-1.6083,-1.6083,-1.6083,-1.6083,-1.6083,-1.6083,-1.5832,-1.5676,-1.5676,-1.5364,-1.5181,-1.5181,-1.5181,-1.5181,-1.5181,-1.5181,-1.5181,-1.5181,-1.5181,-1.5181,-1.5181,-1.5181,-1.5181,-1.5181,-1.5181,-1.5181,-1.5181,-1.5181,-1.5181,-1.5181,-1.5181,-1.5181,-1.5181,-1.5181,-1.5181,-1.5181,-1.5181,-1.5181,-1.5181,-1.516,-1.5147,-1.5147,-1.512,-1.5031,-1.4936,-1.4936,-1.4808,-1.4645,-1.4516,-1.4394,-1.4265,-1.4109,-1.4055,-1.3966,-1.3688,-1.3614,-1.3512,-1.3227,-1.3152,-1.3057,-1.2779,-1.2467,-1.2162,-1.1877,-1.1606,-1.1362,-1.1185,0.0,-1.1436,-1.1565,-1.1687,-1.183,-1.2006,-1.2026,-1.2081,-1.221,-1.2121,-1.2108,-1.221,-1.2379,-1.2528,-1.2657,-1.2834,-1.3064,-1.3363,-1.339,-1.3478,-1.3634,-1.3777,-1.3926,-1.4075,-1.4231,-1.4299,-1.4299,-1.4299,-1.4299,-1.4299,-1.4299,-1.4299,-1.4299,-1.4299,-1.4299,-1.4299,-1.4299,-1.4299,-1.4299,-1.5181,-1.5181,-1.5181,-1.5181,-1.5391,-1.5574,-1.5628,-1.5893,-1.6083,-1.6083,-1.6083,-1.6083,-1.6083,-1.6083,-1.6083,-1.6083,-1.5811,-1.5642,-1.5642,-1.535,-1.5181,-1.5181,-1.5181,-1.5181,-1.5181,-1.5181,-1.5181,-1.5181,-1.5181,-1.5181,-1.5181,-1.5181,-1.5181,-1.5181,-1.5181,-1.5181,-1.5181,-1.5181,-1.5181,-1.5181,-1.5181,-1.5181,-1.5181,-1.5181,-1.5181,-1.5181,-1.5181,-1.5181,-1.5181,-1.5181,-1.5181,-1.5181,-1.5181,-1.514,-1.5086,-1.5086,-1.4862,-1.4604,-1.4529,-1.4407,-1.4285,-1.4211,-1.4136,-1.4034,-1.3899,-1.3743,-1.3587,-1.3451,-1.3288,-1.3132,-1.2996,-1.2657,-1.2359,-1.2216,-1.1877,0.0,0.0,-1.1586,-1.1653,-1.1728,-1.1864,-1.2013,-1.2169,-1.2182,-1.2216,-1.2284,-1.2372,-1.242,-1.2406,-1.2623,-1.2813,-1.2963,-1.3119,-1.3261,-1.3397,-1.3403,-1.3519,-1.3743,-1.381,-1.3966,-1.4197,-1.4272,-1.4299,-1.4299,-1.4299,-1.4299,-1.4299,-1.4299,-1.4299,-1.4299,-1.4299,-1.4299,-1.4299,-1.4299,-1.4299,-1.4299,-1.5181,-1.5181,-1.5194,-1.5228,-1.5391,-1.556,-1.5669,-1.5913,-1.6083,-1.6083,-1.6083,-1.6083,-1.6083,-1.6083,-1.6083,-1.6083,-1.5839,-1.5676,-1.5642,-1.5384,-1.5221,-1.5181,-1.5181,-1.5181,-1.5181,-1.5181,-1.5181,-1.5181,-1.5181,-1.5181,-1.5181,-1.5181,-1.5181,-1.5181,-1.5181,-1.5181,-1.5181,-1.5181,-1.5181,-1.5181,-1.5181,-1.5181,-1.5181,-1.5181,-1.5181,-1.5181,-1.5181,-1.5181,-1.5181,-1.5181,-1.5181,-1.5181,-1.5181,-1.5181,-1.5181,-1.5181,-1.4916,-1.4604,-1.4529,-1.4407,-1.4299,-1.4299,-1.4211,-1.4116,-1.4082,-1.3892,-1.3715,-1.3641,-1.3444,-1.3254,-1.3186,-1.2861,-1.2576,-1.2467,0.0,0.0,0.0,-1.1864,-1.1898,-1.1932,-1.204,-1.2176,-1.2325,-1.2372,-1.2393,-1.2393,-1.2637,-1.2732,-1.2617,-1.2861,-1.3078,-1.322,-1.3342,-1.3403,-1.3403,-1.3437,-1.3587,-1.3838,-1.3878,-1.4034,-1.4299,-1.4299,-1.4299,-1.4299,-1.4299,-1.4299,-1.4299,-1.4299,-1.4299,-1.4299,-1.4299,-1.4299,-1.4299,-1.4299,-1.4299,-1.4299,-1.5181,-1.5181,-1.5228,-1.5371,-1.552,-1.5676,-1.5818,-1.5974,-1.6083,-1.6083,-1.6083,-1.6083,-1.6083,-1.6083,-1.6083,-1.6083,-1.5934,-1.5784,-1.5649,-1.5486,-1.533,-1.5187,-1.5181,-1.5181,-1.5181,-1.5181,-1.5181,-1.5181,-1.5181,-1.5181,-1.5181,-1.5181,-1.5181,-1.5181,-1.5181,-1.5181,-1.5181,-1.5181,-1.5181,-1.5181,-1.5181,-1.5181,-1.5181,-1.5181,-1.5181,-1.5181,-1.5181,-1.5181,-1.5181,-1.5181,-1.5181,-1.5181,-1.5181,-1.5181,-1.5181,-1.5181,-1.5065,-1.4875,-1.459,-1.4407,-1.4299,-1.4299,-1.4292,-1.4245,-1.4102,-1.4055,-1.396,-1.3688,-1.3614,-1.3512,-1.3227,-1.3037,-1.2793,-1.2372,0.0,0.0,-1.187,-1.1952,-1.2094,-1.2237,-1.2271,-1.2332,-1.2474,-1.2617,-1.2698,-1.2698,-1.2854,-1.2942,-1.2929,-1.3071,-1.3227,-1.3376,-1.3397,-1.3403,-1.3403,-1.3539,-1.3688,-1.3844,-1.3987,-1.4143,-1.4299,-1.4299,-1.4299,-1.4299,-1.4299,-1.4299,-1.4299,-1.4299,-1.4299,-1.4299,-1.4299,-1.4299,-1.4299,-1.4299,-1.4299,-1.4299,-1.5181,-1.5181,-1.5201,-1.5262,-1.5527,-1.5723,-1.5723,-1.5927,-1.6083,-1.6083,-1.6083,-1.6083,-1.6083,-1.6083,-1.6083,-1.6083,-1.5859,-1.5696,-1.5642,-1.5404,-1.5242,-1.5181,-1.5181,-1.5181,-1.5181,-1.5181,-1.5181,-1.5181,-1.5181,-1.5181,-1.5181,-1.5181,-1.5181,-1.5181,-1.5181,-1.5181,-1.5181,-1.5181,-1.5181,-1.5181,-1.5181,-1.5181,-1.5181,-1.5181,-1.5181,-1.5181,-1.5181,-1.5181,-1.5181,-1.5181,-1.5181,-1.5181,-1.5181,-1.5181,-1.5181,-1.5181,-1.5079,-1.4943,-1.4828,-1.4618,-1.4407,-1.4319,-1.4299,-1.4285,-1.4224,-1.4143,-1.4041,-1.3926,-1.3756,-1.3593,-1.3478,-1.3254,-1.3064,-1.299,0.0,-1.2556,-1.2535,-1.2501,-1.2494,-1.2556,-1.2651,-1.2725,-1.2779,-1.284,-1.2874,-1.2874,-1.301,-1.3091,-1.3091,-1.3234,-1.3342,-1.3397,-1.3403,-1.3403,-1.3403,-1.3553,-1.3702,-1.3844,-1.3994,-1.415,-1.4299,-1.4299,-1.4299,-1.4299,-1.4299,-1.4299,-1.4299,-1.4299,-1.4299,-1.4299,-1.4299,-1.4299,-1.4299,-1.4299,-1.4299,-1.4299,-1.5181,-1.5181,-1.5201,-1.5248,-1.5479,-1.5662,-1.5642,-1.5811,-1.594,-1.594,-1.594,-1.594,-1.594,-1.594,-1.594,-1.594,-1.5757,-1.5615,-1.5567,-1.5323,-1.5181,-1.5181,-1.5181,-1.5181,-1.5181,-1.5181,-1.5181,-1.5181,-1.5181,-1.5181,-1.5181,-1.5181,-1.5181,-1.5181,-1.5181,-1.5181,-1.5181,-1.5181,-1.5181,-1.5181,-1.5181,-1.5181,-1.5181,-1.5181,-1.5181,-1.5181,-1.5181,-1.5181,-1.5181,-1.5181,-1.5181,-1.5181,-1.5181,-1.5181,-1.5181,-1.5181,-1.5113,-1.5025,-1.4984,-1.4814,-1.4611,-1.4414,-1.4333,-1.4299,-1.4299,-1.4217,-1.4129,-1.4082,-1.3912,-1.3736,-1.3648,-1.3458,-1.3315,-1.3329,-1.3071,-1.2888,-1.2949,-1.2868,-1.28,-1.28,-1.2895,-1.2963,-1.2963,-1.3003,-1.303,-1.303,-1.3159,-1.3247,-1.3247,-1.3342,-1.3403,-1.3403,-1.3403,-1.3424,-1.3471,-1.362,-1.377,-1.3912,-1.4068,-1.4197,-1.4299,-1.4299,-1.4299,-1.4299,-1.4299,-1.4299,-1.4299,-1.4299,-1.4299,-1.4299,-1.4299,-1.4299,-1.4299,-1.4299,-1.4299,-1.4299,-1.5181,-1.5181,-1.5228,-1.5384,-1.5411,-1.5459,-1.5615,-1.5642,-1.5642,-1.5642,-1.5642,-1.5642,-1.5642,-1.5642,-1.5642,-1.5642,-1.5635,-1.5574,-1.5418,-1.5269,-1.5181,-1.5181,-1.5181,-1.5181,-1.5181,-1.5181,-1.5181,-1.5181,-1.5181,-1.5181,-1.5181,-1.5181,-1.5181,-1.5181,-1.5181,-1.5181,-1.5181,-1.5181,-1.5181,-1.5181,-1.5181,-1.5181,-1.5181,-1.5181,-1.5181,-1.5181,-1.5181,-1.5181,-1.5181,-1.5181,-1.5181,-1.5181,-1.5181,-1.5181,-1.5181,-1.5181,-1.5181,-1.5153,-1.5011,-1.497,-1.4896,-1.459,-1.4407,-1.4299,-1.4299,-1.4299,-1.4258,-1.4102,-1.4075,-1.398,-1.3688,-1.3634,-1.3532,-1.3227,-1.3173,-1.3125,-1.2983,-1.2963,-1.2963,-1.2963,-1.2963,-1.2963,-1.2963,-1.3091,-1.3173,-1.3173,-1.3315,-1.3403,-1.3403,-1.3403,-1.3403,-1.3403,-1.3403,-1.3478,-1.3634,-1.377,-1.3919,-1.4075,-1.4224,-1.4299,-1.4299,-1.4299,-1.4299,-1.4299,-1.4299,-1.4299,-1.4299,-1.4299,-1.4299,-1.4299,-1.4299,-1.4299,-1.4299,-1.4299,-1.4299,-1.4299,-1.5181,-1.5181,-1.5194,-1.5242,-1.5337,-1.5425,-1.5472,-1.5567,-1.5642,-1.5642,-1.5642,-1.5642,-1.5642,-1.5642,-1.5642,-1.5642,-1.554,-1.5411,-1.5262,-1.5208,-1.5181,-1.5181,-1.5181,-1.5181,-1.5181,-1.5181,-1.5181,-1.5181,-1.5181,-1.5181,-1.5181,-1.5181,-1.5181,-1.5181,-1.5181,-1.5181,-1.5181,-1.5181,-1.5181,-1.5181,-1.5181,-1.5181,-1.5181,-1.5181,-1.5181,-1.5181,-1.5181,-1.5181,-1.5181,-1.5181,-1.5181,-1.5181,-1.5181,-1.5181,-1.5181,-1.5181,-1.5181,-1.5174,-1.5133,-1.5045,-1.4923,-1.4719,-1.4557,-1.4448,-1.4448,-1.4373,-1.4285,-1.4245,-1.415,-1.4048,-1.396,-1.3851,-1.3715,-1.3526,-1.3492,-1.3444,-1.3288,-1.3268,-1.3268,-1.3268,-1.3268,-1.3268,-1.3268,-1.3308,-1.3336,-1.3336,-1.3376,-1.3403,-1.3403,-1.3403,-1.3451,-1.3559,-1.3559,-1.3682,-1.3939,-1.3871,-1.3919,-1.4075,-1.4224,-1.4299,-1.4299,-1.4299,-1.4299,-1.4299,-1.4299,-1.4299,-1.4299,-1.4299,-1.4299,-1.4299,-1.4299,-1.4299,-1.4299,-1.4299,-1.4299,-1.4299,-1.5181,-1.5181,-1.5181,-1.5181,-1.5262,-1.5323,-1.5323,-1.5398,-1.5459,-1.5459,-1.5459,-1.5459,-1.5459,-1.5459,-1.5459,-1.5459,-1.5371,-1.5282,-1.5187,-1.4234,-1.3664,-1.3664,-1.271,-1.3181,-1.5181,-1.4234,-1.4234,-1.5181,-1.5181,-1.5181,-1.5181,-1.5181,-1.5181,-1.5181,-1.5181,-1.5181,-1.5181,-1.5181,-1.5181,-1.5181,-1.5181,-1.5181,-1.5181,-1.5181,-1.5181,-1.5181,-1.5181,-1.5181,-1.5181,-1.5181,-1.5181,-1.5181,-1.5181,-1.5181,-1.5181,-1.5181,-1.5181,-1.5181,-1.5181,-1.512,-1.5031,-1.4936,-1.4753,-1.4584,-1.4523,-1.4441,-1.4367,-1.4312,-1.4224,-1.4143,-1.4082,-1.3994,-1.3885,-1.3736,-1.3709,-1.3661,-1.3512,-1.3492,-1.3471,-1.341,-1.3403,-1.3403,-1.3403,-1.3403,-1.3403,-1.3403,-1.3403,-1.3403,-1.3403,-1.3458,-1.3532,-1.3627,-1.3682,-1.3831,-1.4068,-1.398,-1.4007,-1.4163,-1.4258,-1.4299,-1.4299,-1.4299,-1.4299,-1.4299,-1.4299,-1.4299,-1.4299,-1.4299,-1.4299,-1.4299,-1.4299,-1.4299,-1.4299,-1.4299,-1.4299,-1.4299,-1.5181,-1.5181,-1.5181,-1.5181,-1.5181,-1.5181,-1.5181,-1.5181,-1.5181,-1.5181,-1.5181,-1.5181,-1.5181,-1.5181,-1.5181,-1.5181,-1.5181,-1.5087,-1.4899,-1.2716,-1.1291,-1.1102,-0.8637,-0.9582,-1.4422,-1.2428,-1.2528,-1.4899,-1.5087,-1.5181,-1.5181,-1.5181,-1.5181,-1.5181,-1.5181,-1.5181,-1.5181,-1.5181,-1.5181,-1.5181,-1.5181,-1.5181,-1.5181,-1.5181,-1.5181,-1.5181,-1.5181,-1.5181,-1.5181,-1.5181,-1.5181,-1.5181,-1.5181,-1.5181,-1.5181,-1.5181,-1.5181,-1.5181,-1.5181,-1.5181,-1.5181,-1.5181,-1.4977,-1.474,-1.459,-1.4529,-1.4475,-1.4346,-1.4306,-1.4258,-1.4116,-1.4095,-1.4041,-1.3885,-1.3865,-1.381,-1.3668,-1.3648,-1.3593,-1.3458,-1.3437,-1.3437,-1.3424,-1.341,-1.3403,-1.3417,-1.3424,-1.3424,-1.3437,-1.3573,-1.3654,-1.3668,-1.379,-1.3933,-1.4089,-1.4095,-1.4163,-1.4299,-1.4299,-1.4299,-1.4299,-1.4299,-1.4299,-1.4299,-1.4299,-1.4299,-1.4299,-1.4299,-1.4299,-1.4299,-1.4299,-1.4299,-1.4299,-1.4299,-1.4299,-1.4299,-1.5181,-1.5181,-1.5181,-1.5181,-1.5181,-1.5181,-1.5181,-1.5181,-1.5181,-1.5181,-1.5181,-1.5181,-1.5181,-1.5181,-1.5181,-1.5181,-1.5181,-1.4328,-1.2334,-1.1673,-1.0531,-0.8542,-0.5984,-0.6076,-0.9204,-1.0625,-1.1673,-1.2239,-1.4234,-1.5181,-1.5181,-1.5181,-1.5181,-1.5181,-1.5181,-1.5181,-1.5181,-1.5181,-1.5181,-1.5181,-1.5181,-1.5181,-1.5181,-1.5181,-1.5181,-1.5181,-1.5181,-1.5181,-1.5181,-1.5181,-1.5181,-1.5181,-1.5181,-1.5181,-1.5181,-1.5181,-1.5181,-1.5181,-1.5181,-1.5181,-1.5181,-1.5181,-1.5133,-1.5045,-1.4903,-1.4685,-1.4502,-1.4475,-1.438,-1.4292,-1.4258,-1.4251,-1.4197,-1.4048,-1.4021,-1.3966,-1.3817,-1.3797,-1.3783,-1.3749,-1.3743,-1.3702,-1.3593,-1.3471,-1.3451,-1.3573,-1.358,-1.3627,-1.3736,-1.3777,-1.3851,-1.3973,-1.4007,-1.4095,-1.4251,-1.4251,-1.4265,-1.4299,-1.4299,-1.4299,-1.4299,-1.4299,-1.4299,-1.4299,-1.4299,-1.4299,-1.4299,-1.4299,-1.4299,-1.4299,-1.4299,-1.4299,-1.4299,-1.4299,-1.4299,-1.4299,-1.5181,-1.5181,-1.5181,-1.5181,-1.5181,-1.5181,-1.5181,-1.5181,-1.5181,-1.5181,-1.5181,-1.5181,-1.5181,-1.5181,-1.5181,-1.5181,-1.4046,-1.281,-1.1485,-0.9109,-0.7213,-0.5889,-0.3329,-0.3139,-0.57,-0.8258,-1.0153,-1.139,-1.3946,-1.5181,-1.5181,-1.5181,-1.5181,-1.5181,-1.5181,-1.5181,-1.5181,-1.5181,-1.5181,-1.5181,-1.5181,-1.5181,-1.5181,-1.5181,-1.5181,-1.5181,-1.5181,-1.5181,-1.5181,-1.5181,-1.5181,-1.5181,-1.5181,-1.5181,-1.5181,-1.5181,-1.5181,-1.5181,-1.5181,-1.5181,-1.5181,-1.5181,-1.5181,-1.5147,-1.5004,-1.4848,-1.4685,-1.4543,-1.4455,-1.438,-1.4312,-1.4299,-1.4272,-1.419,-1.4183,-1.4129,-1.3973,-1.3953,-1.3926,-1.3851,-1.3838,-1.381,-1.3736,-1.3654,-1.3641,-1.3722,-1.3729,-1.3763,-1.3838,-1.3912,-1.3987,-1.4068,-1.4143,-1.4217,-1.4299,-1.4299,-1.4299,-1.4299,-1.4299,-1.4299,-1.4299,-1.4299,-1.4299,-1.4299,-1.4299,-1.4299,-1.4299,-1.4299,-1.4299,-1.4299,-1.4299,-1.4299,-1.4299,-1.4299,-1.4299,-1.4299,-1.5181,-1.5181,-1.5181,-1.5181,-1.5181,-1.5181,-1.5181,-1.5181,-1.5181,-1.5181,-1.5181,-1.5181,-1.5181,-1.5181,-1.5181,-1.5181,-1.3281,-1.1673,-1.0819,-0.7213,-0.4751,-0.3803,-0.219,-0.2285,-0.4371,-0.6929,-0.9299,-1.139,-1.3946,-1.5181,-1.5181,-1.5181,-1.5181,-1.5181,-1.5181,-1.5181,-1.5181,-1.5181,-1.5181,-1.5181,-1.5181,-1.5181,-1.5181,-1.5181,-1.5181,-1.5181,-1.5181,-1.5181,-1.5181,-1.5181,-1.5181,-1.5181,-1.5181,-1.5181,-1.5181,-1.5181,-1.5181,-1.5181,-1.5181,-1.5181,-1.5181,-1.5181,-1.5181,-1.5153,-1.5031,-1.4991,-1.4896,-1.4645,-1.457,-1.4509,-1.4367,-1.434,-1.4326,-1.4306,-1.4299,-1.4258,-1.4129,-1.4109,-1.4061,-1.3933,-1.3899,-1.3878,-1.3878,-1.3858,-1.3851,-1.3878,-1.3878,-1.3892,-1.3919,-1.4041,-1.4109,-1.4109,-1.4231,-1.4299,-1.4299,-1.4299,-1.4299,-1.4299,-1.4299,-1.4299,-1.4299,-1.4299,-1.4299,-1.4299,-1.4299,-1.4299,-1.4299,-1.4299,-1.4299,-1.4299,-1.4299,-1.4299,-1.4299,-1.4299,-1.4299,-1.4299,-1.5181,-1.5181,-1.5181,-1.5181,-1.5181,-1.5181,-1.5181,-1.5181,-1.5181,-1.5181,-1.5181,-1.5181,-1.5181,-1.5181,-1.5181,-1.5181,-1.4899,-1.2804,-0.8447,-0.9492,-0.8447,-0.3993,-0.5605,-0.6743,-0.7119,-0.9586,-1.1008,-1.139,-1.3946,-1.5181,-1.5181,-1.5181,-1.5181,-1.5181,-1.5181,-1.5181,-1.5181,-1.5181,-1.5181,-1.5181,-1.5181,-1.5181,-1.5181,-1.5181,-1.5181,-1.5181,-1.5181,-1.5181,-1.5181,-1.5181,-1.5181,-1.5181,-1.5181,-1.5181,-1.5181,-1.5181,-1.5181,-1.5181,-1.5181,-1.5181,-1.5181,-1.5181,-1.5181,-1.5174,-1.516,-1.5059,-1.4957,-1.4916,-1.4801,-1.4665,-1.4509,-1.4482,-1.4441,-1.4319,-1.4299,-1.4292,-1.4272,-1.4272,-1.4258,-1.4238,-1.4122,-1.4041,-1.4041,-1.3919,-1.3899,-1.4034,-1.4041,-1.4095,-1.4231,-1.4258,-1.4272,-1.4272,-1.4292,-1.4299,-1.4299,-1.4299,-1.4299,-1.4299,-1.4299,-1.4299,-1.4299,-1.4299,-1.4299,-1.4299,-1.4299,-1.4299,-1.4299,-1.4299,-1.4299,-1.4299,-1.4299,-1.4299,-1.4299,-1.4299,-1.4299,-1.4299,-1.5181,-1.5181,-1.5181,-1.5181,-1.5181,-1.5181,-1.5181,-1.5181,-1.5181,-1.5181,-1.5181,-1.5181,-1.5181,-1.5181,-1.5181,-1.5181,-1.3852,-1.2145,-0.987,-0.9488,-0.8258,-0.5982,-0.7027,-0.8258,-0.9681,-1.0819,-1.2145,-1.3475,-1.461,-1.5181,-1.5181,-1.5181,-1.4422,-1.3093,-1.3093,-1.2334,-1.1097,-1.2428,-1.3093,-1.3187,-1.461,-1.5181,-1.5181,-1.5181,-1.5181,-1.5181,-1.5181,-1.5181,-1.5181,-1.5181,-1.5181,-1.5181,-1.5181,-1.5181,-1.5181,-1.5181,-1.5181,-1.5181,-1.5181,-1.5181,-1.5181,-1.5181,-1.5181,-1.5181,-1.5181,-1.5133,-1.5065,-1.4984,-1.4916,-1.4821,-1.4665,-1.457,-1.4489,-1.4428,-1.4353,-1.4299,-1.4299,-1.4299,-1.4299,-1.4299,-1.4238,-1.4197,-1.4197,-1.4136,-1.4122,-1.4197,-1.4197,-1.4231,-1.4299,-1.4299,-1.4299,-1.4299,-1.4299,-1.4299,-1.4299,-1.4299,-1.4299,-1.4299,-1.4299,-1.4299,-1.4299,-1.4299,-1.4299,-1.4299,-1.4299,-1.4299,-1.4299,-1.4299,-1.4299,-1.4299,-1.4299,-1.4299,-1.4299,-1.4299,-1.4299,-1.4299]}]]